Darstellungsparameter: Aktuell verwendete Einstellungen:
Skalierung der Graphiken ... ?
xyx+y,   Skalierungsfaktor:      Skalierung: Modus: x, Faktor: 1
Darstellungszeitraum ... ?
Vom - - bis: - -   Zeitraum: 08.03.2020 - 05.04.2020
Min/Max/Avg-Anzeige ... ?
Zeige MMA aktuell
Zeige MMA Monat
Zeige MMA alles
Zeige --A aktuell
Zeige --A Monat
Zeige --A alles
Keine MMA-Anzeige
MMA:
Keine MMA-Graphiken
MMA-Basis: 08.03.2020 - 05.04.2020
Quicknavigation für Darstellung... ?
Tage:      1T, 2T, 3T, 5T -1T -2T -3T -5T +1T +2T +3T +5T
Wochen: 1W, 2W, 3W -1W -2W -3W +1W +2W +3W
Monate: 1M, 3M, 6M -1M -3M -6M +1M +3M +6M
Jahre:    1J, 3J, 5J, 10J -1J -3J -5J -10J +1J +3J +5J +10J
Nutze für die Darstellung ... ?
Originaldaten oder Mittelwerte auf ...
Stundenbasis Tagesbasis Wochenbasis
Monatsbasis Jahresbasis      Datenbasis: Original-Daten
Darstellen als:
Statistik (Auto) Statistik J:M      Darstellung:
Zur Graphik,    zurück zur Übersicht aller Sensoren.
 
Tabellarische Datenbersicht: ?
 
Sensor: Nr:Datum:Temp:Feuchte:
Aussen-T/F 1 08-03-2020 00:08:18 6.5 C 35 %
2 08-03-2020 00:18:18 6.4 C 35 %
3 08-03-2020 00:28:18 6.8 C 35 %
4 08-03-2020 00:38:18 6.7 C 35 %
5 08-03-2020 00:48:18 7 C 34 %
6 08-03-2020 00:58:18 7.1 C 35 %
7 08-03-2020 01:08:17 7.1 C 34 %
8 08-03-2020 01:18:17 6.8 C 35 %
9 08-03-2020 01:28:17 6.9 C 35 %
10 08-03-2020 01:38:17 6.7 C 35 %
11 08-03-2020 01:49:17 6.9 C 35 %
12 08-03-2020 01:59:17 6.7 C 35 %
13 08-03-2020 02:09:17 6.8 C 35 %
14 08-03-2020 02:19:17 7 C 35 %
15 08-03-2020 02:29:17 6.9 C 35 %
16 08-03-2020 02:38:17 7.3 C 35 %
17 08-03-2020 02:48:17 7.2 C 35 %
18 08-03-2020 02:58:17 7 C 35 %
19 08-03-2020 03:08:18 7.1 C 35 %
20 08-03-2020 03:19:17 6.7 C 35 %
21 08-03-2020 03:29:17 6.4 C 36 %
22 08-03-2020 03:39:17 6.5 C 36 %
23 08-03-2020 03:48:18 6.6 C 36 %
24 08-03-2020 03:58:18 6.8 C 35 %
25 08-03-2020 04:08:18 7 C 35 %
Sensor: Nr:Datum:Temp:Feuchte:
Aussen-T/F 26 08-03-2020 04:19:17 7.1 C 35 %
27 08-03-2020 04:29:17 7 C 35 %
28 08-03-2020 04:39:17 7 C 35 %
29 08-03-2020 04:49:17 6.8 C 35 %
30 08-03-2020 04:59:17 6.9 C 35 %
31 08-03-2020 05:09:17 7 C 35 %
32 08-03-2020 05:19:17 6.8 C 35 %
33 08-03-2020 05:29:17 6.5 C 35 %
34 08-03-2020 05:39:17 6.8 C 35 %
35 08-03-2020 05:49:17 6.6 C 35 %
36 08-03-2020 05:59:17 6.4 C 35 %
37 08-03-2020 06:09:17 6.4 C 35 %
38 08-03-2020 06:19:17 5.9 C 37 %
39 08-03-2020 06:29:18 6.3 C 36 %
40 08-03-2020 06:39:18 6.6 C 36 %
41 08-03-2020 06:49:17 6.9 C 36 %
42 08-03-2020 06:59:17 7.3 C 35 %
43 08-03-2020 07:09:17 7.4 C 35 %
44 08-03-2020 07:19:17 7.7 C 35 %
45 08-03-2020 07:29:17 7.8 C 35 %
46 08-03-2020 07:39:17 7.9 C 35 %
47 08-03-2020 07:49:17 8 C 35 %
48 08-03-2020 07:59:17 8.2 C 34 %
49 08-03-2020 08:09:17 8.2 C 34 %
50 08-03-2020 08:19:17 8.4 C 34 %
Sensor: Nr:Datum:Temp:Feuchte:
Aussen-T/F 51 08-03-2020 08:29:17 8.6 C 34 %
52 08-03-2020 08:39:17 8.5 C 35 %
53 08-03-2020 08:49:17 8.6 C 34 %
54 08-03-2020 08:59:17 8.6 C 34 %
55 08-03-2020 09:09:17 8.6 C 34 %
56 08-03-2020 09:19:17 8.8 C 34 %
57 08-03-2020 09:29:18 9.2 C 33 %
58 08-03-2020 09:39:17 9.6 C 33 %
59 08-03-2020 09:49:17 10.3 C 32 %
60 08-03-2020 09:59:17 10.2 C 32 %
61 08-03-2020 10:09:17 9.9 C 33 %
62 08-03-2020 10:19:17 10.1 C 32 %
63 08-03-2020 10:29:17 10.1 C 32 %
64 08-03-2020 10:39:17 11.4 C 30 %
65 08-03-2020 10:49:17 11.2 C 30 %
66 08-03-2020 10:59:18 11.9 C 30 %
67 08-03-2020 11:09:17 11.9 C 28 %
68 08-03-2020 11:19:16 11.9 C 29 %
69 08-03-2020 11:29:16 12.1 C 27 %
70 08-03-2020 11:39:17 12.5 C 26 %
71 08-03-2020 11:49:16 12.5 C 26 %
72 08-03-2020 11:59:16 13.4 C 25 %
73 08-03-2020 12:09:17 12.8 C 25 %
74 08-03-2020 12:19:17 13.1 C 25 %
75 08-03-2020 12:29:17 13.5 C 23 %
Sensor: Nr:Datum:Temp:Feuchte:
Aussen-T/F 76 08-03-2020 12:39:17 13.2 C 24 %
77 08-03-2020 12:49:17 14.1 C 22 %
78 08-03-2020 12:59:18 13.2 C 22 %
79 08-03-2020 13:09:17 12.2 C 25 %
80 08-03-2020 13:19:16 12.3 C 25 %
81 08-03-2020 13:29:16 12.3 C 25 %
82 08-03-2020 13:39:16 12.7 C 25 %
83 08-03-2020 13:49:17 12.7 C 25 %
84 08-03-2020 13:59:17 12.5 C 25 %
85 08-03-2020 14:09:17 13 C 23 %
86 08-03-2020 14:19:16 12.8 C 25 %
87 08-03-2020 14:29:16 12.5 C 25 %
88 08-03-2020 14:39:16 12.8 C 25 %
89 08-03-2020 14:49:16 12.7 C 25 %
90 08-03-2020 14:59:16 12.3 C 25 %
91 08-03-2020 15:09:16 12.8 C 25 %
92 08-03-2020 15:19:17 12.5 C 25 %
93 08-03-2020 15:29:17 12.5 C 25 %
94 08-03-2020 15:39:17 12.1 C 25 %
95 08-03-2020 15:49:17 12 C 25 %
96 08-03-2020 15:59:17 12.1 C 25 %
97 08-03-2020 16:09:17 12.5 C 25 %
98 08-03-2020 16:19:17 12.4 C 25 %
99 08-03-2020 16:29:17 12.1 C 25 %
100 08-03-2020 16:39:17 12.2 C 26 %
Sensor: Nr:Datum:Temp:Feuchte:
Aussen-T/F 101 08-03-2020 16:49:17 12.2 C 26 %
102 08-03-2020 16:59:17 12 C 26 %
103 08-03-2020 17:09:17 12.6 C 25 %
104 08-03-2020 17:19:17 12.4 C 26 %
105 08-03-2020 17:29:17 12.3 C 26 %
106 08-03-2020 17:39:17 12 C 26 %
107 08-03-2020 17:49:16 11.5 C 28 %
108 08-03-2020 17:59:16 11.4 C 29 %
109 08-03-2020 18:09:17 11.1 C 30 %
110 08-03-2020 18:19:17 10.9 C 31 %
111 08-03-2020 18:29:18 10.7 C 31 %
112 08-03-2020 18:39:17 10.4 C 32 %
113 08-03-2020 18:49:16 10.2 C 32 %
114 08-03-2020 18:59:16 9.6 C 35 %
115 08-03-2020 19:09:17 9.9 C 35 %
116 08-03-2020 19:19:16 9.8 C 35 %
117 08-03-2020 19:29:16 9.6 C 36 %
118 08-03-2020 19:39:17 9.4 C 36 %
119 08-03-2020 19:49:16 9.5 C 36 %
120 08-03-2020 19:59:16 9.5 C 36 %
121 08-03-2020 20:09:16 9.4 C 36 %
122 08-03-2020 20:19:16 9.3 C 36 %
123 08-03-2020 20:29:16 9.3 C 37 %
124 08-03-2020 20:39:17 9.2 C 37 %
125 08-03-2020 20:49:16 9.2 C 37 %
Sensor: Nr:Datum:Temp:Feuchte:
Aussen-T/F 126 08-03-2020 20:59:16 9 C 37 %
127 08-03-2020 21:09:17 9 C 37 %
128 08-03-2020 21:19:17 9.1 C 37 %
129 08-03-2020 21:29:17 9.1 C 37 %
130 08-03-2020 21:39:17 9.3 C 37 %
131 08-03-2020 21:49:17 9.3 C 37 %
132 08-03-2020 21:59:17 9.3 C 37 %
133 08-03-2020 22:09:17 9.3 C 37 %
134 08-03-2020 22:19:16 9.3 C 37 %
135 08-03-2020 22:29:16 8.9 C 37 %
136 08-03-2020 22:39:17 9.2 C 37 %
137 08-03-2020 22:49:16 8.7 C 37 %
138 08-03-2020 22:59:16 9 C 37 %
139 08-03-2020 23:09:16 9.3 C 37 %
140 08-03-2020 23:19:16 7.9 C 39 %
141 08-03-2020 23:29:16 7.8 C 40 %
142 08-03-2020 23:39:16 7.9 C 40 %
143 08-03-2020 23:49:16 7.9 C 39 %
144 08-03-2020 23:59:16 7.6 C 40 %
145 09-03-2020 00:09:17 7.3 C 41 %
146 09-03-2020 00:19:16 7 C 41 %
147 09-03-2020 00:29:16 6.8 C 43 %
148 09-03-2020 00:39:16 6.8 C 44 %
149 09-03-2020 00:49:16 6.6 C 45 %
150 09-03-2020 00:59:16 6.8 C 43 %
Sensor: Nr:Datum:Temp:Feuchte:
Aussen-T/F 151 09-03-2020 01:09:16 6.9 C 42 %
152 09-03-2020 01:19:16 6.9 C 43 %
153 09-03-2020 01:29:16 6.7 C 45 %
154 09-03-2020 01:39:16 6.8 C 43 %
155 09-03-2020 01:49:16 6.9 C 42 %
156 09-03-2020 01:59:16 6.7 C 43 %
157 09-03-2020 02:09:16 6.6 C 43 %
158 09-03-2020 02:19:16 6.4 C 44 %
159 09-03-2020 02:29:16 6.3 C 45 %
160 09-03-2020 02:39:16 6.2 C 45 %
161 09-03-2020 02:49:17 6.4 C 45 %
162 09-03-2020 02:59:17 6.4 C 44 %
163 09-03-2020 03:09:17 6.1 C 44 %
164 09-03-2020 03:19:17 6.5 C 43 %
165 09-03-2020 03:29:17 6.7 C 42 %
166 09-03-2020 03:39:17 6.4 C 42 %
167 09-03-2020 03:49:17 6.2 C 43 %
168 09-03-2020 03:59:17 6 C 44 %
169 09-03-2020 04:09:17 5.7 C 45 %
170 09-03-2020 04:19:17 5.5 C 45 %
171 09-03-2020 04:29:17 6.1 C 44 %
172 09-03-2020 04:39:18 6.3 C 43 %
173 09-03-2020 04:49:17 6.2 C 43 %
174 09-03-2020 04:59:17 6.2 C 43 %
175 09-03-2020 05:09:18 6.2 C 43 %
Sensor: Nr:Datum:Temp:Feuchte:
Aussen-T/F 176 09-03-2020 05:19:17 6 C 43 %
177 09-03-2020 05:29:17 5.8 C 44 %
178 09-03-2020 05:39:17 5.6 C 44 %
179 09-03-2020 05:49:17 5.2 C 44 %
180 09-03-2020 05:59:17 5.3 C 43 %
181 09-03-2020 06:09:17 5 C 43 %
182 09-03-2020 06:19:17 5.2 C 43 %
183 09-03-2020 06:29:17 5.1 C 43 %
184 09-03-2020 06:39:18 5.4 C 42 %
185 09-03-2020 06:49:17 5.7 C 41 %
186 09-03-2020 06:59:18 5.7 C 41 %
187 09-03-2020 07:09:18 5 C 42 %
188 09-03-2020 07:19:18 4.7 C 44 %
189 09-03-2020 07:29:18 5.7 C 42 %
190 09-03-2020 07:39:17 5.8 C 41 %
191 09-03-2020 07:49:17 5.4 C 41 %
192 09-03-2020 07:59:17 5.4 C 42 %
193 09-03-2020 08:09:17 5.4 C 42 %
194 09-03-2020 08:19:17 5 C 43 %
195 09-03-2020 08:29:17 5.3 C 43 %
196 09-03-2020 08:39:18 6.1 C 41 %
197 09-03-2020 08:49:17 6.8 C 40 %
198 09-03-2020 08:59:17 7.3 C 38 %
199 09-03-2020 09:09:17 7.4 C 38 %
200 09-03-2020 09:19:17 7.7 C 37 %
Sensor: Nr:Datum:Temp:Feuchte:
Aussen-T/F 201 09-03-2020 09:29:17 8 C 37 %
202 09-03-2020 09:39:17 8.1 C 37 %
203 09-03-2020 09:49:17 8 C 37 %
204 09-03-2020 09:59:17 7.8 C 37 %
205 09-03-2020 10:09:17 8.3 C 36 %
206 09-03-2020 10:19:17 8.2 C 36 %
207 09-03-2020 10:29:17 8.5 C 36 %
208 09-03-2020 10:39:17 8.6 C 36 %
209 09-03-2020 10:49:17 8.5 C 36 %
210 09-03-2020 10:59:17 8.1 C 36 %
211 09-03-2020 11:09:17 8.1 C 36 %
212 09-03-2020 11:19:17 8.5 C 36 %
213 09-03-2020 11:29:17 9.7 C 34 %
214 09-03-2020 11:39:17 9.1 C 34 %
215 09-03-2020 11:49:17 10.1 C 33 %
216 09-03-2020 11:59:17 10.6 C 29 %
217 09-03-2020 12:09:18 10.9 C 27 %
218 09-03-2020 12:19:18 11.2 C 25 %
219 09-03-2020 12:29:18 10.1 C 26 %
220 09-03-2020 12:39:18 10.3 C 26 %
221 09-03-2020 12:49:17 11 C 25 %
222 09-03-2020 12:59:17 10.1 C 26 %
223 09-03-2020 13:09:17 11.6 C 26 %
224 09-03-2020 13:19:17 9.8 C 29 %
225 09-03-2020 13:29:17 9.5 C 31 %
Sensor: Nr:Datum:Temp:Feuchte:
Aussen-T/F 226 09-03-2020 13:39:17 10.5 C 30 %
227 09-03-2020 13:49:17 10.4 C 29 %
228 09-03-2020 13:59:17 10.5 C 29 %
229 09-03-2020 14:09:17 11.6 C 27 %
230 09-03-2020 14:19:17 11.5 C 26 %
231 09-03-2020 14:29:17 10.4 C 27 %
232 09-03-2020 14:39:17 11.6 C 26 %
233 09-03-2020 14:49:17 12.8 C 20 %
234 09-03-2020 14:59:17 13.6 C 20 %
235 09-03-2020 15:09:18 12.6 C 20 %
236 09-03-2020 15:19:18 13 C 20 %
237 09-03-2020 15:29:18 12.9 C 20 %
238 09-03-2020 15:39:18 14.4 C 20 %
239 09-03-2020 15:49:17 14 C 20 %
240 09-03-2020 15:59:17 12.5 C 20 %
241 09-03-2020 16:09:18 11.2 C 20 %
242 09-03-2020 16:19:17 10.5 C 22 %
243 09-03-2020 16:29:17 10.7 C 23 %
244 09-03-2020 16:39:17 13.3 C 20 %
245 09-03-2020 16:49:17 14.2 C 20 %
246 09-03-2020 16:59:18 14.1 C 20 %
247 09-03-2020 17:09:18 12.2 C 20 %
248 09-03-2020 17:19:17 10.1 C 20 %
249 09-03-2020 17:29:17 9.9 C 25 %
250 09-03-2020 17:39:18 9.8 C 25 %
Sensor: Nr:Datum:Temp:Feuchte:
Aussen-T/F 251 09-03-2020 17:49:17 9.7 C 27 %
252 09-03-2020 17:59:18 9.7 C 26 %
253 09-03-2020 18:09:18 9.5 C 27 %
254 09-03-2020 18:19:17 9.2 C 28 %
255 09-03-2020 18:29:17 8.9 C 30 %
256 09-03-2020 18:39:17 8.7 C 30 %
257 09-03-2020 18:49:17 8.1 C 30 %
258 09-03-2020 18:59:17 7.7 C 32 %
259 09-03-2020 19:09:18 7.5 C 33 %
260 09-03-2020 19:19:17 7.4 C 33 %
261 09-03-2020 19:29:17 7.6 C 33 %
262 09-03-2020 19:39:17 7.4 C 34 %
263 09-03-2020 19:49:18 7.3 C 33 %
264 09-03-2020 19:59:18 7.2 C 34 %
265 09-03-2020 20:09:17 6.5 C 36 %
266 09-03-2020 20:19:17 6.9 C 35 %
267 09-03-2020 20:29:17 6.5 C 36 %
268 09-03-2020 20:39:18 6.5 C 36 %
269 09-03-2020 20:49:18 6.7 C 36 %
270 09-03-2020 20:59:18 6.8 C 35 %
271 09-03-2020 21:09:17 5.9 C 37 %
272 09-03-2020 21:19:17 5.6 C 38 %
273 09-03-2020 21:29:17 5.5 C 38 %
274 09-03-2020 21:39:17 5.4 C 38 %
275 09-03-2020 21:49:18 5.4 C 38 %
Sensor: Nr:Datum:Temp:Feuchte:
Aussen-T/F 276 09-03-2020 21:59:18 5.6 C 38 %
277 09-03-2020 22:09:18 5.4 C 38 %
278 09-03-2020 22:19:17 5.6 C 38 %
279 09-03-2020 22:29:17 5.8 C 38 %
280 09-03-2020 22:39:17 5.8 C 38 %
281 09-03-2020 22:49:17 5.4 C 38 %
282 09-03-2020 22:59:17 5.1 C 39 %
283 09-03-2020 23:09:18 5.1 C 39 %
284 09-03-2020 23:19:17 5.2 C 39 %
285 09-03-2020 23:29:17 5 C 39 %
286 09-03-2020 23:39:17 4.6 C 40 %
287 09-03-2020 23:49:17 4.6 C 41 %
288 09-03-2020 23:59:17 4.5 C 41 %
289 10-03-2020 00:09:17 4.6 C 41 %
290 10-03-2020 00:19:18 4.7 C 41 %
291 10-03-2020 00:29:18 5.1 C 40 %
292 10-03-2020 00:39:18 5.5 C 40 %
293 10-03-2020 00:49:18 5.5 C 40 %
294 10-03-2020 00:59:18 5.8 C 39 %
295 10-03-2020 01:09:18 5.8 C 39 %
296 10-03-2020 01:19:17 5.9 C 39 %
297 10-03-2020 01:29:18 6 C 38 %
298 10-03-2020 01:39:18 6.3 C 38 %
299 10-03-2020 01:49:17 6.7 C 37 %
300 10-03-2020 01:59:17 6.6 C 37 %
Sensor: Nr:Datum:Temp:Feuchte:
Aussen-T/F 301 10-03-2020 02:09:18 6.7 C 37 %
302 10-03-2020 02:19:17 6.6 C 37 %
303 10-03-2020 02:29:18 6.7 C 37 %
304 10-03-2020 02:39:18 6.8 C 37 %
305 10-03-2020 02:49:17 6.9 C 37 %
306 10-03-2020 02:59:17 7.1 C 37 %
307 10-03-2020 03:09:18 6.6 C 38 %
308 10-03-2020 03:19:18 6.5 C 38 %
309 10-03-2020 03:29:18 6.3 C 39 %
310 10-03-2020 03:39:18 6.2 C 39 %
311 10-03-2020 03:49:17 6 C 40 %
312 10-03-2020 03:59:17 6 C 40 %
313 10-03-2020 04:09:17 5.8 C 40 %
314 10-03-2020 04:19:17 5.8 C 40 %
315 10-03-2020 04:29:17 5.6 C 41 %
316 10-03-2020 04:39:17 5.9 C 40 %
317 10-03-2020 04:49:17 5.6 C 41 %
318 10-03-2020 04:59:17 5.5 C 41 %
319 10-03-2020 05:09:17 5.5 C 41 %
320 10-03-2020 05:19:17 5.2 C 41 %
321 10-03-2020 05:29:18 5.2 C 41 %
322 10-03-2020 05:39:18 5.1 C 42 %
323 10-03-2020 05:49:18 5.1 C 42 %
324 10-03-2020 05:59:18 5 C 42 %
325 10-03-2020 06:09:17 4.9 C 43 %
Sensor: Nr:Datum:Temp:Feuchte:
Aussen-T/F 326 10-03-2020 06:19:17 5 C 42 %
327 10-03-2020 06:29:17 4.9 C 43 %
328 10-03-2020 06:39:18 5 C 44 %
329 10-03-2020 06:49:17 5.1 C 43 %
330 10-03-2020 06:59:17 5 C 43 %
331 10-03-2020 07:09:18 5.1 C 42 %
332 10-03-2020 07:19:18 5.3 C 42 %
333 10-03-2020 07:29:18 5.8 C 41 %
334 10-03-2020 07:39:18 5.8 C 42 %
335 10-03-2020 07:49:18 5.7 C 41 %
336 10-03-2020 07:59:18 5.9 C 41 %
337 10-03-2020 08:09:18 6 C 41 %
338 10-03-2020 08:19:18 6 C 41 %
339 10-03-2020 08:29:18 6.3 C 41 %
340 10-03-2020 08:39:18 6.5 C 40 %
341 10-03-2020 08:49:18 6.3 C 41 %
342 10-03-2020 08:59:18 6.5 C 41 %
343 10-03-2020 09:09:17 6.6 C 41 %
344 10-03-2020 09:19:17 6.6 C 41 %
345 10-03-2020 09:29:17 6.7 C 42 %
346 10-03-2020 09:39:17 6.8 C 42 %
347 10-03-2020 09:49:17 6.9 C 42 %
348 10-03-2020 09:59:17 7.1 C 41 %
349 10-03-2020 10:09:18 7.2 C 41 %
350 10-03-2020 10:19:18 7.3 C 41 %
Sensor: Nr:Datum:Temp:Feuchte:
Aussen-T/F 351 10-03-2020 10:29:18 7.4 C 41 %
352 10-03-2020 10:39:18 7.5 C 41 %
353 10-03-2020 10:49:18 7.8 C 41 %
354 10-03-2020 10:59:18 7.9 C 41 %
355 10-03-2020 11:09:18 8.1 C 41 %
356 10-03-2020 11:19:18 8.2 C 40 %
357 10-03-2020 11:29:18 8.4 C 40 %
358 10-03-2020 11:39:18 8.5 C 41 %
359 10-03-2020 11:49:17 8.7 C 41 %
360 10-03-2020 11:59:17 8.9 C 41 %
361 10-03-2020 12:09:17 8.9 C 40 %
362 10-03-2020 12:19:17 8.9 C 41 %
363 10-03-2020 12:29:18 9 C 41 %
364 10-03-2020 12:39:18 9.1 C 41 %
365 10-03-2020 12:49:17 9.1 C 41 %
366 10-03-2020 12:59:17 9.3 C 41 %
367 10-03-2020 13:09:18 9.4 C 40 %
368 10-03-2020 13:19:17 9.5 C 41 %
369 10-03-2020 13:29:18 9.5 C 41 %
370 10-03-2020 13:39:18 9.5 C 41 %
371 10-03-2020 13:49:17 9.7 C 41 %
372 10-03-2020 13:59:18 9.8 C 41 %
373 10-03-2020 14:09:18 9.9 C 41 %
374 10-03-2020 14:19:18 10.2 C 40 %
375 10-03-2020 14:29:18 10.5 C 40 %
Sensor: Nr:Datum:Temp:Feuchte:
Aussen-T/F 376 10-03-2020 14:39:18 10.8 C 40 %
377 10-03-2020 14:49:17 10.9 C 40 %
378 10-03-2020 14:59:17 11.3 C 38 %
379 10-03-2020 15:09:18 11.3 C 38 %
380 10-03-2020 15:19:18 11.4 C 38 %
381 10-03-2020 15:29:18 11.8 C 38 %
382 10-03-2020 15:39:18 12.3 C 37 %
383 10-03-2020 15:49:17 12.3 C 36 %
384 10-03-2020 15:59:18 12.5 C 37 %
385 10-03-2020 16:09:18 13 C 35 %
386 10-03-2020 16:19:18 12.6 C 36 %
387 10-03-2020 16:29:18 12.5 C 37 %
388 10-03-2020 16:39:18 12.4 C 37 %
389 10-03-2020 16:49:17 12.5 C 37 %
390 10-03-2020 16:59:18 12.5 C 37 %
391 10-03-2020 17:09:18 12.7 C 37 %
392 10-03-2020 17:19:17 12.6 C 37 %
393 10-03-2020 17:29:18 12.7 C 37 %
394 10-03-2020 17:39:18 12.6 C 37 %
395 10-03-2020 17:49:17 12.5 C 37 %
396 10-03-2020 17:59:18 12.5 C 38 %
397 10-03-2020 18:09:18 12.3 C 38 %
398 10-03-2020 18:19:17 12.3 C 38 %
399 10-03-2020 18:29:18 12.3 C 38 %
400 10-03-2020 18:39:18 12.5 C 38 %
Sensor: Nr:Datum:Temp:Feuchte:
Aussen-T/F 401 10-03-2020 18:49:17 12.4 C 38 %
402 10-03-2020 18:59:17 12.3 C 38 %
403 10-03-2020 19:09:18 12.5 C 38 %
404 10-03-2020 19:19:17 12.3 C 38 %
405 10-03-2020 19:29:17 12.4 C 38 %
406 10-03-2020 19:39:17 12.5 C 38 %
407 10-03-2020 19:49:17 12.5 C 38 %
408 10-03-2020 19:59:17 12.5 C 38 %
409 10-03-2020 20:09:17 12.5 C 38 %
410 10-03-2020 20:19:17 12.7 C 38 %
411 10-03-2020 20:29:18 12.8 C 38 %
412 10-03-2020 20:39:18 12.8 C 38 %
413 10-03-2020 20:49:17 12.9 C 38 %
414 10-03-2020 20:59:17 13.1 C 37 %
415 10-03-2020 21:09:18 12.8 C 38 %
416 10-03-2020 21:19:17 13.2 C 37 %
417 10-03-2020 21:29:18 13.2 C 37 %
418 10-03-2020 21:39:18 13.2 C 37 %
419 10-03-2020 21:49:17 13.2 C 37 %
420 10-03-2020 21:59:18 13.1 C 37 %
421 10-03-2020 22:09:18 12.8 C 39 %
422 10-03-2020 22:19:18 12.5 C 40 %
423 10-03-2020 22:29:18 12.5 C 40 %
424 10-03-2020 22:39:18 12.7 C 40 %
425 10-03-2020 22:49:17 12.5 C 40 %
Sensor: Nr:Datum:Temp:Feuchte:
Aussen-T/F 426 10-03-2020 22:59:17 12.5 C 40 %
427 10-03-2020 23:09:18 12.8 C 40 %
428 10-03-2020 23:19:18 12.8 C 39 %
429 10-03-2020 23:29:18 12.8 C 39 %
430 10-03-2020 23:39:18 12.8 C 39 %
431 10-03-2020 23:49:17 12.9 C 39 %
432 10-03-2020 23:59:17 13.1 C 37 %
433 11-03-2020 00:09:17 13.5 C 36 %
434 11-03-2020 00:19:17 13.5 C 36 %
435 11-03-2020 00:29:17 13.6 C 36 %
436 11-03-2020 00:39:18 13.7 C 36 %
437 11-03-2020 00:49:17 13.7 C 36 %
438 11-03-2020 00:59:17 13.7 C 36 %
439 11-03-2020 01:09:17 13.5 C 36 %
440 11-03-2020 01:19:17 13.4 C 37 %
441 11-03-2020 01:29:17 13.4 C 37 %
442 11-03-2020 01:39:17 13.3 C 37 %
443 11-03-2020 01:49:17 13 C 38 %
444 11-03-2020 01:59:17 12.9 C 39 %
445 11-03-2020 02:09:17 13.2 C 38 %
446 11-03-2020 02:19:17 13.1 C 38 %
447 11-03-2020 02:29:17 13.1 C 38 %
448 11-03-2020 02:39:17 13.2 C 37 %
449 11-03-2020 02:49:17 13.4 C 37 %
450 11-03-2020 02:59:17 13.5 C 37 %
Sensor: Nr:Datum:Temp:Feuchte:
Aussen-T/F 451 11-03-2020 03:09:17 13.1 C 37 %
452 11-03-2020 03:19:18 13 C 38 %
453 11-03-2020 03:29:18 13.2 C 37 %
454 11-03-2020 03:39:18 13.4 C 37 %
455 11-03-2020 03:49:17 13.5 C 37 %
456 11-03-2020 03:59:18 13.4 C 37 %
457 11-03-2020 04:09:18 13.4 C 37 %
458 11-03-2020 04:19:18 13.4 C 37 %
459 11-03-2020 04:29:18 13.4 C 37 %
460 11-03-2020 04:39:17 13.4 C 37 %
461 11-03-2020 04:49:17 13.5 C 36 %
462 11-03-2020 04:59:17 13.4 C 37 %
463 11-03-2020 05:09:17 13.1 C 37 %
464 11-03-2020 05:19:17 13.1 C 37 %
465 11-03-2020 05:29:17 13.1 C 37 %
466 11-03-2020 05:39:17 13.1 C 37 %
467 11-03-2020 05:49:18 13 C 37 %
468 11-03-2020 05:59:18 12.9 C 38 %
469 11-03-2020 06:09:18 13.1 C 37 %
470 11-03-2020 06:19:17 13.2 C 37 %
471 11-03-2020 06:29:17 13.2 C 36 %
472 11-03-2020 06:39:18 13.2 C 36 %
473 11-03-2020 06:49:17 13.6 C 36 %
474 11-03-2020 06:59:17 13.4 C 36 %
475 11-03-2020 07:09:17 13.2 C 36 %
Sensor: Nr:Datum:Temp:Feuchte:
Aussen-T/F 476 11-03-2020 07:19:17 13.1 C 36 %
477 11-03-2020 07:29:17 13.1 C 36 %
478 11-03-2020 07:39:17 13.1 C 36 %
479 11-03-2020 07:49:17 13.1 C 36 %
480 11-03-2020 07:59:18 12.9 C 37 %
481 11-03-2020 08:09:18 12.8 C 37 %
482 11-03-2020 08:19:18 12.6 C 37 %
483 11-03-2020 08:29:18 12.6 C 37 %
484 11-03-2020 08:39:18 12.7 C 37 %
485 11-03-2020 08:49:18 12.8 C 37 %
486 11-03-2020 08:59:18 12.7 C 37 %
487 11-03-2020 09:09:18 13 C 36 %
488 11-03-2020 09:19:18 13.2 C 36 %
489 11-03-2020 09:29:18 13.6 C 36 %
490 11-03-2020 09:39:18 13.8 C 36 %
491 11-03-2020 09:49:18 14 C 35 %
492 11-03-2020 09:59:18 13.9 C 35 %
493 11-03-2020 10:09:18 13.7 C 36 %
494 11-03-2020 10:19:17 13.8 C 36 %
495 11-03-2020 10:29:17 14 C 35 %
496 11-03-2020 10:39:18 14.3 C 35 %
497 11-03-2020 10:49:18 14.4 C 35 %
498 11-03-2020 10:59:18 14.5 C 35 %
499 11-03-2020 11:09:17 14.9 C 35 %
500 11-03-2020 11:19:17 14.6 C 35 %
Sensor: Nr:Datum:Temp:Feuchte:
Aussen-T/F 501 11-03-2020 11:29:17 15.8 C 33 %
502 11-03-2020 11:39:17 15.8 C 33 %
503 11-03-2020 11:49:17 15.6 C 33 %
504 11-03-2020 11:59:17 15.9 C 33 %
505 11-03-2020 12:09:18 15.9 C 33 %
506 11-03-2020 12:19:18 16.4 C 32 %
507 11-03-2020 12:29:18 16.5 C 32 %
508 11-03-2020 12:39:18 16.3 C 32 %
509 11-03-2020 12:49:18 16.5 C 32 %
510 11-03-2020 12:59:18 16.3 C 32 %
511 11-03-2020 13:09:17 16 C 32 %
512 11-03-2020 13:19:17 17 C 31 %
513 11-03-2020 13:29:17 16.8 C 31 %
514 11-03-2020 13:39:17 17.7 C 31 %
515 11-03-2020 13:49:17 15.8 C 32 %
516 11-03-2020 13:59:17 16.1 C 31 %
517 11-03-2020 14:09:17 16.3 C 31 %
518 11-03-2020 14:19:17 16.1 C 31 %
519 11-03-2020 14:29:17 16.6 C 31 %
520 11-03-2020 14:39:17 15.7 C 31 %
521 11-03-2020 14:49:17 16.2 C 31 %
522 11-03-2020 14:59:17 15.8 C 31 %
523 11-03-2020 15:09:17 16.5 C 31 %
524 11-03-2020 15:19:17 15.6 C 32 %
525 11-03-2020 15:29:18 16.4 C 31 %
Sensor: Nr:Datum:Temp:Feuchte:
Aussen-T/F 526 11-03-2020 15:39:18 17.5 C 30 %
527 11-03-2020 15:49:17 15.1 C 32 %
528 11-03-2020 15:59:17 15.6 C 33 %
529 11-03-2020 16:09:18 15 C 33 %
530 11-03-2020 16:19:18 14.7 C 35 %
531 11-03-2020 16:29:18 15.1 C 34 %
532 11-03-2020 16:39:17 14.5 C 35 %
533 11-03-2020 16:49:18 14.5 C 35 %
534 11-03-2020 16:59:18 14.5 C 34 %
535 11-03-2020 17:09:18 14.1 C 35 %
536 11-03-2020 17:19:18 14 C 35 %
537 11-03-2020 17:29:18 13.2 C 38 %
538 11-03-2020 17:39:17 13.2 C 38 %
539 11-03-2020 17:49:18 13.2 C 38 %
540 11-03-2020 17:59:18 13.4 C 37 %
541 11-03-2020 18:09:18 13.5 C 37 %
542 11-03-2020 18:19:17 13.5 C 36 %
543 11-03-2020 18:29:17 13.3 C 36 %
544 11-03-2020 18:39:17 13.4 C 36 %
545 11-03-2020 18:49:17 13.5 C 36 %
546 11-03-2020 18:59:17 13.4 C 36 %
547 11-03-2020 19:09:17 13.2 C 37 %
548 11-03-2020 19:19:17 13.1 C 37 %
549 11-03-2020 19:29:17 13.1 C 37 %
550 11-03-2020 19:39:18 13.4 C 36 %
Sensor: Nr:Datum:Temp:Feuchte:
Aussen-T/F 551 11-03-2020 19:49:17 13.3 C 36 %
552 11-03-2020 19:59:17 13.2 C 36 %
553 11-03-2020 20:09:17 13.4 C 36 %
554 11-03-2020 20:19:17 13.6 C 36 %
555 11-03-2020 20:29:18 13.6 C 36 %
556 11-03-2020 20:39:18 13.6 C 36 %
557 11-03-2020 20:49:17 13.5 C 36 %
558 11-03-2020 20:59:17 13.3 C 36 %
559 11-03-2020 21:09:18 13.2 C 36 %
560 11-03-2020 21:19:17 13.4 C 36 %
561 11-03-2020 21:29:17 13.5 C 36 %
562 11-03-2020 21:39:18 13.7 C 36 %
563 11-03-2020 21:49:17 14 C 35 %
564 11-03-2020 21:59:17 14 C 35 %
565 11-03-2020 22:09:18 14.1 C 34 %
566 11-03-2020 22:19:18 14 C 34 %
567 11-03-2020 22:29:18 13.9 C 35 %
568 11-03-2020 22:39:17 13.9 C 35 %
569 11-03-2020 22:49:18 13.8 C 35 %
570 11-03-2020 22:59:18 13.8 C 35 %
571 11-03-2020 23:09:18 13.8 C 34 %
572 11-03-2020 23:19:18 13.9 C 34 %
573 11-03-2020 23:29:18 13.8 C 34 %
574 11-03-2020 23:39:17 13.8 C 34 %
575 11-03-2020 23:49:17 13.8 C 34 %
Sensor: Nr:Datum:Temp:Feuchte:
Aussen-T/F 576 11-03-2020 23:59:17 13.7 C 34 %
577 12-03-2020 00:09:17 13.6 C 34 %
578 12-03-2020 00:19:17 13.6 C 34 %
579 12-03-2020 00:29:17 13.6 C 34 %
580 12-03-2020 00:39:18 13.7 C 34 %
581 12-03-2020 00:49:17 13.8 C 34 %
582 12-03-2020 00:59:17 13.9 C 34 %
583 12-03-2020 01:09:18 13.9 C 34 %
584 12-03-2020 01:19:17 13.8 C 34 %
585 12-03-2020 01:29:17 13.9 C 34 %
586 12-03-2020 01:39:18 13.8 C 34 %
587 12-03-2020 01:49:17 13.7 C 34 %
588 12-03-2020 01:59:17 13.8 C 34 %
589 12-03-2020 02:09:18 13.7 C 34 %
590 12-03-2020 02:19:17 13.7 C 34 %
591 12-03-2020 02:29:18 13.6 C 34 %
592 12-03-2020 02:39:18 13.6 C 33 %
593 12-03-2020 02:49:18 13.6 C 33 %
594 12-03-2020 02:59:18 13.5 C 33 %
595 12-03-2020 03:09:18 13.5 C 33 %
596 12-03-2020 03:19:18 13.5 C 32 %
597 12-03-2020 03:29:18 13.5 C 32 %
598 12-03-2020 03:39:17 13.4 C 32 %
599 12-03-2020 03:49:17 13.2 C 32 %
600 12-03-2020 03:59:17 13.1 C 32 %
Sensor: Nr:Datum:Temp:Feuchte:
Aussen-T/F 601 12-03-2020 04:09:17 13.1 C 32 %
602 12-03-2020 04:19:17 13.1 C 32 %
603 12-03-2020 04:29:17 13 C 32 %
604 12-03-2020 04:39:17 13 C 32 %
605 12-03-2020 04:49:17 13 C 32 %
606 12-03-2020 04:59:17 13 C 32 %
607 12-03-2020 05:09:17 12.7 C 33 %
608 12-03-2020 05:19:17 12.7 C 33 %
609 12-03-2020 05:29:17 12.6 C 34 %
610 12-03-2020 05:39:18 12.5 C 34 %
611 12-03-2020 05:49:17 12.5 C 34 %
612 12-03-2020 05:59:17 12.3 C 34 %
613 12-03-2020 06:09:18 12.2 C 34 %
614 12-03-2020 06:19:18 12.1 C 34 %
615 12-03-2020 06:29:18 12 C 34 %
616 12-03-2020 06:39:18 12 C 35 %
617 12-03-2020 06:49:17 12 C 35 %
618 12-03-2020 06:59:17 11.9 C 35 %
619 12-03-2020 07:09:18 11.9 C 35 %
620 12-03-2020 07:19:18 12 C 35 %
621 12-03-2020 07:29:18 12 C 35 %
622 12-03-2020 07:39:18 12 C 35 %
623 12-03-2020 07:49:17 11.2 C 38 %
624 12-03-2020 07:59:17 11 C 39 %
625 12-03-2020 08:09:18 10.8 C 41 %
Sensor: Nr:Datum:Temp:Feuchte:
Aussen-T/F 626 12-03-2020 08:19:18 10.7 C 42 %
627 12-03-2020 08:29:18 10.4 C 40 %
628 12-03-2020 08:39:18 10.1 C 39 %
629 12-03-2020 08:49:17 10.4 C 38 %
630 12-03-2020 08:59:17 10.2 C 38 %
631 12-03-2020 09:09:18 10.4 C 38 %
632 12-03-2020 09:19:17 10.5 C 37 %
633 12-03-2020 09:29:17 10.9 C 36 %
634 12-03-2020 09:39:17 10.8 C 36 %
635 12-03-2020 09:49:18 11 C 36 %
636 12-03-2020 09:59:18 11.5 C 35 %
637 12-03-2020 10:09:18 11.7 C 34 %
638 12-03-2020 10:19:17 11.5 C 34 %
639 12-03-2020 10:29:17 11.5 C 34 %
640 12-03-2020 10:39:17 11.8 C 33 %
641 12-03-2020 10:49:17 11.3 C 33 %
642 12-03-2020 10:59:17 11.3 C 32 %
643 12-03-2020 11:09:18 11.6 C 28 %
644 12-03-2020 11:19:17 11.5 C 27 %
645 12-03-2020 11:29:17 11.7 C 26 %
646 12-03-2020 11:39:17 11.9 C 23 %
647 12-03-2020 11:49:18 11.9 C 20 %
648 12-03-2020 11:59:18 12.3 C 20 %
649 12-03-2020 12:09:18 12.2 C 20 %
650 12-03-2020 12:19:18 12.4 C 20 %
Sensor: Nr:Datum:Temp:Feuchte:
Aussen-T/F 651 12-03-2020 12:29:18 12.8 C 20 %
652 12-03-2020 12:39:17 12.4 C 20 %
653 12-03-2020 12:49:17 12.1 C 20 %
654 12-03-2020 12:59:18 12 C 20 %
655 12-03-2020 13:09:18 12.2 C 20 %
656 12-03-2020 13:19:17 12.3 C 20 %
657 12-03-2020 13:29:17 12.3 C 20 %
658 12-03-2020 13:39:17 12.7 C 20 %
659 12-03-2020 13:49:17 12.5 C 20 %
660 12-03-2020 13:59:17 12.4 C 20 %
661 12-03-2020 14:09:17 12.2 C 20 %
662 12-03-2020 14:19:17 12.2 C 20 %
663 12-03-2020 14:29:18 12.2 C 20 %
664 12-03-2020 14:39:18 13.4 C 20 %
665 12-03-2020 14:49:17 13 C 20 %
666 12-03-2020 14:59:17 11.8 C 20 %
667 12-03-2020 15:09:17 11.9 C 20 %
668 12-03-2020 15:19:17 11.8 C 20 %
669 12-03-2020 15:29:18 11.9 C 20 %
670 12-03-2020 15:39:18 11.8 C 20 %
671 12-03-2020 15:49:17 11.7 C 20 %
672 12-03-2020 15:59:18 11.6 C 20 %
673 12-03-2020 16:09:18 11.5 C 20 %
674 12-03-2020 16:19:18 11.7 C 20 %
675 12-03-2020 16:29:18 11.7 C 20 %
Sensor: Nr:Datum:Temp:Feuchte:
Aussen-T/F 676 12-03-2020 16:39:18 12.4 C 20 %
677 12-03-2020 16:49:17 11.8 C 20 %
678 12-03-2020 16:59:17 11.5 C 20 %
679 12-03-2020 17:09:17 11.5 C 20 %
680 12-03-2020 17:19:17 11.5 C 20 %
681 12-03-2020 17:29:17 11.2 C 20 %
682 12-03-2020 17:39:18 10.9 C 20 %
683 12-03-2020 17:49:17 11 C 20 %
684 12-03-2020 17:59:18 10.8 C 22 %
685 12-03-2020 18:09:18 10.3 C 25 %
686 12-03-2020 18:19:18 9.8 C 27 %
687 12-03-2020 18:29:18 9.3 C 30 %
688 12-03-2020 18:39:17 8.7 C 31 %
689 12-03-2020 18:49:17 7.9 C 33 %
690 12-03-2020 18:59:17 7.6 C 35 %
691 12-03-2020 19:09:17 7.5 C 34 %
692 12-03-2020 19:19:17 7 C 35 %
693 12-03-2020 19:29:17 6.6 C 36 %
694 12-03-2020 19:39:17 6.5 C 36 %
695 12-03-2020 19:49:17 7.1 C 35 %
696 12-03-2020 19:59:17 6.8 C 35 %
697 12-03-2020 20:09:17 7.6 C 35 %
698 12-03-2020 20:19:17 7.3 C 35 %
699 12-03-2020 20:29:17 6.8 C 35 %
700 12-03-2020 20:39:17 6.8 C 36 %
Sensor: Nr:Datum:Temp:Feuchte:
Aussen-T/F 701 12-03-2020 20:49:17 6.4 C 36 %
702 12-03-2020 20:59:17 6.7 C 36 %
703 12-03-2020 21:09:17 6.3 C 36 %
704 12-03-2020 21:19:17 7.2 C 35 %
705 12-03-2020 21:29:17 7.6 C 35 %
706 12-03-2020 21:39:18 7.4 C 35 %
707 12-03-2020 21:49:17 7.4 C 35 %
708 12-03-2020 21:59:17 7.6 C 35 %
709 12-03-2020 22:09:18 7.6 C 35 %
710 12-03-2020 22:19:18 7.1 C 35 %
711 12-03-2020 22:29:18 7.2 C 35 %
712 12-03-2020 22:39:18 7.5 C 35 %
713 12-03-2020 22:49:17 7.6 C 35 %
714 12-03-2020 22:59:17 7.3 C 35 %
715 12-03-2020 23:09:17 7.2 C 35 %
716 12-03-2020 23:19:17 7 C 35 %
717 12-03-2020 23:29:18 6.2 C 35 %
718 12-03-2020 23:39:18 6.7 C 34 %
719 12-03-2020 23:49:17 6.5 C 34 %
720 12-03-2020 23:59:17 6.4 C 32 %
721 13-03-2020 00:09:17 6.5 C 32 %
722 13-03-2020 00:19:17 6.5 C 32 %
723 13-03-2020 00:29:17 6.1 C 32 %
724 13-03-2020 00:39:17 6.2 C 32 %
725 13-03-2020 00:49:17 6 C 32 %
Sensor: Nr:Datum:Temp:Feuchte:
Aussen-T/F 726 13-03-2020 00:59:17 5.9 C 33 %
727 13-03-2020 01:09:17 5.4 C 33 %
728 13-03-2020 01:19:17 5.4 C 33 %
729 13-03-2020 01:29:17 5.1 C 34 %
730 13-03-2020 01:39:17 5.2 C 34 %
731 13-03-2020 01:49:17 5.2 C 33 %
732 13-03-2020 01:59:17 5.2 C 33 %
733 13-03-2020 02:09:17 4.8 C 35 %
734 13-03-2020 02:19:17 5 C 34 %
735 13-03-2020 02:29:17 5.1 C 34 %
736 13-03-2020 02:39:18 5.1 C 34 %
737 13-03-2020 02:49:17 5.1 C 34 %
738 13-03-2020 02:59:17 5.1 C 34 %
739 13-03-2020 03:09:17 5 C 34 %
740 13-03-2020 03:19:17 5.2 C 34 %
741 13-03-2020 03:29:17 5.2 C 34 %
742 13-03-2020 03:39:18 5.1 C 34 %
743 13-03-2020 03:49:17 5.1 C 34 %
744 13-03-2020 03:59:17 5.2 C 34 %
745 13-03-2020 04:09:17 5 C 34 %
746 13-03-2020 04:19:17 4.9 C 35 %
747 13-03-2020 04:29:17 5.1 C 35 %
748 13-03-2020 04:39:17 5.1 C 35 %
749 13-03-2020 04:49:17 5 C 34 %
750 13-03-2020 04:59:17 5.2 C 34 %
Sensor: Nr:Datum:Temp:Feuchte:
Aussen-T/F 751 13-03-2020 05:09:17 5.2 C 34 %
752 13-03-2020 05:19:17 5.6 C 34 %
753 13-03-2020 05:29:17 5.4 C 34 %
754 13-03-2020 05:39:17 5.4 C 34 %
755 13-03-2020 05:49:18 5.4 C 34 %
756 13-03-2020 05:59:18 5.4 C 34 %
757 13-03-2020 06:09:18 5.6 C 34 %
758 13-03-2020 06:19:17 5.7 C 34 %
759 13-03-2020 06:29:17 5.4 C 34 %
760 13-03-2020 06:39:17 5.4 C 35 %
761 13-03-2020 06:49:17 5.3 C 34 %
762 13-03-2020 06:59:17 5.4 C 35 %
763 13-03-2020 07:09:17 5.3 C 35 %
764 13-03-2020 07:19:17 5.4 C 35 %
765 13-03-2020 07:29:17 5.6 C 35 %
766 13-03-2020 07:39:17 5.7 C 35 %
767 13-03-2020 07:49:18 5.7 C 35 %
768 13-03-2020 07:59:18 5.7 C 35 %
769 13-03-2020 08:09:17 5.8 C 35 %
770 13-03-2020 08:19:17 6 C 35 %
771 13-03-2020 08:29:17 5.9 C 35 %
772 13-03-2020 08:39:18 6 C 35 %
773 13-03-2020 08:49:17 6.2 C 35 %
774 13-03-2020 08:59:17 6.4 C 34 %
775 13-03-2020 09:09:17 6.5 C 35 %
Sensor: Nr:Datum:Temp:Feuchte:
Aussen-T/F 776 13-03-2020 09:19:17 6.9 C 34 %
777 13-03-2020 09:29:17 7.1 C 33 %
778 13-03-2020 09:39:18 7.1 C 33 %
779 13-03-2020 09:49:17 6.6 C 34 %
780 13-03-2020 09:59:17 7.1 C 33 %
781 13-03-2020 10:09:18 7.5 C 33 %
782 13-03-2020 10:19:17 8.5 C 32 %
783 13-03-2020 10:29:17 8.1 C 32 %
784 13-03-2020 10:39:18 8 C 32 %
785 13-03-2020 10:49:17 7.6 C 33 %
786 13-03-2020 10:59:17 7.4 C 35 %
787 13-03-2020 11:09:17 8.9 C 33 %
788 13-03-2020 11:19:17 9.1 C 31 %
789 13-03-2020 11:29:17 8 C 32 %
790 13-03-2020 11:39:17 7.3 C 35 %
791 13-03-2020 11:49:18 7.4 C 35 %
792 13-03-2020 11:59:18 8.2 C 33 %
793 13-03-2020 12:09:18 8.9 C 32 %
794 13-03-2020 12:19:18 9.7 C 29 %
795 13-03-2020 12:29:18 9 C 30 %
796 13-03-2020 12:39:18 9.6 C 30 %
797 13-03-2020 12:49:18 9 C 31 %
798 13-03-2020 12:59:18 8.8 C 31 %
799 13-03-2020 13:09:18 8.4 C 32 %
800 13-03-2020 13:19:18 8.6 C 33 %
Sensor: Nr:Datum:Temp:Feuchte:
Aussen-T/F 801 13-03-2020 13:29:18 9.5 C 31 %
802 13-03-2020 13:39:18 9.9 C 30 %
803 13-03-2020 13:49:17 9.7 C 30 %
804 13-03-2020 13:59:17 9.6 C 30 %
805 13-03-2020 14:09:18 9.3 C 30 %
806 13-03-2020 14:19:18 9.4 C 30 %
807 13-03-2020 14:29:18 8.9 C 32 %
808 13-03-2020 14:39:18 9.5 C 31 %
809 13-03-2020 14:49:18 10.3 C 28 %
810 13-03-2020 14:59:18 10.1 C 28 %
811 13-03-2020 15:09:18 9.5 C 29 %
812 13-03-2020 15:19:17 9.3 C 29 %
813 13-03-2020 15:29:17 10.1 C 27 %
814 13-03-2020 15:39:18 10.4 C 26 %
815 13-03-2020 15:49:18 10.4 C 26 %
816 13-03-2020 15:59:18 10.1 C 27 %
817 13-03-2020 16:09:18 10 C 27 %
818 13-03-2020 16:19:17 9.8 C 27 %
819 13-03-2020 16:29:17 9.1 C 29 %
820 13-03-2020 16:39:17 9 C 30 %
821 13-03-2020 16:49:17 10 C 27 %
822 13-03-2020 16:59:17 9.3 C 30 %
823 13-03-2020 17:09:17 9.1 C 30 %
824 13-03-2020 17:19:18 9.1 C 30 %
825 13-03-2020 17:29:18 9.3 C 30 %
Sensor: Nr:Datum:Temp:Feuchte:
Aussen-T/F 826 13-03-2020 17:39:17 9.4 C 29 %
827 13-03-2020 17:49:18 9.5 C 30 %
828 13-03-2020 17:59:18 9.1 C 31 %
829 13-03-2020 18:09:18 8.7 C 31 %
830 13-03-2020 18:19:17 8.6 C 31 %
831 13-03-2020 18:29:17 8.4 C 31 %
832 13-03-2020 18:39:17 8.2 C 31 %
833 13-03-2020 18:49:17 8.1 C 32 %
834 13-03-2020 18:59:17 8 C 32 %
835 13-03-2020 19:09:17 7.8 C 33 %
836 13-03-2020 19:19:17 7.3 C 35 %
837 13-03-2020 19:29:17 7.3 C 35 %
838 13-03-2020 19:39:18 7.3 C 35 %
839 13-03-2020 19:49:17 7.3 C 35 %
840 13-03-2020 19:59:18 7 C 35 %
841 13-03-2020 20:09:18 6.7 C 36 %
842 13-03-2020 20:19:17 6.7 C 36 %
843 13-03-2020 20:29:17 6.9 C 36 %
844 13-03-2020 20:39:17 6.4 C 36 %
845 13-03-2020 20:49:17 6.3 C 37 %
846 13-03-2020 20:59:17 6.2 C 37 %
847 13-03-2020 21:09:18 5.8 C 38 %
848 13-03-2020 21:19:18 5.8 C 38 %
849 13-03-2020 21:29:18 5.8 C 38 %
850 13-03-2020 21:39:18 6.2 C 37 %
Sensor: Nr:Datum:Temp:Feuchte:
Aussen-T/F 851 13-03-2020 21:49:17 5.7 C 38 %
852 13-03-2020 21:59:17 5.8 C 38 %
853 13-03-2020 22:09:18 5.4 C 39 %
854 13-03-2020 22:19:17 5.6 C 39 %
855 13-03-2020 22:29:18 5.4 C 39 %
856 13-03-2020 22:39:18 5.5 C 40 %
857 13-03-2020 22:49:17 5.7 C 39 %
858 13-03-2020 22:59:17 5.8 C 39 %
859 13-03-2020 23:09:18 5.6 C 39 %
860 13-03-2020 23:19:17 5.6 C 39 %
861 13-03-2020 23:29:17 5.5 C 40 %
862 13-03-2020 23:39:17 5.4 C 40 %
863 13-03-2020 23:49:17 5.4 C 40 %
864 13-03-2020 23:59:17 4.8 C 41 %
865 14-03-2020 00:09:17 4.8 C 41 %
866 14-03-2020 00:19:18 4.6 C 41 %
867 14-03-2020 00:29:18 4.4 C 41 %
868 14-03-2020 00:39:18 3.7 C 42 %
869 14-03-2020 00:49:17 3.5 C 44 %
870 14-03-2020 00:59:17 3 C 43 %
871 14-03-2020 01:09:18 2.6 C 45 %
872 14-03-2020 01:19:17 2.4 C 46 %
873 14-03-2020 01:29:18 2 C 45 %
874 14-03-2020 01:39:18 2 C 46 %
875 14-03-2020 01:49:17 2.4 C 48 %
Sensor: Nr:Datum:Temp:Feuchte:
Aussen-T/F 876 14-03-2020 01:59:18 2.8 C 49 %
877 14-03-2020 02:09:18 3.3 C 47 %
878 14-03-2020 02:19:18 3.6 C 46 %
879 14-03-2020 02:29:18 3.3 C 45 %
880 14-03-2020 02:39:18 3 C 45 %
881 14-03-2020 02:49:18 2.8 C 45 %
882 14-03-2020 02:59:18 2.3 C 46 %
883 14-03-2020 03:09:18 2.2 C 46 %
884 14-03-2020 03:19:17 1.5 C 47 %
885 14-03-2020 03:29:17 1.3 C 47 %
886 14-03-2020 03:39:17 1.4 C 48 %
887 14-03-2020 03:49:18 1.5 C 48 %
888 14-03-2020 03:59:18 1.5 C 49 %
889 14-03-2020 04:09:17 1.7 C 49 %
890 14-03-2020 04:19:17 1.6 C 48 %
891 14-03-2020 04:29:17 1.6 C 49 %
892 14-03-2020 04:39:17 1.5 C 48 %
893 14-03-2020 04:49:17 1.3 C 48 %
894 14-03-2020 04:59:17 1.3 C 48 %
895 14-03-2020 05:09:17 1.3 C 49 %
896 14-03-2020 05:19:17 1.1 C 48 %
897 14-03-2020 05:29:17 0.8 C 49 %
898 14-03-2020 05:39:18 0.9 C 50 %
899 14-03-2020 05:49:17 1.3 C 49 %
900 14-03-2020 05:59:17 0.5 C 49 %
Sensor: Nr:Datum:Temp:Feuchte:
Aussen-T/F 901 14-03-2020 06:09:18 0.3 C 49 %
902 14-03-2020 06:19:18 0.6 C 50 %
903 14-03-2020 06:29:18 0.4 C 49 %
904 14-03-2020 06:39:18 0.4 C 50 %
905 14-03-2020 06:49:17 0.8 C 50 %
906 14-03-2020 06:59:17 0.8 C 50 %
907 14-03-2020 07:09:17 0.7 C 50 %
908 14-03-2020 07:19:17 0.8 C 50 %
909 14-03-2020 07:29:17 0.6 C 49 %
910 14-03-2020 07:39:18 0.6 C 49 %
911 14-03-2020 07:49:17 0.8 C 49 %
912 14-03-2020 07:59:17 0.8 C 50 %
913 14-03-2020 08:09:17 1 C 48 %
914 14-03-2020 08:19:17 1.4 C 49 %
915 14-03-2020 08:29:17 1.7 C 49 %
916 14-03-2020 08:39:18 1.9 C 49 %
917 14-03-2020 08:49:17 2.2 C 48 %
918 14-03-2020 08:59:17 2.5 C 48 %
919 14-03-2020 09:09:17 2.8 C 48 %
920 14-03-2020 09:19:17 3.4 C 46 %
921 14-03-2020 09:29:17 3.7 C 45 %
922 14-03-2020 09:39:18 4.1 C 43 %
923 14-03-2020 09:49:17 4.5 C 43 %
924 14-03-2020 09:59:17 5 C 41 %
925 14-03-2020 10:09:18 5.7 C 41 %
Sensor: Nr:Datum:Temp:Feuchte:
Aussen-T/F 926 14-03-2020 10:19:18 6 C 39 %
927 14-03-2020 10:29:18 6.8 C 40 %
928 14-03-2020 10:39:18 7.7 C 38 %
929 14-03-2020 10:49:17 7.7 C 37 %
930 14-03-2020 10:59:17 8.4 C 36 %
931 14-03-2020 11:09:18 9 C 35 %
932 14-03-2020 11:19:18 10.4 C 34 %
933 14-03-2020 11:29:18 11 C 31 %
934 14-03-2020 11:39:18 10.4 C 31 %
935 14-03-2020 11:49:17 10.1 C 32 %
936 14-03-2020 11:59:17 11.3 C 31 %
937 14-03-2020 12:09:18 13 C 27 %
938 14-03-2020 12:19:17 12.4 C 27 %
939 14-03-2020 12:29:18 12 C 27 %
940 14-03-2020 12:39:18 11.3 C 28 %
941 14-03-2020 12:49:17 11.5 C 28 %
942 14-03-2020 12:59:17 13.1 C 26 %
943 14-03-2020 13:09:18 12.9 C 25 %
944 14-03-2020 13:19:17 13 C 22 %
945 14-03-2020 13:29:17 13.3 C 23 %
946 14-03-2020 13:39:17 12.5 C 22 %
947 14-03-2020 13:49:17 12.4 C 22 %
948 14-03-2020 13:59:17 13.8 C 21 %
949 14-03-2020 14:09:18 12.3 C 22 %
950 14-03-2020 14:19:17 12.5 C 21 %
Sensor: Nr:Datum:Temp:Feuchte:
Aussen-T/F 951 14-03-2020 14:29:17 14 C 20 %
952 14-03-2020 14:39:17 13.7 C 20 %
953 14-03-2020 14:49:18 12.3 C 20 %
954 14-03-2020 14:59:18 11.6 C 23 %
955 14-03-2020 15:09:18 11.4 C 22 %
956 14-03-2020 15:19:17 12.1 C 21 %
957 14-03-2020 15:29:17 12.1 C 20 %
958 14-03-2020 15:39:18 11.7 C 21 %
959 14-03-2020 15:49:17 12 C 20 %
960 14-03-2020 15:59:17 11.8 C 21 %
961 14-03-2020 16:09:18 11.2 C 23 %
962 14-03-2020 16:19:17 10.6 C 25 %
963 14-03-2020 16:29:17 10.4 C 26 %
964 14-03-2020 16:39:18 9.9 C 26 %
965 14-03-2020 16:49:18 10.1 C 26 %
966 14-03-2020 16:59:18 9.8 C 27 %
967 14-03-2020 17:09:18 10.3 C 26 %
968 14-03-2020 17:19:17 10.3 C 26 %
969 14-03-2020 17:29:17 10.7 C 26 %
970 14-03-2020 17:39:17 9.6 C 27 %
971 14-03-2020 17:49:17 9.3 C 28 %
972 14-03-2020 17:59:17 8.6 C 30 %
973 14-03-2020 18:09:17 8.1 C 31 %
974 14-03-2020 18:19:17 7.3 C 33 %
975 14-03-2020 18:29:17 7.1 C 33 %
Sensor: Nr:Datum:Temp:Feuchte:
Aussen-T/F 976 14-03-2020 18:39:17 6.3 C 36 %
977 14-03-2020 18:49:17 5.9 C 37 %
978 14-03-2020 18:59:17 5.9 C 38 %
979 14-03-2020 19:09:17 5.3 C 38 %
980 14-03-2020 19:19:17 5.5 C 39 %
981 14-03-2020 19:29:17 5.1 C 39 %
982 14-03-2020 19:39:17 5.6 C 39 %
983 14-03-2020 19:49:17 5.2 C 39 %
984 14-03-2020 19:59:17 5.3 C 39 %
985 14-03-2020 20:09:18 5.3 C 39 %
986 14-03-2020 20:19:18 5.3 C 39 %
987 14-03-2020 20:29:18 5.3 C 39 %
988 14-03-2020 20:39:18 5.6 C 39 %
989 14-03-2020 20:49:17 5.5 C 39 %
990 14-03-2020 20:59:18 5.7 C 39 %
991 14-03-2020 21:09:18 5.7 C 39 %
992 14-03-2020 21:19:18 5.7 C 39 %
993 14-03-2020 21:29:18 5.6 C 38 %
994 14-03-2020 21:39:17 5.1 C 39 %
995 14-03-2020 21:49:18 5.2 C 39 %
996 14-03-2020 21:59:18 5 C 39 %
997 14-03-2020 22:09:18 5 C 39 %
998 14-03-2020 22:19:17 5 C 39 %
999 14-03-2020 22:29:17 5 C 39 %
1000 14-03-2020 22:39:18 5.1 C 39 %
Sensor: Nr:Datum:Temp:Feuchte:
Aussen-T/F 1001 14-03-2020 22:49:18 4.8 C 40 %
1002 14-03-2020 22:59:18 5.1 C 39 %
1003 14-03-2020 23:09:17 5.5 C 39 %
1004 14-03-2020 23:19:17 5.7 C 39 %
1005 14-03-2020 23:29:17 5.6 C 40 %
1006 14-03-2020 23:39:17 5.6 C 39 %
1007 14-03-2020 23:49:18 5.8 C 40 %
1008 14-03-2020 23:59:18 5.8 C 40 %
1009 15-03-2020 00:09:18 5.9 C 39 %
1010 15-03-2020 00:19:17 5.8 C 39 %
1011 15-03-2020 00:29:17 6.1 C 37 %
1012 15-03-2020 00:39:18 6 C 38 %
1013 15-03-2020 00:49:18 5.6 C 39 %
1014 15-03-2020 00:59:18 5.3 C 39 %
1015 15-03-2020 01:09:17 5.1 C 40 %
1016 15-03-2020 01:19:18 5.1 C 39 %
1017 15-03-2020 01:29:18 5.5 C 39 %
1018 15-03-2020 01:39:17 5.2 C 40 %
1019 15-03-2020 01:49:17 5.2 C 40 %
1020 15-03-2020 01:59:17 5.2 C 40 %
1021 15-03-2020 02:09:17 5.1 C 40 %
1022 15-03-2020 02:19:17 5.1 C 40 %
1023 15-03-2020 02:29:17 4.8 C 40 %
1024 15-03-2020 02:39:18 4.5 C 40 %
1025 15-03-2020 02:49:17 4.9 C 40 %
Sensor: Nr:Datum:Temp:Feuchte:
Aussen-T/F 1026 15-03-2020 02:59:17 5 C 40 %
1027 15-03-2020 03:09:17 4.8 C 40 %
1028 15-03-2020 03:19:17 4.2 C 40 %
1029 15-03-2020 03:29:17 4 C 40 %
1030 15-03-2020 03:39:18 4 C 40 %
1031 15-03-2020 03:49:17 3.8 C 41 %
1032 15-03-2020 03:59:17 3.7 C 42 %
1033 15-03-2020 04:09:18 3.7 C 41 %
1034 15-03-2020 04:19:18 3.9 C 41 %
1035 15-03-2020 04:29:18 3.7 C 41 %
1036 15-03-2020 04:39:18 3.8 C 41 %
1037 15-03-2020 04:49:17 3.7 C 41 %
1038 15-03-2020 04:59:18 3.5 C 41 %
1039 15-03-2020 05:09:18 3.5 C 41 %
1040 15-03-2020 05:19:17 3.3 C 41 %
1041 15-03-2020 05:29:18 3.2 C 41 %
1042 15-03-2020 05:39:18 3 C 41 %
1043 15-03-2020 05:49:17 3.1 C 41 %
1044 15-03-2020 05:59:17 3.1 C 41 %
1045 15-03-2020 06:09:18 3.1 C 41 %
1046 15-03-2020 06:19:17 3.1 C 41 %
1047 15-03-2020 06:29:17 2.9 C 43 %
1048 15-03-2020 06:39:18 3.3 C 41 %
1049 15-03-2020 06:49:18 3.6 C 41 %
1050 15-03-2020 06:59:18 3.3 C 41 %
Sensor: Nr:Datum:Temp:Feuchte:
Aussen-T/F 1051 15-03-2020 07:09:18 3 C 42 %
1052 15-03-2020 07:19:18 3.1 C 42 %
1053 15-03-2020 07:29:18 3.6 C 41 %
1054 15-03-2020 07:39:18 3.6 C 41 %
1055 15-03-2020 07:49:18 3.5 C 41 %
1056 15-03-2020 07:59:18 4 C 41 %
1057 15-03-2020 08:09:18 4.8 C 40 %
1058 15-03-2020 08:19:18 5.4 C 39 %
1059 15-03-2020 08:29:18 5.7 C 39 %
1060 15-03-2020 08:39:18 5.9 C 38 %
1061 15-03-2020 08:49:17 6.4 C 38 %
1062 15-03-2020 08:59:17 6.7 C 38 %
1063 15-03-2020 09:09:18 6.8 C 37 %
1064 15-03-2020 09:19:18 6.9 C 38 %
1065 15-03-2020 09:29:18 7.1 C 37 %
1066 15-03-2020 09:39:18 7.8 C 36 %
1067 15-03-2020 09:49:18 9.2 C 33 %
1068 15-03-2020 09:59:18 9.9 C 32 %
1069 15-03-2020 10:09:18 9.9 C 31 %
1070 15-03-2020 10:19:18 9.8 C 32 %
1071 15-03-2020 10:29:18 10 C 32 %
1072 15-03-2020 10:39:18 10.8 C 31 %
1073 15-03-2020 10:49:17 11.8 C 29 %
1074 15-03-2020 10:59:17 12.5 C 27 %
1075 15-03-2020 11:09:17 13.4 C 25 %
Sensor: Nr:Datum:Temp:Feuchte:
Aussen-T/F 1076 15-03-2020 11:19:17 14.7 C 23 %
1077 15-03-2020 11:29:17 16 C 20 %
1078 15-03-2020 11:39:18 15.5 C 20 %
1079 15-03-2020 11:49:17 14.9 C 20 %
1080 15-03-2020 11:59:18 15.2 C 20 %
1081 15-03-2020 12:09:18 14.5 C 20 %
1082 15-03-2020 12:19:18 14.1 C 20 %
1083 15-03-2020 12:29:18 14.4 C 20 %
1084 15-03-2020 12:39:18 14.7 C 20 %
1085 15-03-2020 12:49:17 15.2 C 20 %
1086 15-03-2020 12:59:17 15.4 C 20 %
1087 15-03-2020 13:09:18 14.8 C 20 %
1088 15-03-2020 13:19:17 17 C 20 %
1089 15-03-2020 13:29:17 18.6 C 20 %
1090 15-03-2020 13:39:18 17.4 C 20 %
1091 15-03-2020 13:49:17 16.7 C 20 %
1092 15-03-2020 13:59:17 16.2 C 20 %
1093 15-03-2020 14:09:17 15.5 C 20 %
1094 15-03-2020 14:19:17 16.5 C 20 %
1095 15-03-2020 14:29:17 16.3 C 20 %
1096 15-03-2020 14:39:18 16.6 C 20 %
1097 15-03-2020 14:49:17 16.2 C 20 %
1098 15-03-2020 14:59:17 16 C 20 %
1099 15-03-2020 15:09:17 17.4 C 20 %
1100 15-03-2020 15:19:17 20.3 C 20 %
Sensor: Nr:Datum:Temp:Feuchte:
Aussen-T/F 1101 15-03-2020 15:29:18 20.4 C 20 %
1102 15-03-2020 15:39:18 19.4 C 20 %
1103 15-03-2020 15:49:17 20.7 C 20 %
1104 15-03-2020 15:59:17 19.9 C 20 %
1105 15-03-2020 16:09:17 21.2 C 20 %
1106 15-03-2020 16:19:17 20.2 C 20 %
1107 15-03-2020 16:29:17 20.5 C 20 %
1108 15-03-2020 16:39:17 19.7 C 20 %
1109 15-03-2020 16:49:18 18.1 C 20 %
1110 15-03-2020 16:59:18 16.9 C 20 %
1111 15-03-2020 17:09:18 16 C 20 %
1112 15-03-2020 17:19:18 15.5 C 20 %
1113 15-03-2020 17:29:18 15.5 C 20 %
1114 15-03-2020 17:39:18 14.9 C 20 %
1115 15-03-2020 17:49:18 13.8 C 20 %
1116 15-03-2020 17:59:18 12.6 C 23 %
1117 15-03-2020 18:09:18 12.1 C 25 %
1118 15-03-2020 18:19:18 11.7 C 26 %
1119 15-03-2020 18:29:18 11.1 C 27 %
1120 15-03-2020 18:39:18 10.6 C 28 %
1121 15-03-2020 18:49:17 10.4 C 28 %
1122 15-03-2020 18:59:17 10 C 28 %
1123 15-03-2020 19:09:18 9.6 C 30 %
1124 15-03-2020 19:19:18 9.4 C 30 %
1125 15-03-2020 19:29:18 9.2 C 31 %
Sensor: Nr:Datum:Temp:Feuchte:
Aussen-T/F 1126 15-03-2020 19:39:18 9.1 C 30 %
1127 15-03-2020 19:49:17 9 C 31 %
1128 15-03-2020 19:59:17 8.9 C 31 %
1129 15-03-2020 20:09:18 8.6 C 31 %
1130 15-03-2020 20:19:17 8.5 C 32 %
1131 15-03-2020 20:29:17 8.2 C 32 %
1132 15-03-2020 20:39:18 8.2 C 32 %
1133 15-03-2020 20:49:18 8 C 32 %
1134 15-03-2020 20:59:18 7.4 C 34 %
1135 15-03-2020 21:09:18 7.1 C 35 %
1136 15-03-2020 21:19:17 7 C 35 %
1137 15-03-2020 21:29:17 7.4 C 35 %
1138 15-03-2020 21:39:17 7.5 C 35 %
1139 15-03-2020 21:49:17 7.1 C 35 %
1140 15-03-2020 21:59:17 6.3 C 36 %
1141 15-03-2020 22:09:17 5.8 C 37 %
1142 15-03-2020 22:19:17 5.4 C 37 %
1143 15-03-2020 22:29:18 5 C 38 %
1144 15-03-2020 22:39:17 4.7 C 40 %
1145 15-03-2020 22:49:17 4.7 C 40 %
1146 15-03-2020 22:59:17 4.7 C 40 %
1147 15-03-2020 23:09:17 4.7 C 40 %
1148 15-03-2020 23:19:17 4.6 C 40 %
1149 15-03-2020 23:29:17 4.5 C 40 %
1150 15-03-2020 23:39:17 4.5 C 40 %
Sensor: Nr:Datum:Temp:Feuchte:
Aussen-T/F 1151 15-03-2020 23:49:17 4.3 C 40 %
1152 15-03-2020 23:59:17 4.1 C 40 %
1153 16-03-2020 00:09:17 4 C 40 %
1154 16-03-2020 00:19:17 3.8 C 41 %
1155 16-03-2020 00:29:17 3.4 C 41 %
1156 16-03-2020 00:39:17 3.4 C 42 %
1157 16-03-2020 00:49:17 3.3 C 42 %
1158 16-03-2020 00:59:17 3.3 C 42 %
1159 16-03-2020 01:09:18 2.9 C 43 %
1160 16-03-2020 01:19:17 3 C 43 %
1161 16-03-2020 01:29:17 3 C 42 %
1162 16-03-2020 01:39:17 3.2 C 42 %
1163 16-03-2020 01:49:18 2.8 C 43 %
1164 16-03-2020 01:59:18 2.6 C 44 %
1165 16-03-2020 02:09:17 2.7 C 45 %
1166 16-03-2020 02:19:17 2.7 C 44 %
1167 16-03-2020 02:29:17 2.4 C 44 %
1168 16-03-2020 02:39:17 2.6 C 45 %
1169 16-03-2020 02:49:17 2.8 C 45 %
1170 16-03-2020 02:59:17 2.8 C 44 %
1171 16-03-2020 03:09:18 2.2 C 44 %
1172 16-03-2020 03:19:17 2.3 C 44 %
1173 16-03-2020 03:29:17 2.2 C 45 %
1174 16-03-2020 03:39:17 1.8 C 45 %
1175 16-03-2020 03:49:18 2 C 46 %
Sensor: Nr:Datum:Temp:Feuchte:
Aussen-T/F 1176 16-03-2020 03:59:18 1.8 C 46 %
1177 16-03-2020 04:09:18 1.6 C 46 %
1178 16-03-2020 04:19:18 1.7 C 46 %
1179 16-03-2020 04:29:18 2 C 46 %
1180 16-03-2020 04:39:18 1.5 C 46 %
1181 16-03-2020 04:49:17 1.7 C 46 %
1182 16-03-2020 04:59:18 1.9 C 46 %
1183 16-03-2020 05:09:18 1.7 C 46 %
1184 16-03-2020 05:19:18 1.7 C 46 %
1185 16-03-2020 05:29:18 1.4 C 46 %
1186 16-03-2020 05:39:18 1.3 C 46 %
1187 16-03-2020 05:49:17 1.2 C 46 %
1188 16-03-2020 05:59:17 1.3 C 47 %
1189 16-03-2020 06:09:18 1.1 C 47 %
1190 16-03-2020 06:19:17 0.6 C 48 %
1191 16-03-2020 06:29:17 0.6 C 48 %
1192 16-03-2020 06:39:17 0.6 C 48 %
1193 16-03-2020 06:49:17 0.6 C 48 %
1194 16-03-2020 06:59:17 0.9 C 49 %
1195 16-03-2020 07:09:17 1.2 C 49 %
1196 16-03-2020 07:19:17 1.1 C 47 %
1197 16-03-2020 07:29:17 1 C 47 %
1198 16-03-2020 07:39:17 1.4 C 49 %
1199 16-03-2020 07:49:17 1.4 C 48 %
1200 16-03-2020 07:59:17 1.7 C 48 %
Sensor: Nr:Datum:Temp:Feuchte:
Aussen-T/F 1201 16-03-2020 08:09:18 2 C 47 %
1202 16-03-2020 08:19:17 2.3 C 47 %
1203 16-03-2020 08:29:18 2.4 C 46 %
1204 16-03-2020 08:39:18 2.4 C 46 %
1205 16-03-2020 08:49:17 2.6 C 46 %
1206 16-03-2020 08:59:17 2.9 C 47 %
1207 16-03-2020 09:09:18 3.4 C 46 %
1208 16-03-2020 09:19:18 3.7 C 45 %
1209 16-03-2020 09:29:18 4 C 45 %
1210 16-03-2020 09:39:18 4.6 C 44 %
1211 16-03-2020 09:49:18 5 C 43 %
1212 16-03-2020 09:59:18 5.6 C 42 %
1213 16-03-2020 10:09:18 6.6 C 41 %
1214 16-03-2020 10:19:18 7.3 C 40 %
1215 16-03-2020 10:29:18 8.3 C 39 %
1216 16-03-2020 10:39:17 9.3 C 38 %
1217 16-03-2020 10:49:18 10.4 C 37 %
1218 16-03-2020 10:59:18 12.4 C 34 %
1219 16-03-2020 11:09:17 13.3 C 32 %
1220 16-03-2020 11:19:17 14.3 C 30 %
1221 16-03-2020 11:29:17 15.4 C 27 %
1222 16-03-2020 11:39:18 15.7 C 26 %
1223 16-03-2020 11:49:17 15.6 C 25 %
1224 16-03-2020 11:59:17 16.1 C 25 %
1225 16-03-2020 12:09:17 16.5 C 25 %
Sensor: Nr:Datum:Temp:Feuchte:
Aussen-T/F 1226 16-03-2020 12:19:17 16.8 C 25 %
1227 16-03-2020 12:29:17 16.4 C 24 %
1228 16-03-2020 12:39:17 16.9 C 24 %
1229 16-03-2020 12:49:17 18.3 C 21 %
1230 16-03-2020 12:59:17 18.7 C 20 %
1231 16-03-2020 13:09:17 22.3 C 20 %
1232 16-03-2020 13:19:17 21.2 C 20 %
1233 16-03-2020 13:29:17 21.1 C 20 %
1234 16-03-2020 13:39:17 20.6 C 20 %
1235 16-03-2020 13:49:17 21.1 C 20 %
1236 16-03-2020 13:59:17 19.7 C 20 %
1237 16-03-2020 14:09:17 18.7 C 20 %
1238 16-03-2020 14:19:17 19.7 C 20 %
1239 16-03-2020 14:29:17 19.7 C 20 %
1240 16-03-2020 14:39:17 20 C 20 %
1241 16-03-2020 14:49:17 19.2 C 20 %
1242 16-03-2020 14:59:17 20.8 C 20 %
1243 16-03-2020 15:09:17 20 C 20 %
1244 16-03-2020 15:19:17 19.1 C 20 %
1245 16-03-2020 15:29:17 18.8 C 20 %
1246 16-03-2020 15:39:18 18.8 C 20 %
1247 16-03-2020 15:49:17 19 C 20 %
1248 16-03-2020 15:59:17 19 C 20 %
1249 16-03-2020 16:09:18 18.7 C 20 %
1250 16-03-2020 16:19:18 19 C 20 %
Sensor: Nr:Datum:Temp:Feuchte:
Aussen-T/F 1251 16-03-2020 16:29:18 21.4 C 20 %
1252 16-03-2020 16:39:17 20.8 C 20 %
1253 16-03-2020 16:49:17 20.2 C 20 %
1254 16-03-2020 16:59:17 19.4 C 20 %
1255 16-03-2020 17:09:17 18.4 C 20 %
1256 16-03-2020 17:19:17 17.9 C 20 %
1257 16-03-2020 17:29:18 17.7 C 20 %
1258 16-03-2020 17:39:18 17.5 C 20 %
1259 16-03-2020 17:49:17 16.8 C 21 %
1260 16-03-2020 17:59:18 16 C 23 %
1261 16-03-2020 18:09:18 15 C 26 %
1262 16-03-2020 18:19:18 14.3 C 27 %
1263 16-03-2020 18:29:18 13.7 C 29 %
1264 16-03-2020 18:39:18 13.1 C 30 %
1265 16-03-2020 18:49:18 12.7 C 31 %
1266 16-03-2020 18:59:18 12.4 C 32 %
1267 16-03-2020 19:09:18 12.1 C 32 %
1268 16-03-2020 19:19:18 12.2 C 32 %
1269 16-03-2020 19:29:18 12.2 C 32 %
1270 16-03-2020 19:39:18 11.9 C 34 %
1271 16-03-2020 19:49:17 11.5 C 34 %
1272 16-03-2020 19:59:18 11 C 35 %
1273 16-03-2020 20:09:18 10.7 C 36 %
1274 16-03-2020 20:19:18 11.4 C 35 %
1275 16-03-2020 20:29:18 10.8 C 36 %
Sensor: Nr:Datum:Temp:Feuchte:
Aussen-T/F 1276 16-03-2020 20:39:18 10.3 C 36 %
1277 16-03-2020 20:49:18 9.5 C 38 %
1278 16-03-2020 20:59:18 10.8 C 37 %
1279 16-03-2020 21:09:18 10.1 C 37 %
1280 16-03-2020 21:19:17 10.3 C 38 %
1281 16-03-2020 21:29:17 9.9 C 38 %
1282 16-03-2020 21:39:17 9.7 C 38 %
1283 16-03-2020 21:49:18 10.2 C 37 %
1284 16-03-2020 21:59:18 9.9 C 38 %
1285 16-03-2020 22:09:18 9.7 C 38 %
1286 16-03-2020 22:19:18 9.5 C 38 %
1287 16-03-2020 22:29:18 9.5 C 39 %
1288 16-03-2020 22:39:18 9.2 C 38 %
1289 16-03-2020 22:49:18 8.9 C 39 %
1290 16-03-2020 22:59:18 9.1 C 39 %
1291 16-03-2020 23:09:18 9.4 C 39 %
1292 16-03-2020 23:19:17 9.4 C 39 %
1293 16-03-2020 23:29:17 9.4 C 39 %
1294 16-03-2020 23:39:17 9.5 C 39 %
1295 16-03-2020 23:49:17 9.5 C 40 %
1296 16-03-2020 23:59:17 9.5 C 39 %
1297 17-03-2020 00:09:17 9.3 C 39 %
1298 17-03-2020 00:19:17 9.7 C 40 %
1299 17-03-2020 00:29:17 9.5 C 39 %
1300 17-03-2020 00:39:18 9.3 C 39 %
Sensor: Nr:Datum:Temp:Feuchte:
Aussen-T/F 1301 17-03-2020 00:49:18 9.1 C 40 %
1302 17-03-2020 00:59:18 9 C 40 %
1303 17-03-2020 01:09:18 9.3 C 40 %
1304 17-03-2020 01:19:17 9.2 C 40 %
1305 17-03-2020 01:29:17 8.9 C 40 %
1306 17-03-2020 01:39:17 8.7 C 41 %
1307 17-03-2020 01:49:18 8.8 C 41 %
1308 17-03-2020 01:59:18 8.8 C 41 %
1309 17-03-2020 02:09:18 8.7 C 41 %
1310 17-03-2020 02:19:17 8.7 C 41 %
1311 17-03-2020 02:29:17 8.7 C 41 %
1312 17-03-2020 02:39:17 8.9 C 41 %
1313 17-03-2020 02:49:17 8.9 C 41 %
1314 17-03-2020 02:59:17 8.8 C 41 %
1315 17-03-2020 03:09:18 8.6 C 41 %
1316 17-03-2020 03:19:18 8.6 C 41 %
1317 17-03-2020 03:29:18 8.4 C 41 %
1318 17-03-2020 03:39:17 8.3 C 41 %
1319 17-03-2020 03:49:18 8.1 C 42 %
1320 17-03-2020 03:59:18 8 C 41 %
1321 17-03-2020 04:09:18 8.9 C 42 %
1322 17-03-2020 04:19:18 9.2 C 40 %
1323 17-03-2020 04:29:18 9.3 C 40 %
1324 17-03-2020 04:39:17 9 C 40 %
1325 17-03-2020 04:49:18 9 C 40 %
Sensor: Nr:Datum:Temp:Feuchte:
Aussen-T/F 1326 17-03-2020 04:59:18 8.6 C 41 %
1327 17-03-2020 05:09:17 8.9 C 41 %
1328 17-03-2020 05:19:17 9 C 40 %
1329 17-03-2020 05:29:17 8.6 C 41 %
1330 17-03-2020 05:39:17 8.3 C 41 %
1331 17-03-2020 05:49:17 8.2 C 41 %
1332 17-03-2020 05:59:18 8.2 C 41 %
1333 17-03-2020 06:09:18 8.1 C 41 %
1334 17-03-2020 06:19:18 8.1 C 41 %
1335 17-03-2020 06:29:18 8 C 41 %
1336 17-03-2020 06:39:18 8.2 C 41 %
1337 17-03-2020 06:49:18 8.1 C 41 %
1338 17-03-2020 06:59:18 8.2 C 41 %
1339 17-03-2020 07:09:17 8.8 C 40 %
1340 17-03-2020 07:19:17 9 C 40 %
1341 17-03-2020 07:29:17 9.5 C 39 %
1342 17-03-2020 07:39:17 9.6 C 39 %
1343 17-03-2020 07:49:18 9.6 C 39 %
1344 17-03-2020 07:59:18 9.8 C 38 %
1345 17-03-2020 08:09:18 10.1 C 37 %
1346 17-03-2020 08:19:17 10 C 37 %
1347 17-03-2020 08:29:17 9.8 C 38 %
1348 17-03-2020 08:39:17 9.9 C 38 %
1349 17-03-2020 08:49:17 9.9 C 38 %
1350 17-03-2020 08:59:17 10 C 37 %
Sensor: Nr:Datum:Temp:Feuchte:
Aussen-T/F 1351 17-03-2020 09:09:17 10.2 C 37 %
1352 17-03-2020 09:19:18 10.4 C 37 %
1353 17-03-2020 09:29:18 10.4 C 37 %
1354 17-03-2020 09:39:18 10.6 C 37 %
1355 17-03-2020 09:49:17 10.6 C 37 %
1356 17-03-2020 09:59:17 10.7 C 37 %
1357 17-03-2020 10:09:17 10.7 C 37 %
1358 17-03-2020 10:19:17 10.9 C 36 %
1359 17-03-2020 10:29:17 11 C 35 %
1360 17-03-2020 10:39:17 11.7 C 35 %
1361 17-03-2020 10:49:17 12.4 C 33 %
1362 17-03-2020 10:59:17 12.9 C 33 %
1363 17-03-2020 11:09:17 13.1 C 32 %
1364 17-03-2020 11:19:17 13.3 C 31 %
1365 17-03-2020 11:29:17 13.3 C 31 %
1366 17-03-2020 11:39:17 14.7 C 30 %
1367 17-03-2020 11:49:17 14.1 C 29 %
1368 17-03-2020 11:59:17 15.4 C 28 %
1369 17-03-2020 12:09:17 14.5 C 29 %
1370 17-03-2020 12:19:18 14.6 C 27 %
1371 17-03-2020 12:29:18 15.2 C 26 %
1372 17-03-2020 12:39:18 16.5 C 26 %
1373 17-03-2020 12:49:18 16.6 C 24 %
1374 17-03-2020 12:59:18 19.3 C 20 %
1375 17-03-2020 13:09:17 18.8 C 20 %
Sensor: Nr:Datum:Temp:Feuchte:
Aussen-T/F 1376 17-03-2020 13:19:17 20.4 C 20 %
1377 17-03-2020 13:29:17 19.5 C 20 %
1378 17-03-2020 13:39:17 18.5 C 20 %
1379 17-03-2020 13:49:18 18.8 C 20 %
1380 17-03-2020 13:59:18 19.3 C 20 %
1381 17-03-2020 14:09:17 18.3 C 20 %
1382 17-03-2020 14:19:17 18.5 C 20 %
1383 17-03-2020 14:29:17 17.9 C 20 %
1384 17-03-2020 14:39:18 17.1 C 20 %
1385 17-03-2020 14:49:18 20.5 C 20 %
1386 17-03-2020 14:59:18 22.2 C 20 %
1387 17-03-2020 15:09:17 22.5 C 20 %
1388 17-03-2020 15:19:17 22.1 C 20 %
1389 17-03-2020 15:29:17 23.8 C 20 %
1390 17-03-2020 15:39:18 23.6 C 20 %
1391 17-03-2020 15:49:17 23.8 C 20 %
1392 17-03-2020 15:59:17 23.9 C 20 %
1393 17-03-2020 16:09:18 23.3 C 20 %
1394 17-03-2020 16:19:18 21.8 C 20 %
1395 17-03-2020 16:29:18 23.2 C 20 %
1396 17-03-2020 16:39:17 21.4 C 20 %
1397 17-03-2020 16:49:17 22.3 C 20 %
1398 17-03-2020 16:59:17 20.1 C 20 %
1399 17-03-2020 17:09:17 18.7 C 20 %
1400 17-03-2020 17:19:18 17.7 C 20 %
Sensor: Nr:Datum:Temp:Feuchte:
Aussen-T/F 1401 17-03-2020 17:29:18 17.3 C 20 %
1402 17-03-2020 17:39:18 16.8 C 20 %
1403 17-03-2020 17:49:17 16.1 C 22 %
1404 17-03-2020 17:59:18 15.3 C 24 %
1405 17-03-2020 18:09:18 14.1 C 27 %
1406 17-03-2020 18:19:17 13.5 C 28 %
1407 17-03-2020 18:29:17 13.2 C 29 %
1408 17-03-2020 18:39:18 12.8 C 30 %
1409 17-03-2020 18:49:18 12.4 C 31 %
1410 17-03-2020 18:59:18 12 C 31 %
1411 17-03-2020 19:09:18 11.9 C 32 %
1412 17-03-2020 19:19:17 11.8 C 32 %
1413 17-03-2020 19:29:17 11.1 C 33 %
1414 17-03-2020 19:39:17 11 C 34 %
1415 17-03-2020 19:49:17 10.4 C 35 %
1416 17-03-2020 19:59:17 10.2 C 35 %
1417 17-03-2020 20:09:17 9.9 C 36 %
1418 17-03-2020 20:19:17 10.1 C 36 %
1419 17-03-2020 20:29:17 10.7 C 35 %
1420 17-03-2020 20:39:18 10.4 C 35 %
1421 17-03-2020 20:49:18 9.6 C 37 %
1422 17-03-2020 20:59:18 9.5 C 37 %
1423 17-03-2020 21:09:18 9 C 37 %
1424 17-03-2020 21:19:17 8.4 C 39 %
1425 17-03-2020 21:29:17 8.4 C 39 %
Sensor: Nr:Datum:Temp:Feuchte:
Aussen-T/F 1426 17-03-2020 21:39:17 8.1 C 39 %
1427 17-03-2020 21:49:18 8 C 40 %
1428 17-03-2020 21:59:18 7.6 C 40 %
1429 17-03-2020 22:09:18 7.3 C 40 %
1430 17-03-2020 22:19:18 7.2 C 41 %
1431 17-03-2020 22:29:18 7 C 41 %
1432 17-03-2020 22:39:17 6.9 C 41 %
1433 17-03-2020 22:49:17 6.7 C 42 %
1434 17-03-2020 22:59:17 6.5 C 42 %
1435 17-03-2020 23:09:17 6.4 C 42 %
1436 17-03-2020 23:19:17 6.3 C 42 %
1437 17-03-2020 23:29:17 6.1 C 42 %
1438 17-03-2020 23:39:18 6.1 C 42 %
1439 17-03-2020 23:49:18 6.2 C 43 %
1440 17-03-2020 23:59:18 6.3 C 43 %
1441 18-03-2020 00:09:17 5.9 C 43 %
1442 18-03-2020 00:19:17 5.8 C 44 %
1443 18-03-2020 00:29:17 5.9 C 44 %
1444 18-03-2020 00:39:17 5.8 C 44 %
1445 18-03-2020 00:49:17 6 C 44 %
1446 18-03-2020 00:59:17 6 C 43 %
1447 18-03-2020 01:09:17 5.7 C 44 %
1448 18-03-2020 01:19:17 5.6 C 44 %
1449 18-03-2020 01:29:17 5.3 C 44 %
1450 18-03-2020 01:39:17 5.6 C 45 %
Sensor: Nr:Datum:Temp:Feuchte:
Aussen-T/F 1451 18-03-2020 01:49:17 5.3 C 45 %
1452 18-03-2020 01:59:17 5.6 C 46 %
1453 18-03-2020 02:09:17 5.1 C 44 %
1454 18-03-2020 02:19:17 4.8 C 45 %
1455 18-03-2020 02:29:17 4.8 C 45 %
1456 18-03-2020 02:39:17 4.6 C 46 %
1457 18-03-2020 02:49:18 4.3 C 46 %
1458 18-03-2020 02:59:18 4.3 C 46 %
1459 18-03-2020 03:09:18 4.2 C 46 %
1460 18-03-2020 03:19:17 4.2 C 46 %
1461 18-03-2020 03:29:17 4.1 C 46 %
1462 18-03-2020 03:39:17 4 C 46 %
1463 18-03-2020 03:49:17 3.8 C 47 %
1464 18-03-2020 03:59:17 3.8 C 47 %
1465 18-03-2020 04:09:17 3.8 C 47 %
1466 18-03-2020 04:19:18 3.8 C 47 %
1467 18-03-2020 04:29:18 3.7 C 47 %
1468 18-03-2020 04:39:18 3.7 C 47 %
1469 18-03-2020 04:49:18 3.6 C 47 %
1470 18-03-2020 04:59:18 3.6 C 47 %
1471 18-03-2020 05:09:18 3.7 C 48 %
1472 18-03-2020 05:19:18 3.8 C 48 %
1473 18-03-2020 05:29:18 3.3 C 47 %
1474 18-03-2020 05:39:18 3.2 C 47 %
1475 18-03-2020 05:49:18 3.3 C 47 %
Sensor: Nr:Datum:Temp:Feuchte:
Aussen-T/F 1476 18-03-2020 05:59:18 3.1 C 47 %
1477 18-03-2020 06:09:18 2.9 C 48 %
1478 18-03-2020 06:19:17 3.3 C 47 %
1479 18-03-2020 06:29:18 3.1 C 47 %
1480 18-03-2020 06:39:18 3.1 C 47 %
1481 18-03-2020 06:49:17 3.1 C 47 %
1482 18-03-2020 06:59:18 3.6 C 47 %
1483 18-03-2020 07:09:18 3.5 C 47 %
1484 18-03-2020 07:19:17 3.4 C 47 %
1485 18-03-2020 07:29:17 3.7 C 47 %
1486 18-03-2020 07:39:17 3.9 C 47 %
1487 18-03-2020 07:49:18 4 C 46 %
1488 18-03-2020 07:59:18 4.9 C 46 %
1489 18-03-2020 08:09:18 4.6 C 46 %
1490 18-03-2020 08:19:18 4.5 C 46 %
1491 18-03-2020 08:29:18 4.7 C 46 %
1492 18-03-2020 08:39:17 5 C 45 %
1493 18-03-2020 08:49:18 5.3 C 46 %
1494 18-03-2020 08:59:18 5.6 C 46 %
1495 18-03-2020 09:09:17 6.7 C 45 %
1496 18-03-2020 09:19:17 7.1 C 45 %
1497 18-03-2020 09:29:17 8.5 C 45 %
1498 18-03-2020 09:39:17 9.7 C 41 %
1499 18-03-2020 09:49:18 10.5 C 40 %
1500 18-03-2020 09:59:18 11 C 38 %
Sensor: Nr:Datum:Temp:Feuchte:
Aussen-T/F 1501 18-03-2020 10:09:18 11.1 C 38 %
1502 18-03-2020 10:19:18 11.6 C 38 %
1503 18-03-2020 10:29:18 11.6 C 37 %
1504 18-03-2020 10:39:18 11.7 C 38 %
1505 18-03-2020 10:49:18 12 C 36 %
1506 18-03-2020 10:59:18 12.2 C 35 %
1507 18-03-2020 11:09:18 12.7 C 35 %
1508 18-03-2020 11:19:18 12.8 C 34 %
1509 18-03-2020 11:29:18 13.3 C 34 %
1510 18-03-2020 11:39:18 13.9 C 33 %
1511 18-03-2020 11:49:17 14.7 C 32 %
1512 18-03-2020 11:59:17 15.3 C 30 %
1513 18-03-2020 12:09:18 15.8 C 30 %
1514 18-03-2020 12:19:17 16.6 C 29 %
1515 18-03-2020 12:29:18 17 C 27 %
1516 18-03-2020 12:39:18 17.8 C 26 %
1517 18-03-2020 12:49:17 19.1 C 25 %
1518 18-03-2020 12:59:17 19.8 C 20 %
1519 18-03-2020 13:09:17 21 C 20 %
1520 18-03-2020 13:19:17 21.2 C 20 %
1521 18-03-2020 13:29:17 19.5 C 20 %
1522 18-03-2020 13:39:18 17.7 C 20 %
1523 18-03-2020 13:49:17 16.6 C 22 %
1524 18-03-2020 13:59:17 16 C 22 %
1525 18-03-2020 14:09:17 17.6 C 21 %
Sensor: Nr:Datum:Temp:Feuchte:
Aussen-T/F 1526 18-03-2020 14:19:17 16.7 C 20 %
1527 18-03-2020 14:29:17 17.9 C 20 %
1528 18-03-2020 14:39:18 18.5 C 20 %
1529 18-03-2020 14:49:17 17.4 C 20 %
1530 18-03-2020 14:59:17 17.4 C 20 %
1531 18-03-2020 15:09:17 20.6 C 20 %
1532 18-03-2020 15:19:18 17.9 C 20 %
1533 18-03-2020 15:29:18 18.2 C 20 %
1534 18-03-2020 15:39:18 17.7 C 20 %
1535 18-03-2020 15:49:17 16.9 C 20 %
1536 18-03-2020 15:59:17 16.7 C 21 %
1537 18-03-2020 16:09:17 16.4 C 21 %
1538 18-03-2020 16:19:17 16.4 C 22 %
1539 18-03-2020 16:29:17 16.4 C 20 %
1540 18-03-2020 16:39:17 16.5 C 20 %
1541 18-03-2020 16:49:18 16.2 C 21 %
1542 18-03-2020 16:59:18 16.1 C 21 %
1543 18-03-2020 17:09:17 16 C 21 %
1544 18-03-2020 17:19:17 16 C 21 %
1545 18-03-2020 17:29:17 15.7 C 22 %
1546 18-03-2020 17:39:18 16 C 20 %
1547 18-03-2020 17:49:17 16.3 C 20 %
1548 18-03-2020 17:59:17 15.8 C 22 %
1549 18-03-2020 18:09:17 15.4 C 22 %
1550 18-03-2020 18:19:17 14.7 C 26 %
Sensor: Nr:Datum:Temp:Feuchte:
Aussen-T/F 1551 18-03-2020 18:29:17 13.7 C 26 %
1552 18-03-2020 18:39:17 13.3 C 28 %
1553 18-03-2020 18:49:17 12.7 C 30 %
1554 18-03-2020 18:59:17 12 C 31 %
1555 18-03-2020 19:09:17 11.7 C 32 %
1556 18-03-2020 19:19:18 11.5 C 32 %
1557 18-03-2020 19:29:18 10.5 C 34 %
1558 18-03-2020 19:39:18 10.9 C 34 %
1559 18-03-2020 19:49:18 11.1 C 34 %
1560 18-03-2020 19:59:18 10.9 C 35 %
1561 18-03-2020 20:09:18 10.6 C 35 %
1562 18-03-2020 20:19:17 10.4 C 35 %
1563 18-03-2020 20:29:17 10.4 C 35 %
1564 18-03-2020 20:39:18 10 C 36 %
1565 18-03-2020 20:49:17 9.7 C 37 %
1566 18-03-2020 20:59:17 9.7 C 37 %
1567 18-03-2020 21:09:18 9.7 C 37 %
1568 18-03-2020 21:19:17 9.6 C 37 %
1569 18-03-2020 21:29:17 9.4 C 37 %
1570 18-03-2020 21:39:17 9 C 37 %
1571 18-03-2020 21:49:17 8.7 C 38 %
1572 18-03-2020 21:59:17 8.4 C 39 %
1573 18-03-2020 22:09:17 8.2 C 39 %
1574 18-03-2020 22:19:17 8.1 C 40 %
1575 18-03-2020 22:29:17 8 C 40 %
Sensor: Nr:Datum:Temp:Feuchte:
Aussen-T/F 1576 18-03-2020 22:39:17 8 C 40 %
1577 18-03-2020 22:49:17 8.1 C 40 %
1578 18-03-2020 22:59:17 8.2 C 40 %
1579 18-03-2020 23:09:18 8.3 C 40 %
1580 18-03-2020 23:19:17 8.1 C 40 %
1581 18-03-2020 23:29:17 8 C 40 %
1582 18-03-2020 23:39:18 8 C 40 %
1583 18-03-2020 23:49:18 8.4 C 40 %
1584 18-03-2020 23:59:18 8.9 C 40 %
1585 19-03-2020 00:09:17 8.9 C 39 %
1586 19-03-2020 00:19:18 8.9 C 38 %
1587 19-03-2020 00:29:18 9 C 38 %
1588 19-03-2020 00:39:18 9 C 38 %
1589 19-03-2020 00:49:17 9.1 C 38 %
1590 19-03-2020 00:59:17 9.1 C 38 %
1591 19-03-2020 01:09:18 9 C 38 %
1592 19-03-2020 01:19:17 9.1 C 38 %
1593 19-03-2020 01:29:17 9 C 38 %
1594 19-03-2020 01:39:17 9 C 38 %
1595 19-03-2020 01:49:17 8.9 C 38 %
1596 19-03-2020 01:59:17 8.8 C 39 %
1597 19-03-2020 02:09:18 8.7 C 39 %
1598 19-03-2020 02:19:17 8.7 C 39 %
1599 19-03-2020 02:29:17 8.6 C 39 %
1600 19-03-2020 02:39:17 8.5 C 39 %
Sensor: Nr:Datum:Temp:Feuchte:
Aussen-T/F 1601 19-03-2020 02:49:18 8.5 C 39 %
1602 19-03-2020 02:59:18 8.5 C 39 %
1603 19-03-2020 03:09:18 8.5 C 39 %
1604 19-03-2020 03:19:18 8.6 C 39 %
1605 19-03-2020 03:29:18 8.5 C 39 %
1606 19-03-2020 03:39:17 8.5 C 39 %
1607 19-03-2020 03:49:18 8.4 C 39 %
1608 19-03-2020 03:59:18 8.4 C 40 %
1609 19-03-2020 04:09:18 8.4 C 40 %
1610 19-03-2020 04:19:17 8.5 C 40 %
1611 19-03-2020 04:29:17 8.5 C 39 %
1612 19-03-2020 04:39:17 8.5 C 39 %
1613 19-03-2020 04:49:18 8.5 C 39 %
1614 19-03-2020 04:59:18 8.5 C 39 %
1615 19-03-2020 05:09:18 8.6 C 39 %
1616 19-03-2020 05:19:18 8.9 C 38 %
1617 19-03-2020 05:29:18 8.7 C 39 %
1618 19-03-2020 05:39:18 8.6 C 39 %
1619 19-03-2020 05:49:17 8.5 C 39 %
1620 19-03-2020 05:59:18 8.4 C 39 %
1621 19-03-2020 06:09:18 8.4 C 39 %
1622 19-03-2020 06:19:17 8.3 C 40 %
1623 19-03-2020 06:29:17 8.2 C 39 %
1624 19-03-2020 06:39:17 8.1 C 40 %
1625 19-03-2020 06:49:17 8.1 C 40 %
Sensor: Nr:Datum:Temp:Feuchte:
Aussen-T/F 1626 19-03-2020 06:59:17 8.2 C 40 %
1627 19-03-2020 07:09:17 8.2 C 40 %
1628 19-03-2020 07:19:17 8.5 C 40 %
1629 19-03-2020 07:29:17 8.7 C 39 %
1630 19-03-2020 07:39:18 8.9 C 39 %
1631 19-03-2020 07:49:18 9.1 C 38 %
1632 19-03-2020 07:59:18 9.4 C 38 %
1633 19-03-2020 08:09:18 9.7 C 38 %
1634 19-03-2020 08:19:17 9.9 C 37 %
1635 19-03-2020 08:29:17 9.9 C 37 %
1636 19-03-2020 08:39:17 10.5 C 36 %
1637 19-03-2020 08:49:18 10.4 C 36 %
1638 19-03-2020 08:59:18 10.2 C 36 %
1639 19-03-2020 09:09:17 11.2 C 35 %
1640 19-03-2020 09:19:17 11.7 C 35 %
1641 19-03-2020 09:29:17 11.5 C 35 %
1642 19-03-2020 09:39:18 11.8 C 35 %
1643 19-03-2020 09:49:17 11.6 C 35 %
1644 19-03-2020 09:59:17 12.4 C 33 %
1645 19-03-2020 10:09:18 12.3 C 32 %
1646 19-03-2020 10:19:18 13.1 C 31 %
1647 19-03-2020 10:29:18 13.5 C 30 %
1648 19-03-2020 10:39:17 13.9 C 31 %
1649 19-03-2020 10:49:17 14.2 C 30 %
1650 19-03-2020 10:59:17 15.4 C 29 %
Sensor: Nr:Datum:Temp:Feuchte:
Aussen-T/F 1651 19-03-2020 11:09:17 15.5 C 29 %
1652 19-03-2020 11:19:17 16.4 C 26 %
1653 19-03-2020 11:29:17 17.7 C 26 %
1654 19-03-2020 11:39:17 18.5 C 24 %
1655 19-03-2020 11:49:17 15.8 C 26 %
1656 19-03-2020 11:59:17 15 C 28 %
1657 19-03-2020 12:09:17 15.2 C 28 %
1658 19-03-2020 12:19:17 15.5 C 28 %
1659 19-03-2020 12:29:17 16.8 C 26 %
1660 19-03-2020 12:39:18 18.1 C 22 %
1661 19-03-2020 12:49:17 18.6 C 20 %
1662 19-03-2020 12:59:17 17.9 C 20 %
1663 19-03-2020 13:09:18 20.4 C 20 %
1664 19-03-2020 13:19:18 25.8 C 20 %
1665 19-03-2020 13:29:18 25.6 C 20 %
1666 19-03-2020 13:39:18 19.7 C 20 %
1667 19-03-2020 13:49:17 18.8 C 20 %
1668 19-03-2020 13:59:17 18.2 C 20 %
1669 19-03-2020 14:09:17 18.7 C 20 %
1670 19-03-2020 14:19:17 18.9 C 20 %
1671 19-03-2020 14:29:17 18.8 C 20 %
1672 19-03-2020 14:39:17 18.9 C 20 %
1673 19-03-2020 14:49:17 19.3 C 20 %
1674 19-03-2020 14:59:17 19.1 C 20 %
1675 19-03-2020 15:09:18 18.5 C 20 %
Sensor: Nr:Datum:Temp:Feuchte:
Aussen-T/F 1676 19-03-2020 15:19:18 19.1 C 20 %
1677 19-03-2020 15:29:18 19.3 C 20 %
1678 19-03-2020 15:39:18 19.8 C 20 %
1679 19-03-2020 15:49:17 21.8 C 20 %
1680 19-03-2020 15:59:18 19.5 C 20 %
1681 19-03-2020 16:09:18 19.1 C 20 %
1682 19-03-2020 16:20:17 19.1 C 20 %
1683 19-03-2020 16:29:17 19.1 C 20 %
1684 19-03-2020 16:39:17 19.1 C 20 %
1685 19-03-2020 16:49:17 19.1 C 20 %
1686 19-03-2020 16:59:17 18.4 C 20 %
1687 19-03-2020 17:09:18 17.6 C 20 %
1688 19-03-2020 17:19:18 17.3 C 20 %
1689 19-03-2020 17:29:18 17 C 20 %
1690 19-03-2020 17:39:18 16.8 C 20 %
1691 19-03-2020 17:49:18 16.9 C 20 %
1692 19-03-2020 17:59:18 16.7 C 20 %
1693 19-03-2020 18:09:18 16.3 C 20 %
1694 19-03-2020 18:20:17 15.7 C 23 %
1695 19-03-2020 18:30:17 13.9 C 29 %
1696 19-03-2020 18:40:17 13.5 C 30 %
1697 19-03-2020 18:50:17 12.8 C 31 %
1698 19-03-2020 18:59:18 12.7 C 31 %
1699 19-03-2020 19:09:18 12.3 C 31 %
1700 19-03-2020 19:20:17 12.2 C 31 %
Sensor: Nr:Datum:Temp:Feuchte:
Aussen-T/F 1701 19-03-2020 19:30:17 11.9 C 32 %
1702 19-03-2020 19:40:17 11.7 C 32 %
1703 19-03-2020 19:50:17 11.7 C 33 %
1704 19-03-2020 19:59:17 11.7 C 33 %
1705 19-03-2020 20:09:17 11.7 C 33 %
1706 19-03-2020 20:29:17 11.5 C 34 %
1707 19-03-2020 20:29:17 11.6 C 34 %
1708 19-03-2020 20:39:17 12 C 33 %
1709 19-03-2020 20:49:17 11.8 C 34 %
1710 19-03-2020 20:59:17 11.5 C 35 %
1711 19-03-2020 21:09:18 12 C 33 %
1712 19-03-2020 21:20:17 11.4 C 35 %
1713 19-03-2020 21:30:17 11.3 C 35 %
1714 19-03-2020 21:40:17 10.3 C 36 %
1715 19-03-2020 21:50:17 10.7 C 36 %
1716 19-03-2020 21:59:18 10.6 C 36 %
1717 19-03-2020 22:09:18 10.1 C 37 %
1718 19-03-2020 22:19:18 9.7 C 38 %
1719 19-03-2020 22:29:18 9.8 C 38 %
1720 19-03-2020 22:39:18 9.5 C 39 %
1721 19-03-2020 22:49:18 9.4 C 39 %
1722 19-03-2020 22:59:18 9.5 C 38 %
1723 19-03-2020 23:09:18 9.5 C 38 %
1724 19-03-2020 23:20:17 9.4 C 39 %
1725 19-03-2020 23:30:17 9.2 C 39 %
Sensor: Nr:Datum:Temp:Feuchte:
Aussen-T/F 1726 19-03-2020 23:40:17 9.6 C 38 %
1727 19-03-2020 23:50:17 9.1 C 39 %
1728 19-03-2020 23:59:18 8.7 C 40 %
1729 20-03-2020 00:09:18 8.6 C 40 %
1730 20-03-2020 00:19:18 9.3 C 39 %
1731 20-03-2020 00:29:18 9.1 C 39 %
1732 20-03-2020 00:39:18 9 C 39 %
1733 20-03-2020 00:59:17 8.8 C 40 %
1734 20-03-2020 01:00:18 8.8 C 40 %
1735 20-03-2020 01:10:18 8.7 C 40 %
1736 20-03-2020 01:20:17 8.7 C 40 %
1737 20-03-2020 01:30:18 8.6 C 40 %
1738 20-03-2020 01:40:18 8.4 C 40 %
1739 20-03-2020 01:50:17 8.5 C 40 %
1740 20-03-2020 02:00:18 8.3 C 40 %
1741 20-03-2020 02:10:18 7.9 C 40 %
1742 20-03-2020 02:20:17 7.6 C 41 %
1743 20-03-2020 02:30:17 7.4 C 41 %
1744 20-03-2020 02:40:17 7.4 C 41 %
1745 20-03-2020 02:50:17 7.1 C 41 %
1746 20-03-2020 03:00:17 7.1 C 42 %
1747 20-03-2020 03:10:17 7.1 C 42 %
1748 20-03-2020 03:20:17 7.1 C 42 %
1749 20-03-2020 03:30:18 7.2 C 42 %
1750 20-03-2020 03:40:18 7.3 C 42 %
Sensor: Nr:Datum:Temp:Feuchte:
Aussen-T/F 1751 20-03-2020 03:50:17 7.5 C 42 %
1752 20-03-2020 04:00:18 7.5 C 42 %
1753 20-03-2020 04:10:18 7.7 C 42 %
1754 20-03-2020 04:20:18 7.6 C 41 %
1755 20-03-2020 04:30:18 7.4 C 42 %
1756 20-03-2020 04:40:18 7.2 C 42 %
1757 20-03-2020 04:50:17 7 C 42 %
1758 20-03-2020 05:00:18 6.9 C 43 %
1759 20-03-2020 05:10:18 6.8 C 43 %
1760 20-03-2020 05:20:17 6.5 C 43 %
1761 20-03-2020 05:30:17 6.2 C 43 %
1762 20-03-2020 05:40:17 5.9 C 44 %
1763 20-03-2020 05:50:17 5.6 C 44 %
1764 20-03-2020 06:00:17 5.4 C 45 %
1765 20-03-2020 06:10:17 5.2 C 45 %
1766 20-03-2020 06:20:17 5 C 45 %
1767 20-03-2020 06:30:17 5.1 C 46 %
1768 20-03-2020 06:40:17 5 C 46 %
1769 20-03-2020 06:50:17 5 C 46 %
1770 20-03-2020 07:00:17 5.1 C 46 %
1771 20-03-2020 07:10:17 5.3 C 46 %
1772 20-03-2020 07:20:17 5.5 C 46 %
1773 20-03-2020 07:30:17 5.6 C 46 %
1774 20-03-2020 07:40:17 5.7 C 46 %
1775 20-03-2020 07:50:18 5.8 C 46 %
Sensor: Nr:Datum:Temp:Feuchte:
Aussen-T/F 1776 20-03-2020 08:00:17 6.3 C 46 %
1777 20-03-2020 08:10:17 6.9 C 45 %
1778 20-03-2020 08:20:17 7.2 C 43 %
1779 20-03-2020 08:30:17 7.1 C 43 %
1780 20-03-2020 08:40:17 7.1 C 43 %
1781 20-03-2020 08:50:17 7.3 C 43 %
1782 20-03-2020 09:00:17 8 C 43 %
1783 20-03-2020 09:10:17 8.2 C 42 %
1784 20-03-2020 09:20:17 9.6 C 42 %
1785 20-03-2020 09:30:17 10 C 40 %
1786 20-03-2020 09:40:17 10.2 C 40 %
1787 20-03-2020 09:50:17 10.5 C 39 %
1788 20-03-2020 10:00:18 10.8 C 39 %
1789 20-03-2020 10:10:18 11.2 C 38 %
1790 20-03-2020 10:20:18 11.1 C 37 %
1791 20-03-2020 10:30:18 11 C 37 %
1792 20-03-2020 10:40:18 11.5 C 37 %
1793 20-03-2020 10:50:18 12.6 C 36 %
1794 20-03-2020 11:00:17 13.1 C 35 %
1795 20-03-2020 11:10:18 13.1 C 35 %
1796 20-03-2020 11:20:18 14.2 C 33 %
1797 20-03-2020 11:30:18 14.5 C 32 %
1798 20-03-2020 11:40:18 15.3 C 31 %
1799 20-03-2020 11:50:18 14.6 C 32 %
1800 20-03-2020 12:00:17 15.6 C 31 %
Sensor: Nr:Datum:Temp:Feuchte:
Aussen-T/F 1801 20-03-2020 12:10:17 15.4 C 30 %
1802 20-03-2020 12:20:17 15.6 C 30 %
1803 20-03-2020 12:30:18 14.4 C 31 %
1804 20-03-2020 12:40:18 14.9 C 31 %
1805 20-03-2020 12:50:18 14.9 C 31 %
1806 20-03-2020 13:00:18 14.9 C 31 %
1807 20-03-2020 13:10:18 14.9 C 31 %
1808 20-03-2020 13:20:18 14.9 C 31 %
1809 20-03-2020 13:30:18 14.9 C 31 %
1810 20-03-2020 13:40:18 14.9 C 31 %
1811 20-03-2020 13:50:17 16.4 C 26 %
1812 20-03-2020 14:00:17 16.2 C 27 %
1813 20-03-2020 14:10:17 16.6 C 26 %
1814 20-03-2020 14:20:17 16.2 C 27 %
1815 20-03-2020 14:30:18 17.4 C 26 %
1816 20-03-2020 14:40:18 17.3 C 26 %
1817 20-03-2020 14:50:18 17.9 C 25 %
1818 20-03-2020 15:00:17 17.9 C 25 %
1819 20-03-2020 15:10:17 18.1 C 25 %
1820 20-03-2020 15:20:17 17 C 25 %
1821 20-03-2020 15:30:18 17.9 C 25 %
1822 20-03-2020 15:40:18 18.5 C 25 %
1823 20-03-2020 15:50:18 17 C 25 %
1824 20-03-2020 16:00:17 16.2 C 26 %
1825 20-03-2020 16:10:17 16.1 C 26 %
Sensor: Nr:Datum:Temp:Feuchte:
Aussen-T/F 1826 20-03-2020 16:20:17 15.5 C 26 %
1827 20-03-2020 16:30:18 15.8 C 26 %
1828 20-03-2020 16:40:18 15.3 C 26 %
1829 20-03-2020 16:50:18 17 C 25 %
1830 20-03-2020 17:00:18 16.1 C 26 %
1831 20-03-2020 17:10:18 15.2 C 27 %
1832 20-03-2020 17:20:18 14.3 C 28 %
1833 20-03-2020 17:30:18 13.9 C 30 %
1834 20-03-2020 17:40:18 12.8 C 31 %
1835 20-03-2020 17:50:17 12.5 C 31 %
1836 20-03-2020 18:00:17 12.4 C 32 %
1837 20-03-2020 18:10:17 11.9 C 33 %
1838 20-03-2020 18:20:17 11.8 C 34 %
1839 20-03-2020 18:30:17 11.6 C 34 %
1840 20-03-2020 18:40:17 11.6 C 34 %
1841 20-03-2020 18:50:18 11.5 C 34 %
1842 20-03-2020 19:00:17 11.5 C 34 %
1843 20-03-2020 19:10:17 11.3 C 34 %
1844 20-03-2020 19:20:17 11.1 C 34 %
1845 20-03-2020 19:30:17 11 C 35 %
1846 20-03-2020 19:40:17 10.7 C 35 %
1847 20-03-2020 19:50:17 10.6 C 35 %
1848 20-03-2020 20:00:17 10.4 C 35 %
1849 20-03-2020 20:10:17 10.2 C 35 %
1850 20-03-2020 20:20:17 10.3 C 35 %
Sensor: Nr:Datum:Temp:Feuchte:
Aussen-T/F 1851 20-03-2020 20:30:17 10.3 C 35 %
1852 20-03-2020 20:40:17 10.2 C 35 %
1853 20-03-2020 20:50:18 10.3 C 35 %
1854 20-03-2020 21:00:18 10.1 C 35 %
1855 20-03-2020 21:10:18 9.9 C 35 %
1856 20-03-2020 21:20:17 9.5 C 35 %
1857 20-03-2020 21:30:17 9.2 C 35 %
1858 20-03-2020 21:40:17 9.1 C 35 %
1859 20-03-2020 21:50:17 8.7 C 36 %
1860 20-03-2020 22:00:17 8.5 C 36 %
1861 20-03-2020 22:10:17 8.4 C 36 %
1862 20-03-2020 22:20:18 8.3 C 36 %
1863 20-03-2020 22:30:17 8.2 C 36 %
1864 20-03-2020 22:40:18 8.1 C 36 %
1865 20-03-2020 22:50:17 8.1 C 36 %
1866 20-03-2020 23:00:18 8 C 35 %
1867 20-03-2020 23:10:18 7.9 C 36 %
1868 20-03-2020 23:20:17 7.9 C 36 %
1869 20-03-2020 23:30:18 7.9 C 35 %
1870 20-03-2020 23:40:18 7.8 C 35 %
1871 20-03-2020 23:50:18 7.7 C 35 %
1872 21-03-2020 00:00:17 7.6 C 34 %
1873 21-03-2020 00:10:17 7.6 C 34 %
1874 21-03-2020 00:20:17 7.4 C 34 %
1875 21-03-2020 00:30:17 7.3 C 34 %
Sensor: Nr:Datum:Temp:Feuchte:
Aussen-T/F 1876 21-03-2020 00:40:17 7.3 C 34 %
1877 21-03-2020 00:50:17 7.3 C 34 %
1878 21-03-2020 01:00:17 7.2 C 33 %
1879 21-03-2020 01:10:17 7.1 C 33 %
1880 21-03-2020 01:20:17 6.8 C 35 %
1881 21-03-2020 01:30:18 6.5 C 35 %
1882 21-03-2020 01:40:18 6.2 C 36 %
1883 21-03-2020 01:50:17 5.9 C 38 %
1884 21-03-2020 02:00:18 5.6 C 39 %
1885 21-03-2020 02:10:18 5.3 C 40 %
1886 21-03-2020 02:20:17 5.1 C 41 %
1887 21-03-2020 02:30:18 4.9 C 43 %
1888 21-03-2020 02:40:18 4.9 C 43 %
1889 21-03-2020 02:50:18 4.6 C 43 %
1890 21-03-2020 03:00:17 4.5 C 43 %
1891 21-03-2020 03:10:17 4.4 C 44 %
1892 21-03-2020 03:20:17 4.5 C 45 %
1893 21-03-2020 03:30:18 4.5 C 45 %
1894 21-03-2020 03:40:18 4.4 C 45 %
1895 21-03-2020 03:50:17 4.4 C 45 %
1896 21-03-2020 04:00:18 4.3 C 45 %
1897 21-03-2020 04:10:18 4.2 C 45 %
1898 21-03-2020 04:20:17 4.1 C 45 %
1899 21-03-2020 04:30:18 4.1 C 45 %
1900 21-03-2020 04:40:18 4 C 45 %
Sensor: Nr:Datum:Temp:Feuchte:
Aussen-T/F 1901 21-03-2020 04:50:18 3.9 C 46 %
1902 21-03-2020 05:00:18 3.9 C 46 %
1903 21-03-2020 05:10:18 4 C 46 %
1904 21-03-2020 05:20:18 3.9 C 47 %
1905 21-03-2020 05:30:18 3.9 C 47 %
1906 21-03-2020 05:40:18 3.9 C 47 %
1907 21-03-2020 05:50:17 4 C 46 %
1908 21-03-2020 06:00:18 4 C 47 %
1909 21-03-2020 06:10:18 3.9 C 47 %
1910 21-03-2020 06:20:17 4 C 47 %
1911 21-03-2020 06:30:18 4 C 47 %
1912 21-03-2020 06:40:18 4 C 47 %
1913 21-03-2020 06:50:17 4 C 47 %
1914 21-03-2020 07:00:17 4.1 C 47 %
1915 21-03-2020 07:10:18 4.1 C 47 %
1916 21-03-2020 07:20:18 4.1 C 47 %
1917 21-03-2020 07:30:18 4.2 C 47 %
1918 21-03-2020 07:40:18 4.3 C 47 %
1919 21-03-2020 07:50:17 4.3 C 47 %
1920 21-03-2020 08:00:18 4.4 C 47 %
1921 21-03-2020 08:10:18 4.5 C 47 %
1922 21-03-2020 08:20:17 4.5 C 46 %
1923 21-03-2020 08:30:17 4.6 C 46 %
1924 21-03-2020 08:40:17 4.7 C 46 %
1925 21-03-2020 08:50:18 4.8 C 46 %
Sensor: Nr:Datum:Temp:Feuchte:
Aussen-T/F 1926 21-03-2020 09:00:18 4.7 C 46 %
1927 21-03-2020 09:10:18 4.6 C 45 %
1928 21-03-2020 09:20:18 5.2 C 43 %
1929 21-03-2020 09:30:18 5.6 C 42 %
1930 21-03-2020 09:40:18 5.8 C 41 %
1931 21-03-2020 09:50:17 6 C 41 %
1932 21-03-2020 10:00:17 6.2 C 41 %
1933 21-03-2020 10:10:18 6.4 C 39 %
1934 21-03-2020 10:20:18 6.5 C 40 %
1935 21-03-2020 10:30:18 6.7 C 39 %
1936 21-03-2020 10:40:18 6.7 C 38 %
1937 21-03-2020 10:50:17 6.4 C 39 %
1938 21-03-2020 11:00:17 6.5 C 37 %
1939 21-03-2020 11:10:18 7.1 C 36 %
1940 21-03-2020 11:20:18 7.3 C 36 %
1941 21-03-2020 11:30:18 8.1 C 34 %
1942 21-03-2020 11:40:18 8 C 34 %
1943 21-03-2020 11:50:18 8.3 C 32 %
1944 21-03-2020 12:00:18 7.8 C 32 %
1945 21-03-2020 12:10:18 7.6 C 33 %
1946 21-03-2020 12:20:17 7.9 C 31 %
1947 21-03-2020 12:30:17 8.7 C 32 %
1948 21-03-2020 12:40:17 8.2 C 30 %
1949 21-03-2020 12:50:17 7.8 C 31 %
1950 21-03-2020 13:00:17 7.9 C 30 %
Sensor: Nr:Datum:Temp:Feuchte:
Aussen-T/F 1951 21-03-2020 13:10:17 8.7 C 30 %
1952 21-03-2020 13:20:18 8.9 C 28 %
1953 21-03-2020 13:30:18 8.5 C 28 %
1954 21-03-2020 13:40:18 8.2 C 27 %
1955 21-03-2020 13:50:17 8.4 C 27 %
1956 21-03-2020 14:00:18 8.6 C 27 %
1957 21-03-2020 14:10:18 9.1 C 26 %
1958 21-03-2020 14:20:18 8.7 C 27 %
1959 21-03-2020 14:30:18 9.1 C 25 %
1960 21-03-2020 14:40:18 11.1 C 24 %
1961 21-03-2020 14:50:17 9.8 C 23 %
1962 21-03-2020 15:00:18 11 C 20 %
1963 21-03-2020 15:10:18 10.1 C 20 %
1964 21-03-2020 15:20:17 11.2 C 20 %
1965 21-03-2020 15:30:17 11.7 C 20 %
1966 21-03-2020 15:40:17 9.4 C 20 %
1967 21-03-2020 15:50:17 8.6 C 20 %
1968 21-03-2020 16:00:18 9.4 C 20 %
1969 21-03-2020 16:10:18 9.5 C 20 %
1970 21-03-2020 16:20:17 12.1 C 20 %
1971 21-03-2020 16:30:17 12 C 20 %
1972 21-03-2020 16:40:17 13.3 C 20 %
1973 21-03-2020 16:50:17 10.9 C 20 %
1974 21-03-2020 17:00:17 9.2 C 20 %
1975 21-03-2020 17:10:17 8.9 C 20 %
Sensor: Nr:Datum:Temp:Feuchte:
Aussen-T/F 1976 21-03-2020 17:20:17 8.3 C 20 %
1977 21-03-2020 17:30:18 7.8 C 20 %
1978 21-03-2020 17:40:18 7.8 C 20 %
1979 21-03-2020 17:50:17 7.5 C 20 %
1980 21-03-2020 18:00:17 7 C 20 %
1981 21-03-2020 18:10:17 6.9 C 20 %
1982 21-03-2020 18:20:17 6.6 C 21 %
1983 21-03-2020 18:30:17 6.4 C 23 %
1984 21-03-2020 18:40:17 5.9 C 25 %
1985 21-03-2020 18:50:17 5.5 C 27 %
1986 21-03-2020 19:00:17 5.5 C 26 %
1987 21-03-2020 19:10:17 5.1 C 28 %
1988 21-03-2020 19:20:17 4.7 C 30 %
1989 21-03-2020 19:30:18 4.4 C 31 %
1990 21-03-2020 19:40:18 4.5 C 30 %
1991 21-03-2020 19:50:17 4.4 C 29 %
1992 21-03-2020 20:00:18 4.1 C 30 %
1993 21-03-2020 20:10:18 3.7 C 31 %
1994 21-03-2020 20:20:18 3.2 C 33 %
1995 21-03-2020 20:30:18 3.7 C 32 %
1996 21-03-2020 20:40:18 3.9 C 30 %
1997 21-03-2020 20:50:17 3.6 C 31 %
1998 21-03-2020 21:00:18 3.3 C 32 %
1999 21-03-2020 21:10:18 3 C 32 %
2000 21-03-2020 21:20:18 3.4 C 32 %
Sensor: Nr:Datum:Temp:Feuchte:
Aussen-T/F 2001 21-03-2020 21:30:18 3.1 C 31 %
2002 21-03-2020 21:40:18 2.9 C 32 %
2003 21-03-2020 21:50:17 2.6 C 33 %
2004 21-03-2020 22:00:17 1.9 C 36 %
2005 21-03-2020 22:10:17 2.3 C 34 %
2006 21-03-2020 22:20:17 3 C 32 %
2007 21-03-2020 22:30:18 2.7 C 32 %
2008 21-03-2020 22:40:18 2.3 C 33 %
2009 21-03-2020 22:50:18 2.7 C 32 %
2010 21-03-2020 23:00:18 2 C 34 %
2011 21-03-2020 23:10:18 2.2 C 33 %
2012 21-03-2020 23:20:18 1.6 C 35 %
2013 21-03-2020 23:30:18 1.7 C 35 %
2014 21-03-2020 23:40:18 1.8 C 35 %
2015 21-03-2020 23:50:17 1.7 C 35 %
2016 22-03-2020 00:00:18 1.4 C 35 %
2017 22-03-2020 00:10:18 1.5 C 35 %
2018 22-03-2020 00:20:17 0.9 C 37 %
2019 22-03-2020 00:30:17 0.7 C 38 %
2020 22-03-2020 00:40:17 1.2 C 36 %
2021 22-03-2020 00:50:17 0.9 C 37 %
2022 22-03-2020 01:00:18 1.5 C 35 %
2023 22-03-2020 01:10:18 1.5 C 35 %
2024 22-03-2020 01:20:18 1.1 C 35 %
2025 22-03-2020 01:30:18 1.1 C 35 %
Sensor: Nr:Datum:Temp:Feuchte:
Aussen-T/F 2026 22-03-2020 01:40:18 0.9 C 36 %
2027 22-03-2020 01:50:18 1 C 35 %
2028 22-03-2020 02:00:18 1 C 35 %
2029 22-03-2020 02:10:18 0.1 C 38 %
2030 22-03-2020 02:20:17 0.3 C 38 %
2031 22-03-2020 02:30:18 0.5 C 37 %
2032 22-03-2020 02:40:18 0.5 C 37 %
2033 22-03-2020 02:50:18 0.4 C 37 %
2034 22-03-2020 03:00:18 0.2 C 37 %
2035 22-03-2020 03:10:18 0.7 C 37 %
2036 22-03-2020 03:20:18 -0.4 C 38 %
2037 22-03-2020 03:30:18 -0.1 C 38 %
2038 22-03-2020 03:40:18 -0.4 C 39 %
2039 22-03-2020 03:50:17 -0.3 C 39 %
2040 22-03-2020 04:00:17 -0.2 C 38 %
2041 22-03-2020 04:10:17 0 C 37 %
2042 22-03-2020 04:20:17 -0.4 C 38 %
2043 22-03-2020 04:30:17 0.3 C 37 %
2044 22-03-2020 04:40:17 0.1 C 37 %
2045 22-03-2020 04:50:17 -0.2 C 38 %
2046 22-03-2020 05:00:18 0.1 C 37 %
2047 22-03-2020 05:10:18 -0.3 C 37 %
2048 22-03-2020 05:20:17 -0.4 C 37 %
2049 22-03-2020 05:30:18 -0.5 C 38 %
2050 22-03-2020 05:40:18 -0.7 C 38 %
Sensor: Nr:Datum:Temp:Feuchte:
Aussen-T/F 2051 22-03-2020 05:50:17 -1 C 39 %
2052 22-03-2020 06:00:17 -1.1 C 39 %
2053 22-03-2020 06:10:17 -0.8 C 39 %
2054 22-03-2020 06:20:17 0.1 C 37 %
2055 22-03-2020 06:30:17 -0.3 C 37 %
2056 22-03-2020 06:40:17 -0.4 C 37 %
2057 22-03-2020 06:50:18 0 C 36 %
2058 22-03-2020 07:00:18 -0.3 C 37 %
2059 22-03-2020 07:10:18 -0.2 C 37 %
2060 22-03-2020 07:20:18 -0.4 C 37 %
2061 22-03-2020 07:30:18 -0.1 C 36 %
2062 22-03-2020 07:40:18 -0.2 C 37 %
2063 22-03-2020 07:50:17 -0.1 C 36 %
2064 22-03-2020 08:00:18 -0.1 C 36 %
2065 22-03-2020 08:10:18 0.3 C 36 %
2066 22-03-2020 08:20:18 0.3 C 35 %
2067 22-03-2020 08:30:18 0.5 C 35 %
2068 22-03-2020 08:40:18 0.8 C 35 %
2069 22-03-2020 08:50:18 0.4 C 35 %
2070 22-03-2020 09:00:18 0.8 C 35 %
2071 22-03-2020 09:10:18 1.2 C 32 %
2072 22-03-2020 09:20:18 1.6 C 32 %
2073 22-03-2020 09:30:18 2.2 C 30 %
2074 22-03-2020 09:40:18 2.5 C 27 %
2075 22-03-2020 09:50:17 2.8 C 26 %
Sensor: Nr:Datum:Temp:Feuchte:
Aussen-T/F 2076 22-03-2020 10:00:18 3.3 C 25 %
2077 22-03-2020 10:10:18 3.6 C 25 %
2078 22-03-2020 10:20:18 3.9 C 20 %
2079 22-03-2020 10:30:18 4.4 C 20 %
2080 22-03-2020 10:40:18 4.6 C 20 %
2081 22-03-2020 10:50:17 5.2 C 20 %
2082 22-03-2020 11:00:18 5.5 C 20 %
2083 22-03-2020 11:10:18 6.3 C 20 %
2084 22-03-2020 11:20:17 6.5 C 20 %
2085 22-03-2020 11:30:18 6.7 C 20 %
2086 22-03-2020 11:40:18 6.7 C 20 %
2087 22-03-2020 11:50:17 6.5 C 20 %
2088 22-03-2020 12:00:18 7 C 20 %
2089 22-03-2020 12:10:18 7.4 C 20 %
2090 22-03-2020 12:20:18 7.3 C 20 %
2091 22-03-2020 12:30:17 6.9 C 20 %
2092 22-03-2020 12:40:17 8 C 20 %
2093 22-03-2020 12:50:18 8.5 C 20 %
2094 22-03-2020 13:00:18 10.1 C 20 %
2095 22-03-2020 13:10:18 11.1 C 20 %
2096 22-03-2020 13:20:17 11.9 C 20 %
2097 22-03-2020 13:30:18 11.6 C 20 %
2098 22-03-2020 13:40:18 10.9 C 20 %
2099 22-03-2020 13:50:18 10.3 C 20 %
2100 22-03-2020 14:00:17 9.6 C 20 %
Sensor: Nr:Datum:Temp:Feuchte:
Aussen-T/F 2101 22-03-2020 14:10:17 10.2 C 20 %
2102 22-03-2020 14:20:17 12.2 C 20 %
2103 22-03-2020 14:30:17 12.6 C 20 %
2104 22-03-2020 14:40:17 14.4 C 20 %
2105 22-03-2020 14:50:17 14.4 C 20 %
2106 22-03-2020 15:00:18 15 C 20 %
2107 22-03-2020 15:10:18 14.4 C 20 %
2108 22-03-2020 15:20:17 14.7 C 20 %
2109 22-03-2020 15:30:17 13.6 C 20 %
2110 22-03-2020 15:40:17 13.7 C 20 %
2111 22-03-2020 15:50:18 15.4 C 20 %
2112 22-03-2020 16:00:18 16.2 C 20 %
2113 22-03-2020 16:10:18 14.9 C 20 %
2114 22-03-2020 16:20:18 14.1 C 20 %
2115 22-03-2020 16:30:18 13.3 C 20 %
2116 22-03-2020 16:40:18 13.2 C 20 %
2117 22-03-2020 16:50:17 11.7 C 20 %
2118 22-03-2020 17:00:17 10.7 C 20 %
2119 22-03-2020 17:10:17 9.9 C 20 %
2120 22-03-2020 17:20:17 9.7 C 20 %
2121 22-03-2020 17:30:17 9.8 C 20 %
2122 22-03-2020 17:40:17 9.5 C 20 %
2123 22-03-2020 17:50:17 8.9 C 20 %
2124 22-03-2020 18:00:18 8.6 C 20 %
2125 22-03-2020 18:10:18 8.4 C 20 %
Sensor: Nr:Datum:Temp:Feuchte:
Aussen-T/F 2126 22-03-2020 18:20:17 7.9 C 20 %
2127 22-03-2020 18:30:17 7.5 C 20 %
2128 22-03-2020 18:40:17 7 C 20 %
2129 22-03-2020 18:50:17 6.5 C 20 %
2130 22-03-2020 19:00:17 5.6 C 20 %
2131 22-03-2020 19:10:17 4.9 C 21 %
2132 22-03-2020 19:20:17 5.2 C 20 %
2133 22-03-2020 19:30:17 4.3 C 26 %
2134 22-03-2020 19:40:17 3.8 C 27 %
2135 22-03-2020 19:50:18 3.7 C 28 %
2136 22-03-2020 20:00:18 3.6 C 28 %
2137 22-03-2020 20:10:18 3.6 C 27 %
2138 22-03-2020 20:20:17 3.6 C 26 %
2139 22-03-2020 20:30:17 3.2 C 26 %
2140 22-03-2020 20:40:17 3 C 26 %
2141 22-03-2020 20:50:17 2.5 C 30 %
2142 22-03-2020 21:00:17 2.9 C 26 %
2143 22-03-2020 21:10:17 2.7 C 27 %
2144 22-03-2020 21:20:17 2.3 C 30 %
2145 22-03-2020 21:30:17 2.2 C 29 %
2146 22-03-2020 21:40:17 1.8 C 30 %
2147 22-03-2020 21:50:18 1.5 C 31 %
2148 22-03-2020 22:00:18 2 C 30 %
2149 22-03-2020 22:10:18 2.5 C 26 %
2150 22-03-2020 22:20:17 1.8 C 30 %
Sensor: Nr:Datum:Temp:Feuchte:
Aussen-T/F 2151 22-03-2020 22:30:17 1.5 C 29 %
2152 22-03-2020 22:40:17 1.3 C 31 %
2153 22-03-2020 22:50:17 1.4 C 30 %
2154 22-03-2020 23:00:17 0.7 C 33 %
2155 22-03-2020 23:10:17 1.1 C 30 %
2156 22-03-2020 23:20:17 0.8 C 32 %
2157 22-03-2020 23:30:18 0.3 C 33 %
2158 22-03-2020 23:40:18 0.3 C 34 %
2159 22-03-2020 23:50:18 0.6 C 33 %
2160 23-03-2020 00:00:18 0.4 C 34 %
2161 23-03-2020 00:10:18 0 C 33 %
2162 23-03-2020 00:20:17 -0.2 C 33 %
2163 23-03-2020 00:30:17 -0.5 C 35 %
2164 23-03-2020 00:40:17 -0.7 C 36 %
2165 23-03-2020 00:50:18 -1.1 C 36 %
2166 23-03-2020 01:00:17 -0.6 C 35 %
2167 23-03-2020 01:10:17 -0.7 C 36 %
2168 23-03-2020 01:20:17 -0.9 C 35 %
2169 23-03-2020 01:30:18 -0.8 C 35 %
2170 23-03-2020 01:40:18 -1.1 C 35 %
2171 23-03-2020 01:50:18 -0.8 C 35 %
2172 23-03-2020 02:00:18 -1.1 C 35 %
2173 23-03-2020 02:10:18 -1.4 C 35 %
2174 23-03-2020 02:20:17 -1.2 C 35 %
2175 23-03-2020 02:30:17 -1.2 C 35 %
Sensor: Nr:Datum:Temp:Feuchte:
Aussen-T/F 2176 23-03-2020 02:40:17 -1.2 C 35 %
2177 23-03-2020 02:50:17 -1.3 C 35 %
2178 23-03-2020 03:00:17 -1.6 C 35 %
2179 23-03-2020 03:10:18 -1.9 C 35 %
2180 23-03-2020 03:20:18 -1.6 C 35 %
2181 23-03-2020 03:30:18 -1.7 C 35 %
2182 23-03-2020 03:40:18 -1.9 C 35 %
2183 23-03-2020 03:50:18 -1.8 C 35 %
2184 23-03-2020 04:00:18 -1.8 C 35 %
2185 23-03-2020 04:10:18 -2.1 C 35 %
2186 23-03-2020 04:20:17 -1.9 C 35 %
2187 23-03-2020 04:30:17 -2 C 35 %
2188 23-03-2020 04:40:17 -2.1 C 35 %
2189 23-03-2020 04:50:17 -2.7 C 36 %
2190 23-03-2020 05:00:18 -2.5 C 36 %
2191 23-03-2020 05:10:18 -2.4 C 36 %
2192 23-03-2020 05:20:17 -2.3 C 36 %
2193 23-03-2020 05:30:18 -2.4 C 35 %
2194 23-03-2020 05:40:18 -2.7 C 36 %
2195 23-03-2020 05:50:17 -2.7 C 36 %
2196 23-03-2020 06:00:18 -2.6 C 36 %
2197 23-03-2020 06:10:18 -2.9 C 36 %
2198 23-03-2020 06:20:17 -2.6 C 36 %
2199 23-03-2020 06:30:18 -2.8 C 36 %
2200 23-03-2020 06:40:18 -3.2 C 36 %
Sensor: Nr:Datum:Temp:Feuchte:
Aussen-T/F 2201 23-03-2020 06:50:18 -3 C 36 %
2202 23-03-2020 07:00:18 -3 C 36 %
2203 23-03-2020 07:10:18 -3.1 C 36 %
2204 23-03-2020 07:20:18 -2.5 C 35 %
2205 23-03-2020 07:30:18 -2.7 C 36 %
2206 23-03-2020 07:40:18 -2.6 C 36 %
2207 23-03-2020 07:50:18 -1.9 C 34 %
2208 23-03-2020 08:00:18 -2 C 35 %
2209 23-03-2020 08:10:18 -1.4 C 32 %
2210 23-03-2020 08:20:17 -1.1 C 31 %
2211 23-03-2020 08:30:18 -0.2 C 27 %
2212 23-03-2020 08:40:18 -0.2 C 26 %
2213 23-03-2020 08:50:18 -0.3 C 25 %
2214 23-03-2020 09:00:18 0 C 23 %
2215 23-03-2020 09:10:18 0.2 C 23 %
2216 23-03-2020 09:20:18 0.5 C 20 %
2217 23-03-2020 09:30:17 0.7 C 20 %
2218 23-03-2020 09:40:17 1.5 C 20 %
2219 23-03-2020 09:50:18 1.8 C 20 %
2220 23-03-2020 10:00:18 2.4 C 20 %
2221 23-03-2020 10:10:18 2.7 C 20 %
2222 23-03-2020 10:20:18 3 C 20 %
2223 23-03-2020 10:30:17 3.8 C 20 %
2224 23-03-2020 10:40:17 4.1 C 20 %
2225 23-03-2020 10:50:17 4.7 C 20 %
Sensor: Nr:Datum:Temp:Feuchte:
Aussen-T/F 2226 23-03-2020 11:00:17 5.5 C 20 %
2227 23-03-2020 11:10:17 5.5 C 20 %
2228 23-03-2020 11:20:17 6 C 20 %
2229 23-03-2020 11:30:18 6.7 C 20 %
2230 23-03-2020 11:40:18 6.2 C 20 %
2231 23-03-2020 11:50:17 6.3 C 20 %
2232 23-03-2020 12:00:18 7 C 20 %
2233 23-03-2020 12:10:18 7.4 C 20 %
2234 23-03-2020 12:20:18 7.8 C 20 %
2235 23-03-2020 12:30:18 7.5 C 20 %
2236 23-03-2020 12:40:18 8.1 C 20 %
2237 23-03-2020 12:50:18 8.7 C 20 %
2238 23-03-2020 13:00:17 10.4 C 20 %
2239 23-03-2020 13:10:17 10.7 C 20 %
2240 23-03-2020 13:20:17 11.9 C 20 %
2241 23-03-2020 13:30:17 11.4 C 20 %
2242 23-03-2020 13:40:17 10 C 20 %
2243 23-03-2020 13:50:17 9.8 C 20 %
2244 23-03-2020 14:00:18 9.2 C 20 %
2245 23-03-2020 14:10:18 10.5 C 20 %
2246 23-03-2020 14:20:18 12.9 C 20 %
2247 23-03-2020 14:30:18 13 C 20 %
2248 23-03-2020 14:40:18 14.2 C 20 %
2249 23-03-2020 14:50:18 14.3 C 20 %
2250 23-03-2020 15:00:18 14.3 C 20 %
Sensor: Nr:Datum:Temp:Feuchte:
Aussen-T/F 2251 23-03-2020 15:10:18 14.4 C 20 %
2252 23-03-2020 15:20:17 14.7 C 20 %
2253 23-03-2020 15:30:17 13.5 C 20 %
2254 23-03-2020 15:40:17 14.4 C 20 %
2255 23-03-2020 15:50:17 14.1 C 20 %
2256 23-03-2020 16:00:17 13.8 C 20 %
2257 23-03-2020 16:10:17 14.7 C 20 %
2258 23-03-2020 16:20:17 15.3 C 20 %
2259 23-03-2020 16:30:18 14.7 C 20 %
2260 23-03-2020 16:40:18 14.8 C 20 %
2261 23-03-2020 16:50:17 11.4 C 20 %
2262 23-03-2020 17:00:18 10.1 C 20 %
2263 23-03-2020 17:10:18 9.7 C 20 %
2264 23-03-2020 17:20:18 9.4 C 20 %
2265 23-03-2020 17:30:18 9 C 20 %
2266 23-03-2020 17:40:18 9 C 20 %
2267 23-03-2020 17:50:17 8.6 C 20 %
2268 23-03-2020 18:00:18 8.3 C 20 %
2269 23-03-2020 18:10:18 7.6 C 20 %
2270 23-03-2020 18:20:17 7.4 C 20 %
2271 23-03-2020 18:30:18 7 C 20 %
2272 23-03-2020 18:40:18 5.3 C 20 %
2273 23-03-2020 18:50:18 4.4 C 20 %
2274 23-03-2020 19:00:18 4.2 C 20 %
2275 23-03-2020 19:10:18 4.1 C 20 %
Sensor: Nr:Datum:Temp:Feuchte:
Aussen-T/F 2276 23-03-2020 19:20:17 3.7 C 20 %
2277 23-03-2020 19:30:18 3.6 C 20 %
2278 23-03-2020 19:40:18 3.4 C 20 %
2279 23-03-2020 19:50:18 2.7 C 20 %
2280 23-03-2020 20:00:17 2.9 C 20 %
2281 23-03-2020 20:10:17 2.6 C 20 %
2282 23-03-2020 20:20:17 2.5 C 20 %
2283 23-03-2020 20:30:18 2.3 C 20 %
2284 23-03-2020 20:40:18 2.4 C 20 %
2285 23-03-2020 20:50:18 2.3 C 20 %
2286 23-03-2020 21:00:18 2.1 C 20 %
2287 23-03-2020 21:10:18 0.9 C 27 %
2288 23-03-2020 21:20:17 1 C 26 %
2289 23-03-2020 21:30:18 1.1 C 28 %
2290 23-03-2020 21:40:18 0.7 C 29 %
2291 23-03-2020 21:50:18 0.2 C 30 %
2292 23-03-2020 22:00:17 -0.4 C 31 %
2293 23-03-2020 22:10:18 -0.9 C 35 %
2294 23-03-2020 22:20:18 -0.2 C 34 %
2295 23-03-2020 22:30:18 -0.9 C 35 %
2296 23-03-2020 22:40:18 -0.9 C 35 %
2297 23-03-2020 22:50:18 -1.3 C 35 %
2298 23-03-2020 23:00:18 -1.4 C 36 %
2299 23-03-2020 23:10:18 -1.6 C 36 %
2300 23-03-2020 23:20:17 -1.7 C 36 %
Sensor: Nr:Datum:Temp:Feuchte:
Aussen-T/F 2301 23-03-2020 23:30:17 -1.7 C 37 %
2302 23-03-2020 23:40:17 -1.9 C 37 %
2303 23-03-2020 23:50:18 -1.8 C 37 %
2304 24-03-2020 00:00:18 -1.9 C 36 %
2305 24-03-2020 00:10:18 -2 C 36 %
2306 24-03-2020 00:20:17 -2.2 C 36 %
2307 24-03-2020 00:30:18 -2.4 C 37 %
2308 24-03-2020 00:40:18 -2.4 C 38 %
2309 24-03-2020 00:50:18 -2.5 C 38 %
2310 24-03-2020 01:00:18 -2.3 C 37 %
2311 24-03-2020 01:10:18 -2.6 C 37 %
2312 24-03-2020 01:20:18 -2.7 C 38 %
2313 24-03-2020 01:30:18 -2.7 C 38 %
2314 24-03-2020 01:40:18 -3 C 38 %
2315 24-03-2020 01:50:18 -2.5 C 37 %
2316 24-03-2020 02:00:18 -2.6 C 38 %
2317 24-03-2020 02:10:18 -2.8 C 38 %
2318 24-03-2020 02:20:17 -3.1 C 38 %
2319 24-03-2020 02:30:17 -3.2 C 38 %
2320 24-03-2020 02:40:17 -3.3 C 38 %
2321 24-03-2020 02:50:17 -3.2 C 38 %
2322 24-03-2020 03:00:17 -3.4 C 38 %
2323 24-03-2020 03:10:17 -3.5 C 38 %
2324 24-03-2020 03:20:17 -3.6 C 39 %
2325 24-03-2020 03:30:17 -3.6 C 38 %
Sensor: Nr:Datum:Temp:Feuchte:
Aussen-T/F 2326 24-03-2020 03:40:17 -3.7 C 38 %
2327 24-03-2020 03:50:17 -3.9 C 39 %
2328 24-03-2020 04:00:18 -3.7 C 39 %
2329 24-03-2020 04:10:18 -3.9 C 38 %
2330 24-03-2020 04:20:18 -4 C 38 %
2331 24-03-2020 04:30:18 -4 C 38 %
2332 24-03-2020 04:40:18 -4 C 38 %
2333 24-03-2020 04:50:17 -3.9 C 38 %
2334 24-03-2020 05:00:17 -4.2 C 38 %
2335 24-03-2020 05:10:17 -4.3 C 39 %
2336 24-03-2020 05:20:17 -4.2 C 38 %
2337 24-03-2020 05:30:18 -4.3 C 38 %
2338 24-03-2020 05:40:18 -4.4 C 38 %
2339 24-03-2020 05:50:18 -4.6 C 39 %
2340 24-03-2020 06:00:17 -4.7 C 39 %
2341 24-03-2020 06:10:18 -4.7 C 38 %
2342 24-03-2020 06:20:17 -4.7 C 39 %
2343 24-03-2020 06:30:18 -4.7 C 38 %
2344 24-03-2020 06:40:18 -4.6 C 39 %
2345 24-03-2020 06:50:18 -4.4 C 38 %
2346 24-03-2020 07:00:18 -4.5 C 39 %
2347 24-03-2020 07:10:18 -4.4 C 39 %
2348 24-03-2020 07:20:18 -4.3 C 39 %
2349 24-03-2020 07:30:18 -4.2 C 39 %
2350 24-03-2020 07:40:18 -4 C 39 %
Sensor: Nr:Datum:Temp:Feuchte:
Aussen-T/F 2351 24-03-2020 07:50:17 -3.8 C 39 %
2352 24-03-2020 08:00:17 -3.7 C 39 %
2353 24-03-2020 08:10:17 -3.5 C 38 %
2354 24-03-2020 08:20:17 -3.3 C 38 %
2355 24-03-2020 08:30:17 -2.5 C 38 %
2356 24-03-2020 08:40:17 -2.4 C 37 %
2357 24-03-2020 08:50:17 -2 C 37 %
2358 24-03-2020 09:00:17 -1.6 C 36 %
2359 24-03-2020 09:10:17 -0.7 C 35 %
2360 24-03-2020 09:20:17 -0.2 C 34 %
2361 24-03-2020 09:30:17 0.4 C 30 %
2362 24-03-2020 09:40:17 1 C 27 %
2363 24-03-2020 09:50:18 1.7 C 23 %
2364 24-03-2020 10:00:18 3 C 20 %
2365 24-03-2020 10:10:18 3.3 C 20 %
2366 24-03-2020 10:20:17 3.9 C 20 %
2367 24-03-2020 10:30:17 4.3 C 20 %
2368 24-03-2020 10:40:17 4.7 C 20 %
2369 24-03-2020 10:50:17 5.7 C 20 %
2370 24-03-2020 11:00:18 5.7 C 20 %
2371 24-03-2020 11:10:18 6.4 C 20 %
2372 24-03-2020 11:20:17 6.9 C 20 %
2373 24-03-2020 11:30:17 7.9 C 20 %
2374 24-03-2020 11:40:17 7.2 C 20 %
2375 24-03-2020 11:50:18 6.8 C 20 %
Sensor: Nr:Datum:Temp:Feuchte:
Aussen-T/F 2376 24-03-2020 12:00:18 7.8 C 20 %
2377 24-03-2020 12:10:18 8.6 C 20 %
2378 24-03-2020 12:20:17 8.2 C 20 %
2379 24-03-2020 12:30:17 8.2 C 20 %
2380 24-03-2020 12:40:17 9 C 20 %
2381 24-03-2020 12:50:17 9.2 C 20 %
2382 24-03-2020 13:00:18 10.4 C 20 %
2383 24-03-2020 13:10:18 11.7 C 20 %
2384 24-03-2020 13:20:17 12.5 C 20 %
2385 24-03-2020 13:30:17 13 C 20 %
2386 24-03-2020 13:40:17 11.9 C 20 %
2387 24-03-2020 13:50:18 11 C 20 %
2388 24-03-2020 14:00:17 10.8 C 20 %
2389 24-03-2020 14:10:17 11.3 C 20 %
2390 24-03-2020 14:20:17 13.7 C 20 %
2391 24-03-2020 14:30:17 12.2 C 20 %
2392 24-03-2020 14:40:17 14.4 C 20 %
2393 24-03-2020 14:50:18 13.4 C 20 %
2394 24-03-2020 15:00:18 13.5 C 20 %
2395 24-03-2020 15:10:18 14.1 C 20 %
2396 24-03-2020 15:20:18 15.3 C 20 %
2397 24-03-2020 15:30:18 14.1 C 20 %
2398 24-03-2020 15:40:18 15.4 C 20 %
2399 24-03-2020 15:50:18 14.9 C 20 %
2400 24-03-2020 16:00:18 14.8 C 20 %
Sensor: Nr:Datum:Temp:Feuchte:
Aussen-T/F 2401 24-03-2020 16:10:18 14.8 C 20 %
2402 24-03-2020 16:20:18 14.1 C 20 %
2403 24-03-2020 16:30:18 13.6 C 20 %
2404 24-03-2020 16:40:18 14.3 C 20 %
2405 24-03-2020 16:50:18 11.4 C 20 %
2406 24-03-2020 17:00:18 10.8 C 20 %
2407 24-03-2020 17:10:18 10.4 C 20 %
2408 24-03-2020 17:20:18 10.1 C 20 %
2409 24-03-2020 17:30:18 9.9 C 20 %
2410 24-03-2020 17:40:18 9.6 C 20 %
2411 24-03-2020 17:50:17 9.3 C 20 %
2412 24-03-2020 18:00:17 9 C 20 %
2413 24-03-2020 18:10:17 8.6 C 20 %
2414 24-03-2020 18:20:17 8.4 C 20 %
2415 24-03-2020 18:30:17 7.6 C 20 %
2416 24-03-2020 18:40:18 6.4 C 20 %
2417 24-03-2020 18:50:17 5.4 C 20 %
2418 24-03-2020 19:00:18 4.9 C 20 %
2419 24-03-2020 19:10:18 4.6 C 20 %
2420 24-03-2020 19:20:18 4.5 C 20 %
2421 24-03-2020 19:30:18 4.1 C 20 %
2422 24-03-2020 19:40:18 3.9 C 20 %
2423 24-03-2020 19:50:17 3.6 C 20 %
2424 24-03-2020 20:00:18 3.6 C 20 %
2425 24-03-2020 20:10:18 3.5 C 20 %
Sensor: Nr:Datum:Temp:Feuchte:
Aussen-T/F 2426 24-03-2020 20:20:17 3.4 C 20 %
2427 24-03-2020 20:30:18 3.4 C 20 %
2428 24-03-2020 20:40:18 2.9 C 20 %
2429 24-03-2020 20:50:18 2.7 C 20 %
2430 24-03-2020 21:00:18 2.7 C 20 %
2431 24-03-2020 21:10:18 2.6 C 20 %
2432 24-03-2020 21:20:17 2.3 C 20 %
2433 24-03-2020 21:30:17 2.3 C 20 %
2434 24-03-2020 21:40:17 2.2 C 20 %
2435 24-03-2020 21:50:17 2.2 C 20 %
2436 24-03-2020 22:00:18 1.7 C 20 %
2437 24-03-2020 22:10:18 1.6 C 20 %
2438 24-03-2020 22:20:17 1.6 C 20 %
2439 24-03-2020 22:30:18 0.3 C 25 %
2440 24-03-2020 22:40:18 -0.2 C 30 %
2441 24-03-2020 22:50:17 -0.7 C 30 %
2442 24-03-2020 23:00:18 -1.2 C 32 %
2443 24-03-2020 23:10:18 -1.1 C 31 %
2444 24-03-2020 23:20:17 -1.4 C 31 %
2445 24-03-2020 23:30:18 -1.7 C 30 %
2446 24-03-2020 23:40:18 -0.9 C 30 %
2447 24-03-2020 23:50:18 -1.2 C 30 %
2448 25-03-2020 00:00:17 -1.6 C 30 %
2449 25-03-2020 00:10:17 -1.6 C 31 %
2450 25-03-2020 00:20:17 -1.8 C 32 %
Sensor: Nr:Datum:Temp:Feuchte:
Aussen-T/F 2451 25-03-2020 00:30:17 -1.8 C 30 %
2452 25-03-2020 00:40:18 -1.9 C 31 %
2453 25-03-2020 00:50:17 -1.8 C 32 %
2454 25-03-2020 01:00:17 -1.6 C 32 %
2455 25-03-2020 01:10:18 -1.3 C 31 %
2456 25-03-2020 01:20:17 -1.1 C 30 %
2457 25-03-2020 01:30:18 -1.1 C 29 %
2458 25-03-2020 01:40:18 -0.9 C 28 %
2459 25-03-2020 01:50:17 -1.1 C 28 %
2460 25-03-2020 02:00:17 -1.1 C 28 %
2461 25-03-2020 02:10:18 -1.3 C 27 %
2462 25-03-2020 02:20:18 -1.4 C 29 %
2463 25-03-2020 02:30:18 -1.6 C 27 %
2464 25-03-2020 02:40:18 -1.5 C 27 %
2465 25-03-2020 02:50:18 -1.4 C 27 %
2466 25-03-2020 03:00:18 -1.4 C 26 %
2467 25-03-2020 03:10:18 -1.4 C 26 %
2468 25-03-2020 03:20:17 -1.5 C 27 %
2469 25-03-2020 03:30:17 -2.3 C 30 %
2470 25-03-2020 03:40:17 -2.6 C 31 %
2471 25-03-2020 03:50:17 -2.8 C 32 %
2472 25-03-2020 04:00:17 -3.1 C 33 %
2473 25-03-2020 04:10:17 -3.2 C 34 %
2474 25-03-2020 04:20:17 -3.3 C 34 %
2475 25-03-2020 04:30:18 -3.3 C 34 %
Sensor: Nr:Datum:Temp:Feuchte:
Aussen-T/F 2476 25-03-2020 04:40:18 -3 C 33 %
2477 25-03-2020 04:50:17 -3.2 C 33 %
2478 25-03-2020 05:00:18 -3 C 32 %
2479 25-03-2020 05:10:18 -2.6 C 32 %
2480 25-03-2020 05:20:17 -2.3 C 30 %
2481 25-03-2020 05:30:17 -2.5 C 30 %
2482 25-03-2020 05:40:17 -3.4 C 33 %
2483 25-03-2020 05:50:17 -4 C 35 %
2484 25-03-2020 06:00:17 -4.4 C 36 %
2485 25-03-2020 06:10:17 -4.2 C 36 %
2486 25-03-2020 06:20:17 -4.2 C 36 %
2487 25-03-2020 06:30:17 -4.4 C 36 %
2488 25-03-2020 06:40:17 -4.3 C 36 %
2489 25-03-2020 06:50:17 -4.3 C 36 %
2490 25-03-2020 07:00:17 -4.3 C 37 %
2491 25-03-2020 07:10:17 -4.3 C 37 %
2492 25-03-2020 07:20:17 -4.1 C 37 %
2493 25-03-2020 07:30:17 -4 C 37 %
2494 25-03-2020 07:40:17 -3.8 C 37 %
2495 25-03-2020 07:50:17 -3.2 C 36 %
2496 25-03-2020 08:00:17 -2.6 C 35 %
2497 25-03-2020 08:10:17 -2 C 32 %
2498 25-03-2020 08:20:17 -2.7 C 35 %
2499 25-03-2020 08:30:17 -2 C 34 %
2500 25-03-2020 08:40:17 -1.9 C 34 %
Sensor: Nr:Datum:Temp:Feuchte:
Aussen-T/F 2501 25-03-2020 08:50:17 -1.6 C 34 %
2502 25-03-2020 09:00:17 -1.5 C 34 %
2503 25-03-2020 09:10:17 -1.3 C 35 %
2504 25-03-2020 09:20:17 -1 C 35 %
2505 25-03-2020 09:30:17 -0.2 C 32 %
2506 25-03-2020 09:40:18 0.7 C 29 %
2507 25-03-2020 09:50:17 2.1 C 20 %
2508 25-03-2020 10:00:18 2.8 C 20 %
2509 25-03-2020 10:10:18 3.2 C 20 %
2510 25-03-2020 10:20:17 3.6 C 20 %
2511 25-03-2020 10:30:17 4.1 C 20 %
2512 25-03-2020 10:40:17 4.7 C 20 %
2513 25-03-2020 10:50:17 5.1 C 20 %
2514 25-03-2020 11:00:17 5.3 C 20 %
2515 25-03-2020 11:10:17 5.7 C 20 %
2516 25-03-2020 11:20:17 7.2 C 20 %
2517 25-03-2020 11:30:18 7.7 C 20 %
2518 25-03-2020 11:40:18 7.3 C 20 %
2519 25-03-2020 11:50:17 6.8 C 20 %
2520 25-03-2020 12:00:17 7.8 C 20 %
2521 25-03-2020 12:10:17 8.3 C 20 %
2522 25-03-2020 12:20:17 8.4 C 20 %
2523 25-03-2020 12:30:17 8.4 C 20 %
2524 25-03-2020 12:40:17 8.6 C 20 %
2525 25-03-2020 12:50:17 10.3 C 20 %
Sensor: Nr:Datum:Temp:Feuchte:
Aussen-T/F 2526 25-03-2020 13:00:17 11.2 C 20 %
2527 25-03-2020 13:10:17 12.2 C 20 %
2528 25-03-2020 13:20:18 13.8 C 20 %
2529 25-03-2020 13:30:18 14.5 C 20 %
2530 25-03-2020 13:40:18 12.4 C 20 %
2531 25-03-2020 13:50:18 12 C 20 %
2532 25-03-2020 14:00:18 11.3 C 20 %
2533 25-03-2020 14:10:18 11.1 C 20 %
2534 25-03-2020 14:20:17 13.2 C 20 %
2535 25-03-2020 14:30:17 13.5 C 20 %
2536 25-03-2020 14:40:17 12.7 C 20 %
2537 25-03-2020 14:50:17 13.5 C 20 %
2538 25-03-2020 15:00:17 13.8 C 20 %
2539 25-03-2020 15:10:17 14.1 C 20 %
2540 25-03-2020 15:20:18 14.9 C 20 %
2541 25-03-2020 15:30:18 14.4 C 20 %
2542 25-03-2020 15:40:18 14.4 C 20 %
2543 25-03-2020 15:50:17 15 C 20 %
2544 25-03-2020 16:00:18 15.3 C 20 %
2545 25-03-2020 16:10:18 14.5 C 20 %
2546 25-03-2020 16:20:17 15.7 C 20 %
2547 25-03-2020 16:30:17 13.8 C 20 %
2548 25-03-2020 16:40:17 12.9 C 20 %
2549 25-03-2020 16:50:18 12.2 C 20 %
2550 25-03-2020 17:00:18 11.9 C 20 %
Sensor: Nr:Datum:Temp:Feuchte:
Aussen-T/F 2551 25-03-2020 17:10:18 11.5 C 20 %
2552 25-03-2020 17:20:17 11.1 C 20 %
2553 25-03-2020 17:30:17 11 C 20 %
2554 25-03-2020 17:40:17 10.7 C 20 %
2555 25-03-2020 17:50:17 10.5 C 20 %
2556 25-03-2020 18:00:18 10.5 C 20 %
2557 25-03-2020 18:10:18 10.1 C 20 %
2558 25-03-2020 18:20:17 9.6 C 20 %
2559 25-03-2020 18:30:18 8.8 C 20 %
2560 25-03-2020 18:40:18 7.7 C 20 %
2561 25-03-2020 18:50:18 7 C 20 %
2562 25-03-2020 19:00:18 6.3 C 20 %
2563 25-03-2020 19:10:18 6.1 C 20 %
2564 25-03-2020 19:20:17 5.4 C 20 %
2565 25-03-2020 19:30:18 5.8 C 20 %
2566 25-03-2020 19:40:18 5.1 C 20 %
2567 25-03-2020 19:50:17 4.6 C 20 %
2568 25-03-2020 20:00:17 4.5 C 20 %
2569 25-03-2020 20:10:17 4.1 C 20 %
2570 25-03-2020 20:20:17 4 C 20 %
2571 25-03-2020 20:30:18 4.7 C 20 %
2572 25-03-2020 20:40:18 4.3 C 20 %
2573 25-03-2020 20:50:17 3.8 C 20 %
2574 25-03-2020 21:00:18 4.6 C 20 %
2575 25-03-2020 21:10:18 4.6 C 20 %
Sensor: Nr:Datum:Temp:Feuchte:
Aussen-T/F 2576 25-03-2020 21:20:17 4.3 C 20 %
2577 25-03-2020 21:30:17 4.3 C 20 %
2578 25-03-2020 21:40:17 4 C 20 %
2579 25-03-2020 21:50:17 3.6 C 20 %
2580 25-03-2020 22:00:17 2.8 C 20 %
2581 25-03-2020 22:10:17 2.6 C 20 %
2582 25-03-2020 22:20:17 2.6 C 20 %
2583 25-03-2020 22:30:18 2.1 C 20 %
2584 25-03-2020 22:40:18 2.3 C 20 %
2585 25-03-2020 22:50:18 2.1 C 20 %
2586 25-03-2020 23:00:18 1.7 C 20 %
2587 25-03-2020 23:10:18 1.7 C 23 %
2588 25-03-2020 23:20:17 1.6 C 23 %
2589 25-03-2020 23:30:18 1.5 C 21 %
2590 25-03-2020 23:40:18 1.8 C 20 %
2591 25-03-2020 23:50:18 1.8 C 20 %
2592 26-03-2020 00:00:18 1.4 C 21 %
2593 26-03-2020 00:10:18 1.2 C 21 %
2594 26-03-2020 00:20:18 1.3 C 21 %
2595 26-03-2020 00:30:18 0.9 C 23 %
2596 26-03-2020 00:40:18 0.9 C 25 %
2597 26-03-2020 00:50:18 1 C 23 %
2598 26-03-2020 01:00:18 0.7 C 25 %
2599 26-03-2020 01:10:18 0.4 C 25 %
2600 26-03-2020 01:20:17 0.5 C 25 %
Sensor: Nr:Datum:Temp:Feuchte:
Aussen-T/F 2601 26-03-2020 01:30:17 0.7 C 25 %
2602 26-03-2020 01:40:17 0.7 C 23 %
2603 26-03-2020 01:50:17 0.7 C 21 %
2604 26-03-2020 02:00:17 0.6 C 23 %
2605 26-03-2020 02:10:17 0.7 C 21 %
2606 26-03-2020 02:20:17 0.7 C 21 %
2607 26-03-2020 02:30:17 0.6 C 21 %
2608 26-03-2020 02:40:18 0.4 C 21 %
2609 26-03-2020 02:50:17 0.3 C 23 %
2610 26-03-2020 03:00:17 0 C 23 %
2611 26-03-2020 03:10:18 0.1 C 23 %
2612 26-03-2020 03:20:18 0 C 23 %
2613 26-03-2020 03:30:18 -0.3 C 25 %
2614 26-03-2020 03:40:18 -0.3 C 27 %
2615 26-03-2020 03:50:17 -0.4 C 27 %
2616 26-03-2020 04:00:17 -0.1 C 26 %
2617 26-03-2020 04:10:17 -0.3 C 25 %
2618 26-03-2020 04:20:17 -0.3 C 26 %
2619 26-03-2020 04:30:18 -0.4 C 26 %
2620 26-03-2020 04:40:18 -0.4 C 26 %
2621 26-03-2020 04:50:17 -0.5 C 26 %
2622 26-03-2020 05:00:18 -0.5 C 27 %
2623 26-03-2020 05:10:18 -0.6 C 27 %
2624 26-03-2020 05:20:17 -0.6 C 28 %
2625 26-03-2020 05:30:17 -0.7 C 28 %
Sensor: Nr:Datum:Temp:Feuchte:
Aussen-T/F 2626 26-03-2020 05:40:18 -0.5 C 28 %
2627 26-03-2020 05:50:17 -0.6 C 28 %
2628 26-03-2020 06:00:18 -0.7 C 29 %
2629 26-03-2020 06:10:18 -0.8 C 28 %
2630 26-03-2020 06:20:18 -0.9 C 28 %
2631 26-03-2020 06:30:18 -1 C 28 %
2632 26-03-2020 06:40:18 -0.9 C 30 %
2633 26-03-2020 06:50:18 -1.1 C 30 %
2634 26-03-2020 07:00:18 -0.8 C 30 %
2635 26-03-2020 07:10:18 -1.1 C 30 %
2636 26-03-2020 07:20:18 -0.6 C 30 %
2637 26-03-2020 07:30:18 -0.4 C 30 %
2638 26-03-2020 07:40:18 0.2 C 27 %
2639 26-03-2020 07:50:17 0.5 C 25 %
2640 26-03-2020 08:00:18 0.3 C 28 %
2641 26-03-2020 08:10:18 0.4 C 28 %
2642 26-03-2020 08:20:18 0.7 C 26 %
2643 26-03-2020 08:30:18 1.4 C 21 %
2644 26-03-2020 08:40:18 1.7 C 21 %
2645 26-03-2020 08:50:17 2.2 C 20 %
2646 26-03-2020 09:00:18 2.3 C 20 %
2647 26-03-2020 09:10:18 2.3 C 20 %
2648 26-03-2020 09:20:18 2.7 C 20 %
2649 26-03-2020 09:30:18 3.2 C 20 %
2650 26-03-2020 09:40:18 3.5 C 20 %
Sensor: Nr:Datum:Temp:Feuchte:
Aussen-T/F 2651 26-03-2020 09:50:18 4.1 C 20 %
2652 26-03-2020 10:00:18 4.4 C 20 %
2653 26-03-2020 10:10:18 4.9 C 20 %
2654 26-03-2020 10:20:18 5 C 20 %
2655 26-03-2020 10:30:18 5.4 C 20 %
2656 26-03-2020 10:40:18 5.9 C 20 %
2657 26-03-2020 10:50:17 6 C 20 %
2658 26-03-2020 11:00:18 6.6 C 20 %
2659 26-03-2020 11:10:18 6.9 C 20 %
2660 26-03-2020 11:20:18 7.3 C 20 %
2661 26-03-2020 11:30:18 8.5 C 20 %
2662 26-03-2020 11:40:18 8.3 C 20 %
2663 26-03-2020 11:50:18 7.3 C 20 %
2664 26-03-2020 12:00:18 8 C 20 %
2665 26-03-2020 12:10:18 9.1 C 20 %
2666 26-03-2020 12:20:17 9.6 C 20 %
2667 26-03-2020 12:30:17 9.6 C 20 %
2668 26-03-2020 12:40:17 9.6 C 20 %
2669 26-03-2020 12:50:17 9.7 C 20 %
2670 26-03-2020 13:00:17 10.4 C 20 %
2671 26-03-2020 13:10:17 10.8 C 20 %
2672 26-03-2020 13:20:18 11.5 C 20 %
2673 26-03-2020 13:30:18 11.5 C 20 %
2674 26-03-2020 13:40:18 12.1 C 20 %
2675 26-03-2020 13:50:18 13 C 20 %
Sensor: Nr:Datum:Temp:Feuchte:
Aussen-T/F 2676 26-03-2020 14:00:18 12 C 20 %
2677 26-03-2020 14:10:18 12.2 C 20 %
2678 26-03-2020 14:20:18 11.9 C 20 %
2679 26-03-2020 14:30:18 14.3 C 20 %
2680 26-03-2020 14:40:18 14.2 C 20 %
2681 26-03-2020 14:50:17 14 C 20 %
2682 26-03-2020 15:00:17 15.3 C 20 %
2683 26-03-2020 15:10:18 14.2 C 20 %
2684 26-03-2020 15:20:18 14 C 20 %
2685 26-03-2020 15:30:18 15.6 C 20 %
2686 26-03-2020 15:40:18 15.6 C 20 %
2687 26-03-2020 15:50:18 16.5 C 20 %
2688 26-03-2020 16:00:18 15.6 C 20 %
2689 26-03-2020 16:10:18 15.3 C 20 %
2690 26-03-2020 16:20:18 12.5 C 20 %
2691 26-03-2020 16:30:18 12.3 C 20 %
2692 26-03-2020 16:40:18 13.9 C 20 %
2693 26-03-2020 16:50:18 12.8 C 20 %
2694 26-03-2020 17:00:18 11.4 C 20 %
2695 26-03-2020 17:10:18 11 C 20 %
2696 26-03-2020 17:20:17 10.9 C 20 %
2697 26-03-2020 17:30:17 11 C 20 %
2698 26-03-2020 17:40:17 11.1 C 20 %
2699 26-03-2020 17:50:17 10.7 C 20 %
2700 26-03-2020 18:00:17 10.5 C 20 %
Sensor: Nr:Datum:Temp:Feuchte:
Aussen-T/F 2701 26-03-2020 18:10:17 10.3 C 20 %
2702 26-03-2020 18:20:18 10.1 C 20 %
2703 26-03-2020 18:30:18 9.8 C 20 %
2704 26-03-2020 18:40:18 9.4 C 20 %
2705 26-03-2020 18:50:17 8.6 C 20 %
2706 26-03-2020 19:00:17 8 C 20 %
2707 26-03-2020 19:10:17 7.4 C 20 %
2708 26-03-2020 19:20:17 6.9 C 21 %
2709 26-03-2020 19:30:17 6.7 C 21 %
2710 26-03-2020 19:40:17 6.4 C 21 %
2711 26-03-2020 19:50:17 6.5 C 21 %
2712 26-03-2020 20:00:17 6.2 C 23 %
2713 26-03-2020 20:10:18 6 C 23 %
2714 26-03-2020 20:20:18 5.7 C 25 %
2715 26-03-2020 20:30:17 5.4 C 26 %
2716 26-03-2020 20:40:17 4.9 C 28 %
2717 26-03-2020 20:50:17 4.9 C 28 %
2718 26-03-2020 21:00:17 4.7 C 29 %
2719 26-03-2020 21:10:17 4.5 C 29 %
2720 26-03-2020 21:20:17 4.5 C 30 %
2721 26-03-2020 21:30:18 4.1 C 30 %
2722 26-03-2020 21:40:18 4.6 C 30 %
2723 26-03-2020 21:50:18 4.6 C 30 %
2724 26-03-2020 22:00:18 4.6 C 30 %
2725 26-03-2020 22:10:18 4.6 C 30 %
Sensor: Nr:Datum:Temp:Feuchte:
Aussen-T/F 2726 26-03-2020 22:20:17 4.5 C 30 %
2727 26-03-2020 22:30:17 4.5 C 30 %
2728 26-03-2020 22:40:17 4.5 C 30 %
2729 26-03-2020 22:50:17 4.4 C 30 %
2730 26-03-2020 23:00:18 4.5 C 30 %
2731 26-03-2020 23:10:18 4.2 C 30 %
2732 26-03-2020 23:20:17 4.2 C 30 %
2733 26-03-2020 23:30:18 3.9 C 31 %
2734 26-03-2020 23:40:18 4 C 30 %
2735 26-03-2020 23:50:18 3.9 C 31 %
2736 27-03-2020 00:00:18 4 C 30 %
2737 27-03-2020 00:10:18 3.9 C 31 %
2738 27-03-2020 00:20:17 4 C 30 %
2739 27-03-2020 00:30:17 4 C 30 %
2740 27-03-2020 00:40:17 3.7 C 32 %
2741 27-03-2020 00:50:18 3.6 C 32 %
2742 27-03-2020 01:00:18 2.7 C 35 %
2743 27-03-2020 01:10:18 2.5 C 36 %
2744 27-03-2020 01:20:17 3 C 35 %
2745 27-03-2020 01:30:18 3.1 C 35 %
2746 27-03-2020 01:40:18 2.7 C 36 %
2747 27-03-2020 01:50:18 3 C 35 %
2748 27-03-2020 02:00:18 2.9 C 35 %
2749 27-03-2020 02:10:18 2.8 C 35 %
2750 27-03-2020 02:20:17 2.7 C 35 %
Sensor: Nr:Datum:Temp:Feuchte:
Aussen-T/F 2751 27-03-2020 02:30:17 2.5 C 36 %
2752 27-03-2020 02:40:17 2.5 C 36 %
2753 27-03-2020 02:50:17 2.6 C 35 %
2754 27-03-2020 03:00:17 2.6 C 35 %
2755 27-03-2020 03:10:17 2.2 C 36 %
2756 27-03-2020 03:20:17 2.5 C 35 %
2757 27-03-2020 03:30:17 2.4 C 35 %
2758 27-03-2020 03:40:17 2.6 C 35 %
2759 27-03-2020 03:50:17 2.4 C 36 %
2760 27-03-2020 04:00:18 2.4 C 35 %
2761 27-03-2020 04:10:18 2.4 C 35 %
2762 27-03-2020 04:20:18 1.4 C 38 %
2763 27-03-2020 04:30:18 1.3 C 38 %
2764 27-03-2020 04:40:18 1.6 C 38 %
2765 27-03-2020 04:50:17 1.8 C 37 %
2766 27-03-2020 05:00:18 1.5 C 38 %
2767 27-03-2020 05:10:18 0.7 C 40 %
2768 27-03-2020 05:20:18 0.4 C 40 %
2769 27-03-2020 05:30:18 0 C 41 %
2770 27-03-2020 05:40:18 0 C 42 %
2771 27-03-2020 05:50:18 -0.1 C 42 %
2772 27-03-2020 06:00:18 -0.5 C 42 %
2773 27-03-2020 06:10:18 -0.6 C 43 %
2774 27-03-2020 06:20:18 -0.4 C 43 %
2775 27-03-2020 06:30:18 -0.4 C 43 %
Sensor: Nr:Datum:Temp:Feuchte:
Aussen-T/F 2776 27-03-2020 06:40:18 -0.3 C 43 %
2777 27-03-2020 06:50:17 -0.3 C 43 %
2778 27-03-2020 07:00:18 -0.2 C 43 %
2779 27-03-2020 07:10:18 -0.1 C 43 %
2780 27-03-2020 07:20:18 0.1 C 43 %
2781 27-03-2020 07:30:18 0.3 C 43 %
2782 27-03-2020 07:40:18 0.8 C 43 %
2783 27-03-2020 07:50:17 1.2 C 41 %
2784 27-03-2020 08:00:17 1.1 C 41 %
2785 27-03-2020 08:10:18 1.9 C 40 %
2786 27-03-2020 08:20:18 1.7 C 40 %
2787 27-03-2020 08:30:18 1.6 C 41 %
2788 27-03-2020 08:40:18 1.9 C 41 %
2789 27-03-2020 08:50:17 2.6 C 39 %
2790 27-03-2020 09:00:18 3 C 38 %
2791 27-03-2020 09:10:18 3.3 C 37 %
2792 27-03-2020 09:20:17 3.6 C 37 %
2793 27-03-2020 09:30:18 4.1 C 36 %
2794 27-03-2020 09:40:18 4.5 C 35 %
2795 27-03-2020 09:50:18 5.3 C 35 %
2796 27-03-2020 10:00:18 5.8 C 34 %
2797 27-03-2020 10:10:18 6.5 C 32 %
2798 27-03-2020 10:20:17 7.6 C 30 %
2799 27-03-2020 10:30:17 8.1 C 28 %
2800 27-03-2020 10:40:17 9.1 C 25 %
Sensor: Nr:Datum:Temp:Feuchte:
Aussen-T/F 2801 27-03-2020 10:50:17 9.3 C 25 %
2802 27-03-2020 11:00:17 10.2 C 20 %
2803 27-03-2020 11:10:17 11 C 20 %
2804 27-03-2020 11:20:17 12.4 C 20 %
2805 27-03-2020 11:30:17 14.5 C 20 %
2806 27-03-2020 11:40:17 14.2 C 20 %
2807 27-03-2020 11:50:17 12.5 C 20 %
2808 27-03-2020 12:00:17 13.4 C 20 %
2809 27-03-2020 12:10:17 13.7 C 20 %
2810 27-03-2020 12:20:17 14.4 C 20 %
2811 27-03-2020 12:30:17 14.1 C 20 %
2812 27-03-2020 12:40:18 14.2 C 20 %
2813 27-03-2020 12:50:18 14.6 C 20 %
2814 27-03-2020 13:00:18 16.6 C 20 %
2815 27-03-2020 13:10:18 15.8 C 20 %
2816 27-03-2020 13:20:17 17.6 C 20 %
2817 27-03-2020 13:30:18 18.8 C 20 %
2818 27-03-2020 13:40:18 16.8 C 20 %
2819 27-03-2020 13:50:18 17.3 C 20 %
2820 27-03-2020 14:00:18 16.9 C 20 %
2821 27-03-2020 14:10:18 17.6 C 20 %
2822 27-03-2020 14:20:18 17.7 C 20 %
2823 27-03-2020 14:30:17 20.4 C 20 %
2824 27-03-2020 14:40:17 18.1 C 20 %
2825 27-03-2020 14:50:17 18.4 C 20 %
Sensor: Nr:Datum:Temp:Feuchte:
Aussen-T/F 2826 27-03-2020 15:00:17 18.5 C 20 %
2827 27-03-2020 15:10:17 18.7 C 20 %
2828 27-03-2020 15:20:17 18.9 C 20 %
2829 27-03-2020 15:30:18 19.4 C 20 %
2830 27-03-2020 15:40:18 18.3 C 20 %
2831 27-03-2020 15:50:17 19.5 C 20 %
2832 27-03-2020 16:00:17 18.5 C 20 %
2833 27-03-2020 16:10:17 18.2 C 20 %
2834 27-03-2020 16:20:17 19.2 C 20 %
2835 27-03-2020 16:30:17 18.3 C 20 %
2836 27-03-2020 16:40:17 18 C 20 %
2837 27-03-2020 16:50:17 17 C 20 %
2838 27-03-2020 17:00:18 16.4 C 20 %
2839 27-03-2020 17:10:18 16.3 C 20 %
2840 27-03-2020 17:20:18 16.1 C 20 %
2841 27-03-2020 17:30:18 16 C 20 %
2842 27-03-2020 17:40:18 15.8 C 20 %
2843 27-03-2020 17:50:18 15.7 C 20 %
2844 27-03-2020 18:00:17 15.4 C 20 %
2845 27-03-2020 18:10:17 15 C 20 %
2846 27-03-2020 18:20:17 14.1 C 20 %
2847 27-03-2020 18:30:18 13.5 C 20 %
2848 27-03-2020 18:40:18 12.9 C 20 %
2849 27-03-2020 18:50:18 12.3 C 20 %
2850 27-03-2020 19:00:18 11.8 C 20 %
Sensor: Nr:Datum:Temp:Feuchte:
Aussen-T/F 2851 27-03-2020 19:10:18 11.5 C 20 %
2852 27-03-2020 19:20:17 11.4 C 20 %
2853 27-03-2020 19:30:17 10.7 C 20 %
2854 27-03-2020 19:40:17 10.7 C 21 %
2855 27-03-2020 19:50:17 10.4 C 23 %
2856 27-03-2020 20:00:18 10.4 C 22 %
2857 27-03-2020 20:10:18 9.2 C 26 %
2858 27-03-2020 20:20:17 8.9 C 28 %
2859 27-03-2020 20:30:17 8.4 C 30 %
2860 27-03-2020 20:40:17 8.1 C 30 %
2861 27-03-2020 20:50:18 7.8 C 31 %
2862 27-03-2020 21:00:17 7.4 C 31 %
2863 27-03-2020 21:10:17 7.3 C 32 %
2864 27-03-2020 21:20:17 7.1 C 32 %
2865 27-03-2020 21:30:17 7 C 32 %
2866 27-03-2020 21:40:17 6.6 C 33 %
2867 27-03-2020 21:50:17 6.6 C 34 %
2868 27-03-2020 22:00:17 6.4 C 34 %
2869 27-03-2020 22:10:17 6.3 C 34 %
2870 27-03-2020 22:20:17 6 C 35 %
2871 27-03-2020 22:30:18 5.8 C 35 %
2872 27-03-2020 22:40:18 5.6 C 35 %
2873 27-03-2020 22:50:18 5.5 C 36 %
2874 27-03-2020 23:00:18 5.6 C 36 %
2875 27-03-2020 23:10:18 5.6 C 36 %
Sensor: Nr:Datum:Temp:Feuchte:
Aussen-T/F 2876 27-03-2020 23:20:17 5.3 C 36 %
2877 27-03-2020 23:30:17 5.2 C 36 %
2878 27-03-2020 23:40:17 5.1 C 36 %
2879 27-03-2020 23:50:17 4.8 C 37 %
2880 28-03-2020 00:00:17 4.8 C 38 %
2881 28-03-2020 00:10:17 4.8 C 39 %
2882 28-03-2020 00:20:17 5 C 37 %
2883 28-03-2020 00:30:18 4.9 C 38 %
2884 28-03-2020 00:40:18 4.7 C 38 %
2885 28-03-2020 00:50:17 4.7 C 38 %
2886 28-03-2020 01:00:17 4.6 C 38 %
2887 28-03-2020 01:10:17 4.4 C 39 %
2888 28-03-2020 01:20:17 4.3 C 39 %
2889 28-03-2020 01:30:17 4.1 C 39 %
2890 28-03-2020 01:40:18 3.9 C 40 %
2891 28-03-2020 01:50:17 3.7 C 41 %
2892 28-03-2020 02:00:18 3.6 C 41 %
2893 28-03-2020 02:10:18 3.3 C 41 %
2894 28-03-2020 02:20:18 3.1 C 41 %
2895 28-03-2020 02:30:17 3.7 C 42 %
2896 28-03-2020 02:40:17 3.7 C 41 %
2897 28-03-2020 02:50:18 3.4 C 41 %
2898 28-03-2020 03:00:18 3.1 C 41 %
2899 28-03-2020 03:10:18 2.9 C 42 %
2900 28-03-2020 03:20:17 2.8 C 43 %
Sensor: Nr:Datum:Temp:Feuchte:
Aussen-T/F 2901 28-03-2020 03:30:18 2.6 C 43 %
2902 28-03-2020 03:40:18 2.1 C 43 %
2903 28-03-2020 03:50:17 2.1 C 44 %
2904 28-03-2020 04:00:18 2.2 C 44 %
2905 28-03-2020 04:10:18 2.1 C 44 %
2906 28-03-2020 04:20:18 1.9 C 45 %
2907 28-03-2020 04:30:18 1.7 C 45 %
2908 28-03-2020 04:40:18 1.8 C 46 %
2909 28-03-2020 04:50:17 1.8 C 46 %
2910 28-03-2020 05:00:18 1.7 C 45 %
2911 28-03-2020 05:10:18 1.6 C 45 %
2912 28-03-2020 05:20:17 1.5 C 45 %
2913 28-03-2020 05:30:18 1.3 C 46 %
2914 28-03-2020 05:40:18 1.2 C 46 %
2915 28-03-2020 05:50:18 1.2 C 46 %
2916 28-03-2020 06:00:18 1.2 C 46 %
2917 28-03-2020 06:10:18 1.3 C 46 %
2918 28-03-2020 06:20:17 1.1 C 46 %
2919 28-03-2020 06:30:17 1.1 C 46 %
2920 28-03-2020 06:40:17 1 C 46 %
2921 28-03-2020 06:50:17 1.2 C 47 %
2922 28-03-2020 07:00:17 1.5 C 47 %
2923 28-03-2020 07:10:17 1.7 C 47 %
2924 28-03-2020 07:20:17 1.9 C 47 %
2925 28-03-2020 07:30:18 1.9 C 46 %
Sensor: Nr:Datum:Temp:Feuchte:
Aussen-T/F 2926 28-03-2020 07:40:18 1.9 C 46 %
2927 28-03-2020 07:50:17 2 C 45 %
2928 28-03-2020 08:00:17 2.2 C 45 %
2929 28-03-2020 08:10:18 2.5 C 45 %
2930 28-03-2020 08:20:18 2.8 C 46 %
2931 28-03-2020 08:30:17 3.2 C 45 %
2932 28-03-2020 08:40:17 3.7 C 44 %
2933 28-03-2020 08:50:18 4 C 43 %
2934 28-03-2020 09:00:18 4.6 C 43 %
2935 28-03-2020 09:10:18 5.1 C 41 %
2936 28-03-2020 09:20:17 5.7 C 41 %
2937 28-03-2020 09:30:18 6.3 C 40 %
2938 28-03-2020 09:40:18 6.9 C 40 %
2939 28-03-2020 09:50:18 7.8 C 38 %
2940 28-03-2020 10:00:18 8.4 C 37 %
2941 28-03-2020 10:10:18 9.5 C 35 %
2942 28-03-2020 10:20:17 10.2 C 32 %
2943 28-03-2020 10:30:17 10.9 C 31 %
2944 28-03-2020 10:40:17 11.6 C 30 %
2945 28-03-2020 10:50:18 12.2 C 29 %
2946 28-03-2020 11:00:18 13.4 C 26 %
2947 28-03-2020 11:10:18 13.6 C 25 %
2948 28-03-2020 11:20:17 15.8 C 20 %
2949 28-03-2020 11:30:17 16.7 C 20 %
2950 28-03-2020 11:40:17 16.4 C 20 %
Sensor: Nr:Datum:Temp:Feuchte:
Aussen-T/F 2951 28-03-2020 11:50:18 15.9 C 20 %
2952 28-03-2020 12:00:17 16.6 C 20 %
2953 28-03-2020 12:10:17 17 C 20 %
2954 28-03-2020 12:20:17 17.7 C 20 %
2955 28-03-2020 12:30:17 17.8 C 20 %
2956 28-03-2020 12:40:17 18.1 C 20 %
2957 28-03-2020 12:50:18 18 C 20 %
2958 28-03-2020 13:00:18 18.6 C 20 %
2959 28-03-2020 13:10:18 19.6 C 20 %
2960 28-03-2020 13:20:18 21.7 C 20 %
2961 28-03-2020 13:30:17 21.1 C 20 %
2962 28-03-2020 13:40:17 20.7 C 20 %
2963 28-03-2020 13:50:18 20.6 C 20 %
2964 28-03-2020 14:00:17 21.1 C 20 %
2965 28-03-2020 14:10:17 21.3 C 20 %
2966 28-03-2020 14:20:17 21.9 C 20 %
2967 28-03-2020 14:30:17 23.7 C 20 %
2968 28-03-2020 14:40:17 24.3 C 20 %
2969 28-03-2020 14:50:17 23.2 C 20 %
2970 28-03-2020 15:00:18 22.4 C 20 %
2971 28-03-2020 15:10:18 19.9 C 20 %
2972 28-03-2020 15:20:18 18.6 C 20 %
2973 28-03-2020 15:30:18 19.6 C 20 %
2974 28-03-2020 15:40:18 22.1 C 20 %
2975 28-03-2020 15:50:18 20.5 C 20 %
Sensor: Nr:Datum:Temp:Feuchte:
Aussen-T/F 2976 28-03-2020 16:00:18 21.1 C 20 %
2977 28-03-2020 16:10:18 21.1 C 20 %
2978 28-03-2020 16:20:18 19.9 C 20 %
2979 28-03-2020 16:30:18 19.6 C 20 %
2980 28-03-2020 16:40:18 19.6 C 20 %
2981 28-03-2020 16:50:18 18.5 C 20 %
2982 28-03-2020 17:00:18 17.9 C 20 %
2983 28-03-2020 17:10:18 17 C 20 %
2984 28-03-2020 17:20:18 16.6 C 20 %
2985 28-03-2020 17:30:18 16.2 C 20 %
2986 28-03-2020 17:40:18 16.2 C 20 %
2987 28-03-2020 17:50:17 15.4 C 20 %
2988 28-03-2020 18:00:18 14.9 C 20 %
2989 28-03-2020 18:10:18 14.6 C 20 %
2990 28-03-2020 18:20:17 14 C 20 %
2991 28-03-2020 18:30:17 13.5 C 20 %
2992 28-03-2020 18:40:17 13.1 C 20 %
2993 28-03-2020 18:50:18 12.6 C 20 %
2994 28-03-2020 19:00:18 12.3 C 20 %
2995 28-03-2020 19:10:18 11.7 C 20 %
2996 28-03-2020 19:20:18 11.7 C 20 %
2997 28-03-2020 19:30:18 11.4 C 20 %
2998 28-03-2020 19:40:18 11.2 C 20 %
2999 28-03-2020 19:50:17 10.8 C 20 %
3000 28-03-2020 20:00:18 10.3 C 20 %
Sensor: Nr:Datum:Temp:Feuchte:
Aussen-T/F 3001 28-03-2020 20:10:18 10.7 C 20 %
3002 28-03-2020 20:20:17 10.5 C 20 %
3003 28-03-2020 20:30:18 10 C 20 %
3004 28-03-2020 20:40:18 9.2 C 20 %
3005 28-03-2020 20:50:17 8.7 C 20 %
3006 28-03-2020 21:00:17 8.8 C 20 %
3007 28-03-2020 21:10:17 9.2 C 20 %
3008 28-03-2020 21:20:17 8.7 C 23 %
3009 28-03-2020 21:30:17 8.1 C 25 %
3010 28-03-2020 21:40:17 8.4 C 23 %
3011 28-03-2020 21:50:17 7.6 C 25 %
3012 28-03-2020 22:00:17 8.3 C 25 %
3013 28-03-2020 22:10:17 8.5 C 21 %
3014 28-03-2020 22:20:17 8.4 C 25 %
3015 28-03-2020 22:30:17 8.3 C 26 %
3016 28-03-2020 22:40:17 7.9 C 26 %
3017 28-03-2020 22:50:17 7.4 C 28 %
3018 28-03-2020 23:00:17 7.3 C 30 %
3019 28-03-2020 23:10:17 7.2 C 30 %
3020 28-03-2020 23:20:18 7.1 C 30 %
3021 28-03-2020 23:30:18 7.1 C 31 %
3022 28-03-2020 23:40:18 6.8 C 32 %
3023 28-03-2020 23:50:17 6.7 C 33 %
3024 29-03-2020 00:00:18 6.5 C 33 %
3025 29-03-2020 00:10:18 6.4 C 33 %
Sensor: Nr:Datum:Temp:Feuchte:
Aussen-T/F 3026 29-03-2020 00:20:17 6.2 C 33 %
3027 29-03-2020 00:30:17 6.5 C 33 %
3028 29-03-2020 00:40:17 6.6 C 33 %
3029 29-03-2020 00:50:18 6.5 C 32 %
3030 29-03-2020 01:00:18 6.3 C 32 %
3031 29-03-2020 01:10:18 6.3 C 32 %
3032 29-03-2020 01:20:17 6.2 C 32 %
3033 29-03-2020 01:30:17 6.1 C 32 %
3034 29-03-2020 01:40:17 6 C 31 %
3035 29-03-2020 01:50:17 6 C 31 %
3036 29-03-2020 02:00:17 5.8 C 31 %
3037 29-03-2020 02:10:17 5.7 C 31 %
3038 29-03-2020 02:20:18 5.4 C 31 %
3039 29-03-2020 02:30:18 5 C 31 %
3040 29-03-2020 02:40:18 4.7 C 32 %
3041 29-03-2020 02:50:18 4.7 C 32 %
3042 29-03-2020 04:00:18 4.6 C 31 %
3043 29-03-2020 04:10:18 4.2 C 32 %
3044 29-03-2020 04:20:17 4.1 C 31 %
3045 29-03-2020 04:30:17 4.3 C 31 %
3046 29-03-2020 04:40:17 4.4 C 31 %
3047 29-03-2020 04:50:18 4.3 C 31 %
3048 29-03-2020 05:00:17 4.4 C 32 %
3049 29-03-2020 05:10:17 4.3 C 32 %
3050 29-03-2020 05:20:17 4.2 C 31 %
Sensor: Nr:Datum:Temp:Feuchte:
Aussen-T/F 3051 29-03-2020 05:30:17 4 C 31 %
3052 29-03-2020 05:40:17 3.8 C 32 %
3053 29-03-2020 05:50:18 3.5 C 32 %
3054 29-03-2020 06:00:18 3.1 C 32 %
3055 29-03-2020 06:10:18 2.8 C 33 %
3056 29-03-2020 06:20:17 2.5 C 33 %
3057 29-03-2020 06:30:18 2.9 C 33 %
3058 29-03-2020 06:40:18 3.2 C 32 %
3059 29-03-2020 06:50:17 3.3 C 33 %
3060 29-03-2020 07:00:18 3.4 C 33 %
3061 29-03-2020 07:10:18 3.5 C 34 %
3062 29-03-2020 07:20:17 3.5 C 35 %
3063 29-03-2020 07:30:17 3.6 C 35 %
3064 29-03-2020 07:40:17 3.7 C 35 %
3065 29-03-2020 07:50:17 3.7 C 35 %
3066 29-03-2020 08:00:18 3.8 C 35 %
3067 29-03-2020 08:10:18 3.8 C 35 %
3068 29-03-2020 08:20:17 4.1 C 33 %
3069 29-03-2020 08:30:17 4.1 C 33 %
3070 29-03-2020 08:40:17 4.3 C 33 %
3071 29-03-2020 08:50:17 4 C 33 %
3072 29-03-2020 09:00:17 4.3 C 33 %
3073 29-03-2020 09:10:17 4.2 C 32 %
3074 29-03-2020 09:20:17 4.1 C 33 %
3075 29-03-2020 09:30:17 4.2 C 33 %
Sensor: Nr:Datum:Temp:Feuchte:
Aussen-T/F 3076 29-03-2020 09:40:17 4.5 C 32 %
3077 29-03-2020 09:50:17 4.8 C 32 %
3078 29-03-2020 10:00:17 5 C 31 %
3079 29-03-2020 10:10:17 5.3 C 31 %
3080 29-03-2020 10:20:17 5.8 C 30 %
3081 29-03-2020 10:30:18 5.6 C 30 %
3082 29-03-2020 10:40:18 6.2 C 30 %
3083 29-03-2020 10:50:17 6.2 C 28 %
3084 29-03-2020 11:00:18 6.5 C 25 %
3085 29-03-2020 11:10:18 6.5 C 25 %
3086 29-03-2020 11:20:18 6 C 25 %
3087 29-03-2020 11:30:18 6.1 C 25 %
3088 29-03-2020 11:40:18 6.2 C 25 %
3089 29-03-2020 11:50:17 6.3 C 25 %
3090 29-03-2020 12:00:17 6.2 C 25 %
3091 29-03-2020 12:10:17 5.6 C 27 %
3092 29-03-2020 12:20:17 5.5 C 27 %
3093 29-03-2020 12:30:17 5.7 C 27 %
3094 29-03-2020 12:40:17 5.8 C 26 %
3095 29-03-2020 12:50:18 6.4 C 26 %
3096 29-03-2020 13:00:18 6.3 C 25 %
3097 29-03-2020 13:10:18 6.1 C 25 %
3098 29-03-2020 13:20:17 6.6 C 23 %
3099 29-03-2020 13:30:17 6.8 C 20 %
3100 29-03-2020 13:40:18 8.1 C 20 %
Sensor: Nr:Datum:Temp:Feuchte:
Aussen-T/F 3101 29-03-2020 13:50:17 8.4 C 20 %
3102 29-03-2020 14:00:18 7.6 C 20 %
3103 29-03-2020 14:10:18 7.5 C 20 %
3104 29-03-2020 14:20:17 7 C 20 %
3105 29-03-2020 14:30:17 6.7 C 20 %
3106 29-03-2020 14:40:17 6.5 C 20 %
3107 29-03-2020 14:50:17 6.7 C 20 %
3108 29-03-2020 15:00:17 7.2 C 20 %
3109 29-03-2020 15:10:17 7.4 C 20 %
3110 29-03-2020 15:20:17 7.4 C 20 %
3111 29-03-2020 15:30:18 7.6 C 20 %
3112 29-03-2020 15:40:18 7.6 C 20 %
3113 29-03-2020 15:50:17 8 C 20 %
3114 29-03-2020 16:00:18 7.4 C 20 %
3115 29-03-2020 16:10:18 7 C 20 %
3116 29-03-2020 16:20:17 6.7 C 20 %
3117 29-03-2020 16:30:18 6.5 C 20 %
3118 29-03-2020 16:40:18 6.6 C 20 %
3119 29-03-2020 16:50:18 6.8 C 20 %
3120 29-03-2020 17:00:18 7 C 20 %
3121 29-03-2020 17:10:18 6.8 C 20 %
3122 29-03-2020 17:20:17 7.4 C 20 %
3123 29-03-2020 17:30:17 7 C 20 %
3124 29-03-2020 17:40:17 7 C 20 %
3125 29-03-2020 17:50:18 6.8 C 25 %
Sensor: Nr:Datum:Temp:Feuchte:
Aussen-T/F 3126 29-03-2020 18:00:18 7.1 C 23 %
3127 29-03-2020 18:10:18 6.5 C 25 %
3128 29-03-2020 18:20:18 6.2 C 25 %
3129 29-03-2020 18:30:18 5.3 C 29 %
3130 29-03-2020 18:40:18 4.4 C 35 %
3131 29-03-2020 18:50:18 4.1 C 36 %
3132 29-03-2020 19:00:18 4 C 36 %
3133 29-03-2020 19:10:18 3.6 C 39 %
3134 29-03-2020 19:20:17 3.6 C 40 %
3135 29-03-2020 19:30:17 3.4 C 40 %
3136 29-03-2020 19:40:17 3.2 C 41 %
3137 29-03-2020 19:50:17 3.1 C 41 %
3138 29-03-2020 20:00:17 3 C 41 %
3139 29-03-2020 20:10:17 3 C 41 %
3140 29-03-2020 20:20:18 2.9 C 42 %
3141 29-03-2020 20:30:18 3 C 41 %
3142 29-03-2020 20:40:18 3.3 C 40 %
3143 29-03-2020 20:50:18 3.5 C 40 %
3144 29-03-2020 21:00:18 3.6 C 39 %
3145 29-03-2020 21:10:18 3.7 C 39 %
3146 29-03-2020 21:20:18 3.7 C 38 %
3147 29-03-2020 21:30:17 3.7 C 37 %
3148 29-03-2020 21:40:17 3.8 C 37 %
3149 29-03-2020 21:50:17 3.8 C 37 %
3150 29-03-2020 22:00:17 3.7 C 37 %
Sensor: Nr:Datum:Temp:Feuchte:
Aussen-T/F 3151 29-03-2020 22:10:17 3.7 C 36 %
3152 29-03-2020 22:20:18 3.7 C 36 %
3153 29-03-2020 22:30:18 3.6 C 36 %
3154 29-03-2020 22:40:18 3.6 C 36 %
3155 29-03-2020 22:50:18 3.6 C 35 %
3156 29-03-2020 23:00:18 3.6 C 35 %
3157 29-03-2020 23:10:18 3.5 C 35 %
3158 29-03-2020 23:20:17 3.4 C 34 %
3159 29-03-2020 23:30:17 3.3 C 33 %
3160 29-03-2020 23:40:17 3.1 C 33 %
3161 29-03-2020 23:50:17 2.9 C 33 %
3162 30-03-2020 00:00:18 2.5 C 34 %
3163 30-03-2020 00:10:18 2.4 C 33 %
3164 30-03-2020 00:20:17 2.4 C 33 %
3165 30-03-2020 00:30:17 1.7 C 35 %
3166 30-03-2020 00:40:17 1 C 36 %
3167 30-03-2020 00:50:17 0.3 C 38 %
3168 30-03-2020 01:00:18 0.2 C 38 %
3169 30-03-2020 01:10:18 0.3 C 38 %
3170 30-03-2020 01:20:17 0.3 C 37 %
3171 30-03-2020 01:30:18 0.5 C 36 %
3172 30-03-2020 01:40:18 -0.1 C 37 %
3173 30-03-2020 01:50:17 -0.3 C 37 %
3174 30-03-2020 02:00:17 -0.8 C 38 %
3175 30-03-2020 02:10:17 -0.9 C 38 %
Sensor: Nr:Datum:Temp:Feuchte:
Aussen-T/F 3176 30-03-2020 02:20:17 -1.5 C 39 %
3177 30-03-2020 02:30:18 -1.7 C 39 %
3178 30-03-2020 02:40:18 -1.6 C 40 %
3179 30-03-2020 02:50:17 -1.6 C 39 %
3180 30-03-2020 03:00:18 -1.7 C 39 %
3181 30-03-2020 03:10:18 -1.3 C 38 %
3182 30-03-2020 03:20:18 -1.7 C 39 %
3183 30-03-2020 03:30:18 -2.2 C 40 %
3184 30-03-2020 03:40:18 -2.1 C 40 %
3185 30-03-2020 03:50:17 -2.1 C 40 %
3186 30-03-2020 04:00:18 -1.9 C 39 %
3187 30-03-2020 04:10:18 -2.2 C 39 %
3188 30-03-2020 04:20:17 -2 C 39 %
3189 30-03-2020 04:30:17 -2.4 C 39 %
3190 30-03-2020 04:40:17 -2.6 C 39 %
3191 30-03-2020 04:50:17 -2.4 C 39 %
3192 30-03-2020 05:00:17 -2.4 C 38 %
3193 30-03-2020 05:10:17 -2.5 C 38 %
3194 30-03-2020 05:20:17 -2.7 C 38 %
3195 30-03-2020 05:30:18 -3 C 39 %
3196 30-03-2020 05:40:18 -3 C 38 %
3197 30-03-2020 05:50:17 -3 C 38 %
3198 30-03-2020 06:00:18 -3 C 38 %
3199 30-03-2020 06:10:18 -3.4 C 38 %
3200 30-03-2020 06:20:17 -3.7 C 39 %
Sensor: Nr:Datum:Temp:Feuchte:
Aussen-T/F 3201 30-03-2020 06:30:17 -3.9 C 40 %
3202 30-03-2020 06:40:17 -4.1 C 40 %
3203 30-03-2020 06:50:17 -3.3 C 39 %
3204 30-03-2020 07:00:17 -3.7 C 40 %
3205 30-03-2020 07:10:17 -3.2 C 39 %
3206 30-03-2020 07:20:17 -3.8 C 39 %
3207 30-03-2020 07:30:18 -4.3 C 40 %
3208 30-03-2020 07:40:18 -4.5 C 40 %
3209 30-03-2020 07:50:17 -4.5 C 40 %
3210 30-03-2020 08:00:18 -3.8 C 40 %
3211 30-03-2020 08:10:18 -3.9 C 40 %
3212 30-03-2020 08:20:18 -4.1 C 40 %
3213 30-03-2020 08:30:18 -3.7 C 39 %
3214 30-03-2020 08:40:18 -3.3 C 39 %
3215 30-03-2020 08:50:17 -3.2 C 38 %
3216 30-03-2020 09:00:18 -3.1 C 38 %
3217 30-03-2020 09:10:18 -2.7 C 37 %
3218 30-03-2020 09:20:18 -2.6 C 37 %
3219 30-03-2020 09:30:18 -2.5 C 37 %
3220 30-03-2020 09:40:18 -2.1 C 37 %
3221 30-03-2020 09:50:18 -2.1 C 37 %
3222 30-03-2020 10:00:18 -1.6 C 36 %
3223 30-03-2020 10:10:18 -1.7 C 37 %
3224 30-03-2020 10:20:17 -1.5 C 37 %
3225 30-03-2020 10:30:17 -1.3 C 36 %
Sensor: Nr:Datum:Temp:Feuchte:
Aussen-T/F 3226 30-03-2020 10:40:17 0.1 C 31 %
3227 30-03-2020 10:50:17 1 C 21 %
3228 30-03-2020 11:00:17 1.1 C 23 %
3229 30-03-2020 11:10:18 2 C 20 %
3230 30-03-2020 11:20:18 2.4 C 20 %
3231 30-03-2020 11:30:18 2.8 C 20 %
3232 30-03-2020 11:40:18 2.9 C 20 %
3233 30-03-2020 11:50:18 3.2 C 20 %
3234 30-03-2020 12:00:18 3.7 C 20 %
3235 30-03-2020 12:10:18 4 C 20 %
3236 30-03-2020 12:20:18 6.4 C 20 %
3237 30-03-2020 12:30:18 7.6 C 20 %
3238 30-03-2020 12:40:18 6.3 C 20 %
3239 30-03-2020 12:50:18 5.1 C 20 %
3240 30-03-2020 13:00:18 6.6 C 20 %
3241 30-03-2020 13:10:18 6.5 C 20 %
3242 30-03-2020 13:20:18 5.6 C 20 %
3243 30-03-2020 13:30:17 5.9 C 20 %
3244 30-03-2020 13:40:17 7 C 20 %
3245 30-03-2020 13:50:17 6.4 C 20 %
3246 30-03-2020 14:00:17 7.1 C 20 %
3247 30-03-2020 14:10:17 8.4 C 20 %
3248 30-03-2020 14:20:18 8.9 C 20 %
3249 30-03-2020 14:30:18 9.5 C 20 %
3250 30-03-2020 14:40:18 9.7 C 20 %
Sensor: Nr:Datum:Temp:Feuchte:
Aussen-T/F 3251 30-03-2020 14:50:18 10.8 C 20 %
3252 30-03-2020 15:00:18 11.3 C 20 %
3253 30-03-2020 15:10:18 11.7 C 20 %
3254 30-03-2020 15:20:17 11.6 C 20 %
3255 30-03-2020 15:30:18 13.5 C 20 %
3256 30-03-2020 15:40:18 13.6 C 20 %
3257 30-03-2020 15:50:18 11.9 C 20 %
3258 30-03-2020 16:00:18 12.9 C 20 %
3259 30-03-2020 16:10:18 13.6 C 20 %
3260 30-03-2020 16:20:17 15.2 C 20 %
3261 30-03-2020 16:30:18 9.9 C 20 %
3262 30-03-2020 16:40:18 13.9 C 20 %
3263 30-03-2020 16:50:18 13.6 C 20 %
3264 30-03-2020 17:00:17 10.1 C 20 %
3265 30-03-2020 17:10:17 13.4 C 20 %
3266 30-03-2020 17:20:18 12.5 C 20 %
3267 30-03-2020 17:30:18 12.6 C 20 %
3268 30-03-2020 17:40:18 11.6 C 20 %
3269 30-03-2020 17:50:18 10.2 C 20 %
3270 30-03-2020 18:00:18 8.7 C 20 %
3271 30-03-2020 18:10:18 7.6 C 20 %
3272 30-03-2020 18:20:18 7.9 C 20 %
3273 30-03-2020 18:30:18 8.2 C 20 %
3274 30-03-2020 18:40:18 7.7 C 20 %
3275 30-03-2020 18:50:18 7.8 C 20 %
Sensor: Nr:Datum:Temp:Feuchte:
Aussen-T/F 3276 30-03-2020 19:00:18 7.3 C 20 %
3277 30-03-2020 19:10:18 7.1 C 20 %
3278 30-03-2020 19:20:17 6.5 C 20 %
3279 30-03-2020 19:30:18 6.3 C 20 %
3280 30-03-2020 19:40:18 5.8 C 20 %
3281 30-03-2020 19:50:17 5 C 20 %
3282 30-03-2020 20:00:18 3.8 C 27 %
3283 30-03-2020 20:10:18 3 C 30 %
3284 30-03-2020 20:20:17 2.8 C 30 %
3285 30-03-2020 20:30:18 3.3 C 31 %
3286 30-03-2020 20:40:18 3.2 C 30 %
3287 30-03-2020 20:50:18 3.3 C 31 %
3288 30-03-2020 21:00:18 4 C 29 %
3289 30-03-2020 21:10:18 4.1 C 29 %
3290 30-03-2020 21:20:18 4.2 C 30 %
3291 30-03-2020 21:30:18 4.3 C 30 %
3292 30-03-2020 21:40:18 4.2 C 30 %
3293 30-03-2020 21:50:18 4.1 C 30 %
3294 30-03-2020 22:00:18 3.7 C 32 %
3295 30-03-2020 22:10:18 3.7 C 33 %
3296 30-03-2020 22:20:17 3.9 C 32 %
3297 30-03-2020 22:30:18 4 C 31 %
3298 30-03-2020 22:40:18 4.1 C 31 %
3299 30-03-2020 22:50:18 4.2 C 31 %
3300 30-03-2020 23:00:18 4.1 C 31 %
Sensor: Nr:Datum:Temp:Feuchte:
Aussen-T/F 3301 30-03-2020 23:10:18 4.2 C 30 %
3302 30-03-2020 23:20:18 4.2 C 31 %
3303 30-03-2020 23:30:18 4.1 C 31 %
3304 30-03-2020 23:40:18 4.2 C 31 %
3305 30-03-2020 23:50:17 4.2 C 31 %
3306 31-03-2020 00:00:18 4.3 C 30 %
3307 31-03-2020 00:10:18 4.3 C 30 %
3308 31-03-2020 00:20:18 4.2 C 31 %
3309 31-03-2020 00:30:18 4.2 C 31 %
3310 31-03-2020 00:40:18 4.2 C 31 %
3311 31-03-2020 00:50:18 4.3 C 31 %
3312 31-03-2020 01:00:18 4.4 C 32 %
3313 31-03-2020 01:10:18 4 C 34 %
3314 31-03-2020 01:20:18 3.8 C 36 %
3315 31-03-2020 01:30:18 3.8 C 36 %
3316 31-03-2020 01:40:18 3.7 C 37 %
3317 31-03-2020 01:50:18 4 C 37 %
3318 31-03-2020 02:00:18 3.9 C 38 %
3319 31-03-2020 02:10:18 3.4 C 39 %
3320 31-03-2020 02:20:17 3.5 C 39 %
3321 31-03-2020 02:30:18 3.7 C 39 %
3322 31-03-2020 02:40:18 3.3 C 40 %
3323 31-03-2020 02:50:18 2.8 C 41 %
3324 31-03-2020 03:00:18 2.5 C 41 %
3325 31-03-2020 03:10:18 2.2 C 42 %
Sensor: Nr:Datum:Temp:Feuchte:
Aussen-T/F 3326 31-03-2020 03:20:17 2.4 C 42 %
3327 31-03-2020 03:30:18 2.3 C 42 %
3328 31-03-2020 03:40:18 2.3 C 43 %
3329 31-03-2020 03:50:18 2.7 C 43 %
3330 31-03-2020 04:00:18 2.9 C 42 %
3331 31-03-2020 04:10:18 3 C 42 %
3332 31-03-2020 04:20:18 3.1 C 42 %
3333 31-03-2020 04:30:17 3.2 C 42 %
3334 31-03-2020 04:40:18 3.2 C 41 %
3335 31-03-2020 04:50:17 3.5 C 41 %
3336 31-03-2020 05:00:18 3.4 C 41 %
3337 31-03-2020 05:10:18 3 C 41 %
3338 31-03-2020 05:20:17 2.8 C 43 %
3339 31-03-2020 05:30:18 2.5 C 43 %
3340 31-03-2020 05:40:18 2.3 C 43 %
3341 31-03-2020 05:50:18 1.9 C 44 %
3342 31-03-2020 06:00:18 1.7 C 44 %
3343 31-03-2020 06:10:18 1.6 C 45 %
3344 31-03-2020 06:20:18 1.5 C 45 %
3345 31-03-2020 06:30:18 1.7 C 45 %
3346 31-03-2020 06:40:18 2 C 45 %
3347 31-03-2020 06:50:18 2.1 C 45 %
3348 31-03-2020 07:00:18 2.2 C 45 %
3349 31-03-2020 07:10:18 2.3 C 45 %
3350 31-03-2020 07:20:18 2.2 C 44 %
Sensor: Nr:Datum:Temp:Feuchte:
Aussen-T/F 3351 31-03-2020 07:30:18 2.1 C 44 %
3352 31-03-2020 07:40:18 1.7 C 45 %
3353 31-03-2020 07:50:17 2 C 45 %
3354 31-03-2020 08:00:18 2.5 C 45 %
3355 31-03-2020 08:10:18 3.1 C 43 %
3356 31-03-2020 08:20:18 3.3 C 42 %
3357 31-03-2020 08:30:18 3.5 C 41 %
3358 31-03-2020 08:40:18 3.7 C 40 %
3359 31-03-2020 08:50:17 4 C 38 %
3360 31-03-2020 09:00:18 3.9 C 38 %
3361 31-03-2020 09:10:18 3.9 C 37 %
3362 31-03-2020 09:20:18 4 C 36 %
3363 31-03-2020 09:30:17 4 C 36 %
3364 31-03-2020 09:40:17 4.1 C 35 %
3365 31-03-2020 09:50:18 4.3 C 35 %
3366 31-03-2020 10:00:18 4.8 C 34 %
3367 31-03-2020 10:10:18 4.7 C 34 %
3368 31-03-2020 10:20:18 4.5 C 34 %
3369 31-03-2020 10:30:18 4.4 C 34 %
3370 31-03-2020 10:40:18 4.3 C 34 %
3371 31-03-2020 10:50:17 4.3 C 33 %
3372 31-03-2020 11:00:17 4.3 C 33 %
3373 31-03-2020 11:10:17 4.4 C 32 %
3374 31-03-2020 11:20:18 4.7 C 31 %
3375 31-03-2020 11:30:18 5.4 C 30 %
Sensor: Nr:Datum:Temp:Feuchte:
Aussen-T/F 3376 31-03-2020 11:40:18 5.3 C 30 %
3377 31-03-2020 11:50:17 5.3 C 29 %
3378 31-03-2020 12:00:18 5.6 C 27 %
3379 31-03-2020 12:10:18 6.3 C 25 %
3380 31-03-2020 12:20:17 6.4 C 20 %
3381 31-03-2020 12:30:18 9.2 C 20 %
3382 31-03-2020 12:40:18 8.4 C 20 %
3383 31-03-2020 12:50:18 7 C 20 %
3384 31-03-2020 13:00:17 7.5 C 20 %
3385 31-03-2020 13:10:17 7.1 C 20 %
3386 31-03-2020 13:20:17 7.3 C 20 %
3387 31-03-2020 13:30:17 7 C 20 %
3388 31-03-2020 13:40:17 8.1 C 20 %
3389 31-03-2020 13:51:17 8.4 C 20 %
3390 31-03-2020 14:00:17 8.5 C 20 %
3391 31-03-2020 14:10:17 9.7 C 20 %
3392 31-03-2020 14:20:17 11.2 C 20 %
3393 31-03-2020 14:30:17 12.6 C 20 %
3394 31-03-2020 14:40:17 11.7 C 20 %
3395 31-03-2020 14:51:17 12 C 20 %
3396 31-03-2020 15:00:17 12 C 20 %
3397 31-03-2020 15:10:18 13.1 C 20 %
3398 31-03-2020 15:20:17 13.2 C 20 %
3399 31-03-2020 15:30:17 13.5 C 20 %
3400 31-03-2020 15:40:17 14.6 C 20 %
Sensor: Nr:Datum:Temp:Feuchte:
Aussen-T/F 3401 31-03-2020 15:50:18 13.9 C 20 %
3402 31-03-2020 16:00:17 16.8 C 20 %
3403 31-03-2020 16:10:17 14.8 C 20 %
3404 31-03-2020 16:20:17 15.8 C 20 %
3405 31-03-2020 16:31:17 15.1 C 20 %
3406 31-03-2020 16:40:17 14 C 20 %
3407 31-03-2020 16:50:17 13.3 C 20 %
3408 31-03-2020 17:00:17 14.4 C 20 %
3409 31-03-2020 17:10:17 16.2 C 20 %
3410 31-03-2020 17:21:17 15.3 C 20 %
3411 31-03-2020 17:31:17 14.7 C 20 %
3412 31-03-2020 17:40:17 15.5 C 20 %
3413 31-03-2020 17:51:17 10.6 C 20 %
3414 31-03-2020 18:01:17 10.5 C 20 %
3415 31-03-2020 18:11:17 10.2 C 20 %
3416 31-03-2020 18:21:17 9.8 C 20 %
3417 31-03-2020 18:31:17 9.6 C 20 %
3418 31-03-2020 18:40:17 9.4 C 20 %
3419 31-03-2020 18:51:17 9.1 C 20 %
3420 31-03-2020 19:00:17 9.1 C 20 %
3421 31-03-2020 19:10:17 8.8 C 20 %
3422 31-03-2020 19:20:17 8.7 C 20 %
3423 31-03-2020 19:31:17 8.2 C 20 %
3424 31-03-2020 19:41:17 7.7 C 20 %
3425 31-03-2020 19:50:17 6.6 C 20 %
Sensor: Nr:Datum:Temp:Feuchte:
Aussen-T/F 3426 31-03-2020 20:01:17 5.6 C 20 %
3427 31-03-2020 20:11:17 5.5 C 20 %
3428 31-03-2020 20:21:17 5.3 C 20 %
3429 31-03-2020 20:31:17 4.7 C 20 %
3430 31-03-2020 20:41:17 4.4 C 20 %
3431 31-03-2020 20:51:17 4 C 20 %
3432 31-03-2020 21:00:17 3.7 C 20 %
3433 31-03-2020 21:10:18 3.9 C 20 %
3434 31-03-2020 21:21:17 3.7 C 20 %
3435 31-03-2020 21:31:17 3.5 C 20 %
3436 31-03-2020 21:41:17 3.2 C 23 %
3437 31-03-2020 21:51:17 3.2 C 23 %
3438 31-03-2020 22:00:18 3 C 23 %
3439 31-03-2020 22:10:18 2.7 C 25 %
3440 31-03-2020 22:21:17 2.7 C 25 %
3441 31-03-2020 22:31:17 2.6 C 25 %
3442 31-03-2020 22:41:17 1.8 C 30 %
3443 31-03-2020 22:50:18 1.6 C 30 %
3444 31-03-2020 23:01:17 1.6 C 30 %
3445 31-03-2020 23:11:17 1.7 C 30 %
3446 31-03-2020 23:21:17 1.4 C 31 %
3447 31-03-2020 23:30:17 1.3 C 31 %
3448 31-03-2020 23:40:18 1.6 C 31 %
3449 31-03-2020 23:51:17 0.9 C 32 %
3450 01-04-2020 00:01:17 1.2 C 31 %
Sensor: Nr:Datum:Temp:Feuchte:
Aussen-T/F 3451 01-04-2020 00:11:17 0 C 35 %
3452 01-04-2020 00:21:17 0.8 C 33 %
3453 01-04-2020 00:31:17 0.6 C 32 %
3454 01-04-2020 00:41:17 0.5 C 33 %
3455 01-04-2020 00:51:17 -0.3 C 35 %
3456 01-04-2020 01:01:17 -0.1 C 36 %
3457 01-04-2020 01:11:17 -0.3 C 35 %
3458 01-04-2020 01:21:17 -1 C 37 %
3459 01-04-2020 01:30:18 -1.4 C 38 %
3460 01-04-2020 01:40:18 -1.7 C 38 %
3461 01-04-2020 01:51:17 -1.9 C 38 %
3462 01-04-2020 02:01:17 -1.9 C 38 %
3463 01-04-2020 02:11:17 -2 C 38 %
3464 01-04-2020 02:21:17 -2.1 C 38 %
3465 01-04-2020 02:31:17 -2.3 C 39 %
3466 01-04-2020 02:41:17 -2.4 C 38 %
3467 01-04-2020 02:50:18 -2.4 C 39 %
3468 01-04-2020 03:01:17 -2.5 C 38 %
3469 01-04-2020 03:11:17 -2.6 C 38 %
3470 01-04-2020 03:21:17 -2.8 C 39 %
3471 01-04-2020 03:31:17 -2.7 C 38 %
3472 01-04-2020 03:41:18 -3 C 38 %
3473 01-04-2020 03:51:17 -3 C 39 %
3474 01-04-2020 04:01:17 -2.8 C 39 %
3475 01-04-2020 04:11:17 -3.1 C 38 %
Sensor: Nr:Datum:Temp:Feuchte:
Aussen-T/F 3476 01-04-2020 04:21:17 -3.2 C 39 %
3477 01-04-2020 04:31:18 -3.5 C 38 %
3478 01-04-2020 04:41:19 -3.4 C 39 %
3479 01-04-2020 04:51:17 -3.5 C 39 %
3480 01-04-2020 05:01:18 -3.6 C 39 %
3481 01-04-2020 05:11:19 -3.8 C 40 %
3482 01-04-2020 05:21:17 -3.8 C 40 %
3483 01-04-2020 05:31:18 -3.8 C 40 %
3484 01-04-2020 05:41:18 -4 C 40 %
3485 01-04-2020 05:51:17 -4.2 C 40 %
3486 01-04-2020 06:01:18 -4.2 C 40 %
3487 01-04-2020 06:11:18 -4 C 40 %
3488 01-04-2020 06:21:17 -4.2 C 40 %
3489 01-04-2020 06:31:17 -4.2 C 41 %
3490 01-04-2020 06:41:17 -4.3 C 41 %
3491 01-04-2020 06:51:17 -4.5 C 41 %
3492 01-04-2020 07:01:18 -4.6 C 41 %
3493 01-04-2020 07:11:19 -4.7 C 41 %
3494 01-04-2020 07:21:17 -4.5 C 41 %
3495 01-04-2020 07:31:18 -4.4 C 41 %
3496 01-04-2020 07:41:18 -4.5 C 41 %
3497 01-04-2020 07:51:17 -4.3 C 41 %
3498 01-04-2020 08:01:17 -4.2 C 41 %
3499 01-04-2020 08:11:17 -4.2 C 41 %
3500 01-04-2020 08:21:17 -3.7 C 41 %
Sensor: Nr:Datum:Temp:Feuchte:
Aussen-T/F 3501 01-04-2020 08:31:17 -3.8 C 41 %
3502 01-04-2020 08:41:17 -3.7 C 41 %
3503 01-04-2020 08:51:17 -3.4 C 40 %
3504 01-04-2020 09:01:17 -3.4 C 40 %
3505 01-04-2020 09:11:17 -2.7 C 40 %
3506 01-04-2020 09:21:17 -2.6 C 40 %
3507 01-04-2020 09:31:17 -2.5 C 40 %
3508 01-04-2020 09:41:17 -2.1 C 40 %
3509 01-04-2020 09:51:17 -1.5 C 39 %
3510 01-04-2020 10:01:17 -1 C 39 %
3511 01-04-2020 10:11:17 -0.9 C 40 %
3512 01-04-2020 10:21:17 -0.4 C 40 %
3513 01-04-2020 10:31:18 0.5 C 39 %
3514 01-04-2020 10:41:18 1 C 37 %
3515 01-04-2020 10:51:17 1.6 C 36 %
3516 01-04-2020 11:01:17 2.4 C 35 %
3517 01-04-2020 11:11:17 3.2 C 33 %
3518 01-04-2020 11:21:17 4.2 C 29 %
3519 01-04-2020 11:31:17 4.8 C 20 %
3520 01-04-2020 11:41:17 5.3 C 20 %
3521 01-04-2020 11:51:17 6 C 20 %
3522 01-04-2020 12:01:17 6.6 C 20 %
3523 01-04-2020 12:11:18 7.1 C 20 %
3524 01-04-2020 12:21:17 8.9 C 20 %
3525 01-04-2020 12:31:17 10.3 C 20 %
Sensor: Nr:Datum:Temp:Feuchte:
Aussen-T/F 3526 01-04-2020 12:41:17 9.2 C 20 %
3527 01-04-2020 12:51:17 8 C 20 %
3528 01-04-2020 13:01:17 9.3 C 20 %
3529 01-04-2020 13:11:17 9.3 C 20 %
3530 01-04-2020 13:21:16 8.6 C 20 %
3531 01-04-2020 13:31:17 9.2 C 20 %
3532 01-04-2020 13:41:17 9.6 C 20 %
3533 01-04-2020 13:51:17 10 C 20 %
3534 01-04-2020 14:01:17 10.3 C 20 %
3535 01-04-2020 14:11:17 10.7 C 20 %
3536 01-04-2020 14:21:17 13.2 C 20 %
3537 01-04-2020 14:31:16 15.9 C 20 %
3538 01-04-2020 14:41:16 16.3 C 20 %
3539 01-04-2020 14:51:17 13.7 C 20 %
3540 01-04-2020 15:01:17 14.2 C 20 %
3541 01-04-2020 15:11:17 17.2 C 20 %
3542 01-04-2020 15:21:17 16.8 C 20 %
3543 01-04-2020 15:31:16 16.3 C 20 %
3544 01-04-2020 15:41:16 18.2 C 20 %
3545 01-04-2020 15:51:17 19.5 C 20 %
3546 01-04-2020 16:01:16 18.7 C 20 %
3547 01-04-2020 16:11:16 18.7 C 20 %
3548 01-04-2020 16:21:16 19.7 C 20 %
3549 01-04-2020 16:31:17 21.3 C 20 %
3550 01-04-2020 16:41:17 15.5 C 20 %
Sensor: Nr:Datum:Temp:Feuchte:
Aussen-T/F 3551 01-04-2020 16:51:16 18.4 C 20 %
3552 01-04-2020 17:01:16 17.2 C 20 %
3553 01-04-2020 17:11:16 17.4 C 20 %
3554 01-04-2020 17:21:17 17.7 C 20 %
3555 01-04-2020 17:31:17 18.5 C 20 %
3556 01-04-2020 17:41:17 16.8 C 20 %
3557 01-04-2020 17:51:17 15.8 C 20 %
3558 01-04-2020 18:01:17 12.6 C 20 %
3559 01-04-2020 18:11:17 12 C 20 %
3560 01-04-2020 18:21:16 12.1 C 20 %
3561 01-04-2020 18:31:17 11.7 C 20 %
3562 01-04-2020 18:41:17 11.8 C 20 %
3563 01-04-2020 18:51:16 11.6 C 20 %
3564 01-04-2020 19:01:17 11 C 20 %
3565 01-04-2020 19:11:17 10.7 C 20 %
3566 01-04-2020 19:21:17 10.4 C 20 %
3567 01-04-2020 19:31:17 9.9 C 20 %
3568 01-04-2020 19:41:17 9.6 C 20 %
3569 01-04-2020 19:51:16 8.9 C 20 %
3570 01-04-2020 20:01:17 8.1 C 20 %
3571 01-04-2020 20:11:17 7.8 C 20 %
3572 01-04-2020 20:21:16 8.1 C 20 %
3573 01-04-2020 20:31:16 7.1 C 20 %
3574 01-04-2020 20:41:16 6.2 C 20 %
3575 01-04-2020 20:51:16 5.9 C 20 %
Sensor: Nr:Datum:Temp:Feuchte:
Aussen-T/F 3576 01-04-2020 21:01:16 6 C 20 %
3577 01-04-2020 21:11:16 6 C 20 %
3578 01-04-2020 21:21:16 5.7 C 20 %
3579 01-04-2020 21:31:16 5.7 C 20 %
3580 01-04-2020 21:41:16 5.4 C 20 %
3581 01-04-2020 21:51:16 4 C 21 %
3582 01-04-2020 22:01:16 4.2 C 21 %
3583 01-04-2020 22:11:16 3.7 C 26 %
3584 01-04-2020 22:21:16 3.2 C 26 %
3585 01-04-2020 22:31:16 2.5 C 29 %
3586 01-04-2020 22:41:16 2.6 C 28 %
3587 01-04-2020 22:51:16 2 C 30 %
3588 01-04-2020 23:01:17 1.7 C 33 %
3589 01-04-2020 23:11:17 1.7 C 32 %
3590 01-04-2020 23:21:16 1.4 C 34 %
3591 01-04-2020 23:31:16 1.2 C 34 %
3592 01-04-2020 23:41:16 1 C 35 %
3593 01-04-2020 23:51:16 1.1 C 34 %
3594 02-04-2020 00:01:17 1 C 35 %
3595 02-04-2020 00:11:17 0.4 C 36 %
3596 02-04-2020 00:21:16 0.4 C 36 %
3597 02-04-2020 00:31:17 0.2 C 36 %
3598 02-04-2020 00:41:17 0.3 C 37 %
3599 02-04-2020 00:51:16 0.3 C 36 %
3600 02-04-2020 01:01:17 0 C 37 %
Sensor: Nr:Datum:Temp:Feuchte:
Aussen-T/F 3601 02-04-2020 01:11:17 -0.4 C 38 %
3602 02-04-2020 01:21:16 -0.6 C 38 %
3603 02-04-2020 01:31:17 -0.7 C 38 %
3604 02-04-2020 01:41:17 -0.7 C 38 %
3605 02-04-2020 01:51:16 -0.9 C 39 %
3606 02-04-2020 02:01:16 -1 C 39 %
3607 02-04-2020 02:11:16 -1 C 39 %
3608 02-04-2020 02:21:16 -1.2 C 39 %
3609 02-04-2020 02:31:17 -1.3 C 40 %
3610 02-04-2020 02:41:17 -1.6 C 40 %
3611 02-04-2020 02:51:17 -1.5 C 40 %
3612 02-04-2020 03:01:17 -1.5 C 40 %
3613 02-04-2020 03:11:17 -1.5 C 40 %
3614 02-04-2020 03:21:17 -1.3 C 40 %
3615 02-04-2020 03:31:17 -1.4 C 40 %
3616 02-04-2020 03:41:17 -1.6 C 40 %
3617 02-04-2020 03:51:18 -1.7 C 40 %
3618 02-04-2020 04:01:18 -2.1 C 40 %
3619 02-04-2020 04:11:18 -1.7 C 41 %
3620 02-04-2020 04:21:18 -1.6 C 40 %
3621 02-04-2020 04:31:17 -2 C 40 %
3622 02-04-2020 04:41:17 -2.4 C 41 %
3623 02-04-2020 04:51:17 -2.7 C 41 %
3624 02-04-2020 05:01:18 -2.6 C 41 %
3625 02-04-2020 05:11:18 -2.6 C 41 %
Sensor: Nr:Datum:Temp:Feuchte:
Aussen-T/F 3626 02-04-2020 05:21:17 -2.6 C 41 %
3627 02-04-2020 05:31:18 -2.7 C 41 %
3628 02-04-2020 05:41:18 -2.6 C 41 %
3629 02-04-2020 05:51:17 -2.5 C 41 %
3630 02-04-2020 06:01:17 -2.6 C 41 %
3631 02-04-2020 06:11:17 -3 C 41 %
3632 02-04-2020 06:21:17 -3 C 42 %
3633 02-04-2020 06:31:17 -2.6 C 43 %
3634 02-04-2020 06:41:17 -3.1 C 42 %
3635 02-04-2020 06:51:17 -2.9 C 42 %
3636 02-04-2020 07:01:17 -3.3 C 42 %
3637 02-04-2020 07:11:17 -3 C 42 %
3638 02-04-2020 07:21:17 -3.1 C 42 %
3639 02-04-2020 07:31:17 -3 C 43 %
3640 02-04-2020 07:41:18 -2.9 C 42 %
3641 02-04-2020 07:51:17 -3 C 43 %
3642 02-04-2020 08:01:17 -2.7 C 43 %
3643 02-04-2020 08:11:18 -2.5 C 43 %
3644 02-04-2020 08:21:17 -2.2 C 42 %
3645 02-04-2020 08:31:17 -2.2 C 42 %
3646 02-04-2020 08:41:17 -2 C 42 %
3647 02-04-2020 08:51:17 -1.8 C 42 %
3648 02-04-2020 09:01:17 -1.7 C 42 %
3649 02-04-2020 09:11:17 -1.5 C 41 %
3650 02-04-2020 09:21:17 -1.3 C 41 %
Sensor: Nr:Datum:Temp:Feuchte:
Aussen-T/F 3651 02-04-2020 09:31:17 -1 C 41 %
3652 02-04-2020 09:41:17 -0.6 C 41 %
3653 02-04-2020 09:51:18 -0.3 C 41 %
3654 02-04-2020 10:01:18 0.1 C 41 %
3655 02-04-2020 10:11:18 0.6 C 41 %
3656 02-04-2020 10:21:17 0.8 C 41 %
3657 02-04-2020 10:31:17 1.7 C 40 %
3658 02-04-2020 10:41:17 2.2 C 39 %
3659 02-04-2020 10:51:17 3.1 C 37 %
3660 02-04-2020 11:01:17 3.6 C 37 %
3661 02-04-2020 11:11:17 4.6 C 35 %
3662 02-04-2020 11:21:17 5.7 C 30 %
3663 02-04-2020 11:31:18 6.5 C 30 %
3664 02-04-2020 11:41:18 6.9 C 29 %
3665 02-04-2020 11:51:17 7.4 C 27 %
3666 02-04-2020 12:01:17 8.1 C 27 %
3667 02-04-2020 12:11:17 8.5 C 25 %
3668 02-04-2020 12:21:17 10.5 C 20 %
3669 02-04-2020 12:31:18 12.2 C 20 %
3670 02-04-2020 12:41:18 10.8 C 20 %
3671 02-04-2020 12:51:17 10.3 C 20 %
3672 02-04-2020 13:01:17 11 C 20 %
3673 02-04-2020 13:11:18 11.5 C 20 %
3674 02-04-2020 13:21:17 11.6 C 20 %
3675 02-04-2020 13:31:17 11.4 C 20 %
Sensor: Nr:Datum:Temp:Feuchte:
Aussen-T/F 3676 02-04-2020 13:41:17 12.3 C 20 %
3677 02-04-2020 13:51:17 12.5 C 20 %
3678 02-04-2020 14:01:17 11.8 C 20 %
3679 02-04-2020 14:11:17 12.6 C 20 %
3680 02-04-2020 14:21:17 15.5 C 20 %
3681 02-04-2020 14:31:18 18.1 C 20 %
3682 02-04-2020 14:41:18 18.3 C 20 %
3683 02-04-2020 14:51:17 18.3 C 20 %
3684 02-04-2020 15:01:18 19.7 C 20 %
3685 02-04-2020 15:11:18 17.5 C 20 %
3686 02-04-2020 15:21:17 19.2 C 20 %
3687 02-04-2020 15:31:18 19.8 C 20 %
3688 02-04-2020 15:41:18 19.3 C 20 %
3689 02-04-2020 15:51:17 19.4 C 20 %
3690 02-04-2020 16:01:17 21.3 C 20 %
3691 02-04-2020 16:11:17 19.9 C 20 %
3692 02-04-2020 16:21:17 16.6 C 20 %
3693 02-04-2020 16:31:18 18 C 20 %
3694 02-04-2020 16:41:18 17.6 C 20 %
3695 02-04-2020 16:51:17 17.8 C 20 %
3696 02-04-2020 17:01:17 17.3 C 20 %
3697 02-04-2020 17:11:17 16.6 C 20 %
3698 02-04-2020 17:21:17 15.8 C 20 %
3699 02-04-2020 17:31:18 15.5 C 20 %
3700 02-04-2020 17:41:18 14.7 C 20 %
Sensor: Nr:Datum:Temp:Feuchte:
Aussen-T/F 3701 02-04-2020 17:51:17 14.8 C 20 %
3702 02-04-2020 18:01:17 12.8 C 20 %
3703 02-04-2020 18:11:17 12.2 C 20 %
3704 02-04-2020 18:21:17 12.3 C 20 %
3705 02-04-2020 18:31:17 11.8 C 20 %
3706 02-04-2020 18:41:17 11.3 C 20 %
3707 02-04-2020 18:51:17 11.1 C 20 %
3708 02-04-2020 19:01:17 10.7 C 20 %
3709 02-04-2020 19:11:17 10.2 C 20 %
3710 02-04-2020 19:21:17 10 C 20 %
3711 02-04-2020 19:31:17 9.6 C 20 %
3712 02-04-2020 19:41:17 9.5 C 20 %
3713 02-04-2020 19:51:17 8.7 C 20 %
3714 02-04-2020 20:01:17 8.5 C 20 %
3715 02-04-2020 20:11:17 8.5 C 20 %
3716 02-04-2020 20:21:17 7.9 C 20 %
3717 02-04-2020 20:31:17 7.8 C 20 %
3718 02-04-2020 20:41:17 7.2 C 21 %
3719 02-04-2020 20:51:17 6.9 C 25 %
3720 02-04-2020 21:01:17 6.4 C 26 %
3721 02-04-2020 21:11:17 6.3 C 27 %
3722 02-04-2020 21:21:17 5.9 C 28 %
3723 02-04-2020 21:31:18 5.7 C 29 %
3724 02-04-2020 21:41:18 5.6 C 30 %
3725 02-04-2020 21:51:17 5.3 C 30 %
Sensor: Nr:Datum:Temp:Feuchte:
Aussen-T/F 3726 02-04-2020 22:01:17 5.2 C 30 %
3727 02-04-2020 22:11:17 5.5 C 30 %
3728 02-04-2020 22:21:17 5 C 30 %
3729 02-04-2020 22:31:18 5.3 C 31 %
3730 02-04-2020 22:41:18 5.2 C 31 %
3731 02-04-2020 22:51:17 5.1 C 31 %
3732 02-04-2020 23:01:17 4.8 C 32 %
3733 02-04-2020 23:11:17 5 C 31 %
3734 02-04-2020 23:21:17 5 C 31 %
3735 02-04-2020 23:31:18 4.7 C 33 %
3736 02-04-2020 23:41:18 3.9 C 35 %
3737 02-04-2020 23:51:17 3.1 C 36 %
3738 03-04-2020 00:01:18 2.7 C 38 %
3739 03-04-2020 00:11:18 2.3 C 39 %
3740 03-04-2020 00:21:17 2.6 C 40 %
3741 03-04-2020 00:31:17 2.6 C 39 %
3742 03-04-2020 00:41:17 3.2 C 38 %
3743 03-04-2020 00:51:17 2.4 C 39 %
3744 03-04-2020 01:01:18 2.4 C 39 %
3745 03-04-2020 01:11:18 2.4 C 39 %
3746 03-04-2020 01:21:17 2.6 C 39 %
3747 03-04-2020 01:31:18 2.7 C 39 %
3748 03-04-2020 01:41:18 2.5 C 39 %
3749 03-04-2020 01:51:17 2.3 C 39 %
3750 03-04-2020 02:01:18 2.2 C 39 %
Sensor: Nr:Datum:Temp:Feuchte:
Aussen-T/F 3751 03-04-2020 02:11:18 2.3 C 39 %
3752 03-04-2020 02:21:18 3.1 C 38 %
3753 03-04-2020 02:31:18 3.2 C 38 %
3754 03-04-2020 02:41:18 2.6 C 39 %
3755 03-04-2020 02:51:17 2.8 C 39 %
3756 03-04-2020 03:01:18 3 C 38 %
3757 03-04-2020 03:11:18 3.6 C 38 %
3758 03-04-2020 03:21:17 3.9 C 38 %
3759 03-04-2020 03:31:17 4.4 C 36 %
3760 03-04-2020 03:41:17 4.7 C 36 %
3761 03-04-2020 03:51:17 4.6 C 36 %
3762 03-04-2020 04:01:17 5 C 35 %
3763 03-04-2020 04:11:17 5.6 C 35 %
3764 03-04-2020 04:21:17 4.9 C 35 %
3765 03-04-2020 04:31:18 4.7 C 36 %
3766 03-04-2020 04:41:18 4.6 C 36 %
3767 03-04-2020 04:51:18 4.4 C 36 %
3768 03-04-2020 05:01:18 4.3 C 36 %
3769 03-04-2020 05:11:18 4.5 C 36 %
3770 03-04-2020 05:21:17 4.8 C 36 %
3771 03-04-2020 05:31:17 4.8 C 36 %
3772 03-04-2020 05:41:17 5.2 C 35 %
3773 03-04-2020 05:51:17 5.3 C 35 %
3774 03-04-2020 06:01:18 5.4 C 35 %
3775 03-04-2020 06:11:18 5.4 C 35 %
Sensor: Nr:Datum:Temp:Feuchte:
Aussen-T/F 3776 03-04-2020 06:21:17 5.1 C 35 %
3777 03-04-2020 06:31:17 5.1 C 36 %
3778 03-04-2020 06:41:17 5.1 C 35 %
3779 03-04-2020 06:51:17 5.2 C 35 %
3780 03-04-2020 07:01:17 5.7 C 35 %
3781 03-04-2020 07:11:17 5.6 C 35 %
3782 03-04-2020 07:21:18 5.5 C 35 %
3783 03-04-2020 07:31:17 5.7 C 35 %
3784 03-04-2020 07:41:17 5.6 C 35 %
3785 03-04-2020 07:51:17 5.6 C 35 %
3786 03-04-2020 08:01:17 5.7 C 35 %
3787 03-04-2020 08:11:17 5.9 C 35 %
3788 03-04-2020 08:21:18 5.9 C 35 %
3789 03-04-2020 08:31:17 5.9 C 35 %
3790 03-04-2020 08:41:17 6.1 C 35 %
3791 03-04-2020 08:51:18 6.6 C 35 %
3792 03-04-2020 09:01:17 7 C 34 %
3793 03-04-2020 09:11:17 7.1 C 34 %
3794 03-04-2020 09:21:18 7.6 C 34 %
3795 03-04-2020 09:31:18 7.7 C 34 %
3796 03-04-2020 09:41:18 8 C 33 %
3797 03-04-2020 09:51:17 8.4 C 33 %
3798 03-04-2020 10:01:18 8.6 C 32 %
3799 03-04-2020 10:11:18 8.6 C 32 %
3800 03-04-2020 10:21:17 9 C 32 %
Sensor: Nr:Datum:Temp:Feuchte:
Aussen-T/F 3801 03-04-2020 10:31:18 9.4 C 32 %
3802 03-04-2020 10:41:18 9.2 C 32 %
3803 03-04-2020 10:51:17 9.6 C 32 %
3804 03-04-2020 11:01:17 10.6 C 31 %
3805 03-04-2020 11:11:17 11.2 C 29 %
3806 03-04-2020 11:21:17 10.9 C 29 %
3807 03-04-2020 11:31:17 11.1 C 28 %
3808 03-04-2020 11:41:17 11.5 C 26 %
3809 03-04-2020 11:51:17 11.4 C 26 %
3810 03-04-2020 12:01:17 11.1 C 26 %
3811 03-04-2020 12:11:17 11.2 C 26 %
3812 03-04-2020 12:21:17 11.4 C 26 %
3813 03-04-2020 12:31:17 11.6 C 25 %
3814 03-04-2020 12:41:18 11.1 C 25 %
3815 03-04-2020 12:51:17 11.1 C 25 %
3816 03-04-2020 13:01:18 11.2 C 25 %
3817 03-04-2020 13:11:18 11.7 C 25 %
3818 03-04-2020 13:21:17 12.2 C 22 %
3819 03-04-2020 13:31:17 11.8 C 22 %
3820 03-04-2020 13:41:17 11.8 C 23 %
3821 03-04-2020 13:51:17 12.2 C 22 %
3822 03-04-2020 14:01:18 12.3 C 20 %
3823 03-04-2020 14:11:18 11.6 C 21 %
3824 03-04-2020 14:21:17 11.7 C 21 %
3825 03-04-2020 14:31:17 11.6 C 21 %
Sensor: Nr:Datum:Temp:Feuchte:
Aussen-T/F 3826 03-04-2020 14:41:18 11.4 C 23 %
3827 03-04-2020 14:51:17 11.7 C 21 %
3828 03-04-2020 15:01:17 11.8 C 20 %
3829 03-04-2020 15:11:17 11.7 C 20 %
3830 03-04-2020 15:21:18 11.8 C 20 %
3831 03-04-2020 15:31:17 12.1 C 20 %
3832 03-04-2020 15:41:17 12.5 C 20 %
3833 03-04-2020 15:51:17 13.1 C 20 %
3834 03-04-2020 16:01:17 12.6 C 20 %
3835 03-04-2020 16:11:17 12.4 C 20 %
3836 03-04-2020 16:21:17 12.4 C 20 %
3837 03-04-2020 16:31:17 12.3 C 20 %
3838 03-04-2020 16:41:17 12.4 C 20 %
3839 03-04-2020 16:51:17 12.4 C 20 %
3840 03-04-2020 17:01:17 12.2 C 20 %
3841 03-04-2020 17:11:17 12.2 C 20 %
3842 03-04-2020 17:21:17 12.2 C 20 %
3843 03-04-2020 17:31:17 12.2 C 20 %
3844 03-04-2020 17:41:17 12.4 C 20 %
3845 03-04-2020 17:51:17 11.9 C 20 %
3846 03-04-2020 18:01:17 11.5 C 20 %
3847 03-04-2020 18:11:17 11.7 C 20 %
3848 03-04-2020 18:21:17 11.5 C 20 %
3849 03-04-2020 18:31:18 11.4 C 20 %
3850 03-04-2020 18:41:18 11 C 20 %
Sensor: Nr:Datum:Temp:Feuchte:
Aussen-T/F 3851 03-04-2020 18:51:17 11 C 20 %
3852 03-04-2020 19:01:18 10.8 C 20 %
3853 03-04-2020 19:11:18 10.7 C 20 %
3854 03-04-2020 19:21:17 10.5 C 20 %
3855 03-04-2020 19:31:17 10.2 C 20 %
3856 03-04-2020 19:41:17 10.3 C 20 %
3857 03-04-2020 19:51:17 9.9 C 20 %
3858 03-04-2020 20:01:17 9.8 C 20 %
3859 03-04-2020 20:11:17 9.5 C 20 %
3860 03-04-2020 20:21:17 9.1 C 20 %
3861 03-04-2020 20:31:18 9.5 C 20 %
3862 03-04-2020 20:41:18 9.2 C 20 %
3863 03-04-2020 20:51:18 9.1 C 20 %
3864 03-04-2020 21:01:17 9.2 C 20 %
3865 03-04-2020 21:11:17 9.1 C 20 %
3866 03-04-2020 21:21:17 8.9 C 20 %
3867 03-04-2020 21:31:17 8.7 C 20 %
3868 03-04-2020 21:41:17 8.6 C 20 %
3869 03-04-2020 21:51:17 8.3 C 20 %
3870 03-04-2020 22:01:17 8.1 C 20 %
3871 03-04-2020 22:11:17 7.9 C 20 %
3872 03-04-2020 22:21:17 7.2 C 23 %
3873 03-04-2020 22:31:18 6.8 C 25 %
3874 03-04-2020 22:41:18 6.5 C 26 %
3875 03-04-2020 22:51:17 6.3 C 26 %
Sensor: Nr:Datum:Temp:Feuchte:
Aussen-T/F 3876 03-04-2020 23:01:17 6.4 C 26 %
3877 03-04-2020 23:11:18 6.4 C 25 %
3878 03-04-2020 23:21:18 6.2 C 26 %
3879 03-04-2020 23:31:17 5.2 C 28 %
3880 03-04-2020 23:41:18 5 C 29 %
3881 03-04-2020 23:51:17 4.7 C 30 %
3882 04-04-2020 00:01:17 4.8 C 30 %
3883 04-04-2020 00:11:18 4.8 C 30 %
3884 04-04-2020 00:21:17 4.7 C 30 %
3885 04-04-2020 00:31:17 5.2 C 28 %
3886 04-04-2020 00:41:17 4.5 C 29 %
3887 04-04-2020 00:51:17 4 C 30 %
3888 04-04-2020 01:01:17 4.6 C 30 %
3889 04-04-2020 01:11:17 4.3 C 30 %
3890 04-04-2020 01:21:18 3.9 C 31 %
3891 04-04-2020 01:31:17 4 C 32 %
3892 04-04-2020 01:41:17 3.1 C 35 %
3893 04-04-2020 01:51:17 2.2 C 37 %
3894 04-04-2020 02:01:18 1.7 C 39 %
3895 04-04-2020 02:11:18 1.4 C 40 %
3896 04-04-2020 02:21:17 1.2 C 40 %
3897 04-04-2020 02:31:17 0.9 C 41 %
3898 04-04-2020 02:41:17 0.8 C 41 %
3899 04-04-2020 02:51:17 0.8 C 42 %
3900 04-04-2020 03:01:18 0.6 C 42 %
Sensor: Nr:Datum:Temp:Feuchte:
Aussen-T/F 3901 04-04-2020 03:11:18 0.4 C 42 %
3902 04-04-2020 03:21:17 0.3 C 43 %
3903 04-04-2020 03:31:18 0.6 C 43 %
3904 04-04-2020 03:41:18 0.5 C 42 %
3905 04-04-2020 03:51:17 -0.1 C 43 %
3906 04-04-2020 04:01:17 -0.4 C 43 %
3907 04-04-2020 04:11:17 -0.6 C 43 %
3908 04-04-2020 04:21:17 -0.7 C 44 %
3909 04-04-2020 04:31:17 -0.6 C 44 %
3910 04-04-2020 04:41:17 -0.9 C 44 %
3911 04-04-2020 04:51:17 -0.9 C 45 %
3912 04-04-2020 05:01:18 -0.9 C 45 %
3913 04-04-2020 05:11:18 -1.2 C 45 %
3914 04-04-2020 05:21:18 -1.2 C 45 %
3915 04-04-2020 05:31:17 -1 C 45 %
3916 04-04-2020 05:41:17 -1.2 C 45 %
3917 04-04-2020 05:51:17 -1.2 C 45 %
3918 04-04-2020 06:01:18 -1.5 C 45 %
3919 04-04-2020 06:11:18 -1.5 C 45 %
3920 04-04-2020 06:21:17 -1.5 C 45 %
3921 04-04-2020 06:31:17 -1.8 C 45 %
3922 04-04-2020 06:41:17 -1.4 C 46 %
3923 04-04-2020 06:51:17 -1.5 C 45 %
3924 04-04-2020 07:01:18 -1.6 C 45 %
3925 04-04-2020 07:11:18 -1.8 C 45 %
Sensor: Nr:Datum:Temp:Feuchte:
Aussen-T/F 3926 04-04-2020 07:21:17 -1.5 C 46 %
3927 04-04-2020 07:31:18 -1.8 C 45 %
3928 04-04-2020 07:41:18 -1.7 C 46 %
3929 04-04-2020 07:51:17 -1.8 C 45 %
3930 04-04-2020 08:01:17 -1.8 C 46 %
3931 04-04-2020 08:11:18 -1.7 C 46 %
3932 04-04-2020 08:21:17 -1.5 C 46 %
3933 04-04-2020 08:31:17 -1.1 C 46 %
3934 04-04-2020 08:41:18 -1 C 46 %
3935 04-04-2020 08:51:17 -0.7 C 45 %
3936 04-04-2020 09:01:17 -0.3 C 45 %
3937 04-04-2020 09:11:17 0 C 45 %
3938 04-04-2020 09:21:17 -0.2 C 45 %
3939 04-04-2020 09:31:18 0.2 C 45 %
3940 04-04-2020 09:41:18 0.8 C 44 %
3941 04-04-2020 09:51:17 1.1 C 43 %
3942 04-04-2020 10:01:17 1.5 C 43 %
3943 04-04-2020 10:11:18 1.8 C 43 %
3944 04-04-2020 10:21:17 2.2 C 41 %
3945 04-04-2020 10:31:17 2.9 C 41 %
3946 04-04-2020 10:41:17 3.5 C 40 %
3947 04-04-2020 10:51:17 4.5 C 37 %
3948 04-04-2020 11:01:17 5.3 C 36 %
3949 04-04-2020 11:11:17 6.4 C 35 %
3950 04-04-2020 11:21:18 7.1 C 32 %
Sensor: Nr:Datum:Temp:Feuchte:
Aussen-T/F 3951 04-04-2020 11:31:18 7.9 C 32 %
3952 04-04-2020 11:41:18 8.4 C 29 %
3953 04-04-2020 11:51:18 8.7 C 29 %
3954 04-04-2020 12:01:18 9.7 C 26 %
3955 04-04-2020 12:11:18 9.7 C 26 %
3956 04-04-2020 12:21:17 10.6 C 22 %
3957 04-04-2020 12:31:17 10.9 C 20 %
3958 04-04-2020 12:41:17 11.4 C 20 %
3959 04-04-2020 12:51:17 10.8 C 20 %
3960 04-04-2020 13:01:17 11.1 C 20 %
3961 04-04-2020 13:11:17 12.1 C 20 %
3962 04-04-2020 13:21:17 11.6 C 20 %
3963 04-04-2020 13:31:17 11.4 C 20 %
3964 04-04-2020 13:41:17 12.2 C 20 %
3965 04-04-2020 13:51:18 12.5 C 20 %
3966 04-04-2020 14:01:17 12.1 C 20 %
3967 04-04-2020 14:11:17 13.7 C 20 %
3968 04-04-2020 14:21:17 14.6 C 20 %
3969 04-04-2020 14:31:17 16.6 C 20 %
3970 04-04-2020 14:41:17 17 C 20 %
3971 04-04-2020 14:51:17 16.3 C 20 %
3972 04-04-2020 15:01:18 18.1 C 20 %
3973 04-04-2020 15:11:18 18.9 C 20 %
3974 04-04-2020 15:21:17 16.9 C 20 %
3975 04-04-2020 15:31:17 19.1 C 20 %
Sensor: Nr:Datum:Temp:Feuchte:
Aussen-T/F 3976 04-04-2020 15:41:17 19.8 C 20 %
3977 04-04-2020 15:51:17 17.4 C 20 %
3978 04-04-2020 16:01:17 19.9 C 20 %
3979 04-04-2020 16:11:17 19.3 C 20 %
3980 04-04-2020 16:21:17 18.7 C 20 %
3981 04-04-2020 16:31:17 19.3 C 20 %
3982 04-04-2020 16:41:17 20.5 C 20 %
3983 04-04-2020 16:51:17 20.4 C 20 %
3984 04-04-2020 17:01:17 20.3 C 20 %
3985 04-04-2020 17:11:17 20.1 C 20 %
3986 04-04-2020 17:21:17 20.5 C 20 %
3987 04-04-2020 17:31:17 19.2 C 20 %
3988 04-04-2020 17:41:17 18.7 C 20 %
3989 04-04-2020 17:51:18 17.8 C 20 %
3990 04-04-2020 18:01:17 16.8 C 20 %
3991 04-04-2020 18:11:17 16.2 C 20 %
3992 04-04-2020 18:21:17 15.4 C 20 %
3993 04-04-2020 18:31:17 15.4 C 20 %
3994 04-04-2020 18:41:17 15.6 C 20 %
3995 04-04-2020 18:51:17 15.1 C 20 %
3996 04-04-2020 19:01:17 14.9 C 20 %
3997 04-04-2020 19:11:17 14.4 C 20 %
3998 04-04-2020 19:21:17 14 C 20 %
3999 04-04-2020 19:31:17 13.9 C 20 %
4000 04-04-2020 19:41:17 12.6 C 20 %
Sensor: Nr:Datum:Temp:Feuchte:
Aussen-T/F 4001 04-04-2020 19:51:17 11.5 C 20 %
4002 04-04-2020 20:01:17 11.3 C 20 %
4003 04-04-2020 20:11:17 10.7 C 20 %
4004 04-04-2020 20:21:17 10.3 C 21 %
4005 04-04-2020 20:31:17 9.8 C 25 %
4006 04-04-2020 20:41:17 9.5 C 23 %
4007 04-04-2020 20:51:17 9.2 C 25 %
4008 04-04-2020 21:01:17 9.2 C 21 %
4009 04-04-2020 21:11:17 8.7 C 25 %
4010 04-04-2020 21:21:17 8.8 C 25 %
4011 04-04-2020 21:31:17 8.5 C 25 %
4012 04-04-2020 21:41:17 8.2 C 25 %
4013 04-04-2020 21:51:17 7.1 C 28 %
4014 04-04-2020 22:01:18 5.8 C 31 %
4015 04-04-2020 22:11:18 5.5 C 32 %
4016 04-04-2020 22:21:18 5.1 C 32 %
4017 04-04-2020 22:31:17 4.8 C 35 %
4018 04-04-2020 22:41:17 4.7 C 34 %
4019 04-04-2020 22:51:17 4.6 C 34 %
4020 04-04-2020 23:01:17 4.4 C 34 %
4021 04-04-2020 23:11:17 4.1 C 34 %
4022 04-04-2020 23:21:17 3.9 C 35 %
4023 04-04-2020 23:31:17 3.6 C 36 %
4024 04-04-2020 23:41:17 3.5 C 36 %
4025 04-04-2020 23:51:17 3.4 C 37 %
Sensor: Nr:Datum:Temp:Feuchte:
Aussen-T/F 4026 05-04-2020 00:01:17 3 C 37 %
4027 05-04-2020 00:11:17 2.9 C 38 %
4028 05-04-2020 00:21:17 2.8 C 39 %
4029 05-04-2020 00:31:17 2.5 C 39 %
4030 05-04-2020 00:41:17 2.5 C 40 %
4031 05-04-2020 00:51:18 2.4 C 40 %
4032 05-04-2020 01:01:18 2.3 C 40 %
4033 05-04-2020 01:11:18 2.3 C 40 %
4034 05-04-2020 01:21:17 2.2 C 40 %
4035 05-04-2020 01:31:18 2.1 C 41 %
4036 05-04-2020 01:41:18 1.9 C 42 %
4037 05-04-2020 01:51:17 1.8 C 42 %
4038 05-04-2020 02:01:18 1.6 C 42 %
4039 05-04-2020 02:11:18 1.3 C 42 %
4040 05-04-2020 02:21:17 1.4 C 43 %
4041 05-04-2020 02:31:18 1.4 C 43 %
4042 05-04-2020 02:41:18 1.1 C 43 %
4043 05-04-2020 02:51:17 1.1 C 43 %
4044 05-04-2020 03:01:18 1.3 C 43 %
4045 05-04-2020 03:11:18 1.1 C 43 %
4046 05-04-2020 03:21:17 1 C 43 %
4047 05-04-2020 03:31:17 0.7 C 45 %
4048 05-04-2020 03:41:17 0.5 C 45 %
4049 05-04-2020 03:51:17 0.7 C 45 %
4050 05-04-2020 04:01:17 0.6 C 45 %
Sensor: Nr:Datum:Temp:Feuchte:
Aussen-T/F 4051 05-04-2020 04:11:17 0.4 C 45 %
4052 05-04-2020 04:21:17 0.4 C 46 %
4053 05-04-2020 04:31:17 0.2 C 46 %
4054 05-04-2020 04:41:17 0.2 C 46 %
4055 05-04-2020 04:51:17 0.2 C 46 %
4056 05-04-2020 05:01:17 0 C 46 %
4057 05-04-2020 05:11:17 -0.3 C 46 %
4058 05-04-2020 05:21:17 -0.2 C 47 %
4059 05-04-2020 05:31:17 -0.3 C 46 %
4060 05-04-2020 05:41:17 -0.4 C 47 %
4061 05-04-2020 05:51:17 -0.5 C 47 %
4062 05-04-2020 06:01:17 -0.4 C 47 %
4063 05-04-2020 06:11:17 -0.5 C 47 %
4064 05-04-2020 06:21:17 -0.6 C 47 %
4065 05-04-2020 06:31:18 -0.8 C 48 %
4066 05-04-2020 06:41:18 -0.8 C 47 %
4067 05-04-2020 06:51:17 -0.8 C 47 %
4068 05-04-2020 07:01:18 -0.9 C 47 %
4069 05-04-2020 07:11:18 -0.7 C 48 %
4070 05-04-2020 07:21:18 -0.6 C 48 %
4071 05-04-2020 07:31:17 -0.5 C 48 %
4072 05-04-2020 07:41:17 -0.5 C 48 %
4073 05-04-2020 07:51:17 -0.4 C 48 %
4074 05-04-2020 08:01:17 -0.3 C 48 %
4075 05-04-2020 08:11:17 0 C 49 %
Sensor: Nr:Datum:Temp:Feuchte:
Aussen-T/F 4076 05-04-2020 08:21:17 0.1 C 48 %
4077 05-04-2020 08:31:17 0.4 C 48 %
4078 05-04-2020 08:41:17 0.5 C 49 %
4079 05-04-2020 08:51:18 0.8 C 49 %
4080 05-04-2020 09:01:17 1.1 C 47 %
4081 05-04-2020 09:11:17 1.4 C 47 %
4082 05-04-2020 09:21:17 1.8 C 47 %
4083 05-04-2020 09:31:17 2.4 C 46 %
4084 05-04-2020 09:41:17 2.8 C 46 %
4085 05-04-2020 09:51:18 3.4 C 44 %
4086 05-04-2020 10:01:18 3.9 C 43 %
4087 05-04-2020 10:11:18 4.5 C 41 %
4088 05-04-2020 10:21:17 5.4 C 40 %
4089 05-04-2020 10:31:17 5.9 C 40 %
4090 05-04-2020 10:41:17 7 C 38 %
4091 05-04-2020 10:51:17 7.9 C 37 %
4092 05-04-2020 11:01:17 8.6 C 36 %
4093 05-04-2020 11:11:17 10.7 C 32 %
4094 05-04-2020 11:21:17 11.2 C 30 %
4095 05-04-2020 11:31:17 13.1 C 21 %
4096 05-04-2020 11:41:17 13.9 C 20 %
4097 05-04-2020 11:51:17 14.8 C 20 %
4098 05-04-2020 12:01:17 15.6 C 20 %
4099 05-04-2020 12:11:17 15.9 C 20 %
4100 05-04-2020 12:21:17 16.7 C 20 %
Sensor: Nr:Datum:Temp:Feuchte:
Aussen-T/F 4101 05-04-2020 12:31:18 17.6 C 20 %
4102 05-04-2020 12:41:18 17.4 C 20 %
4103 05-04-2020 12:51:17 17.4 C 20 %
4104 05-04-2020 13:01:17 17.2 C 20 %
4105 05-04-2020 13:11:17 18.4 C 20 %
4106 05-04-2020 13:21:17 17.5 C 20 %
4107 05-04-2020 13:31:17 17.1 C 20 %
4108 05-04-2020 13:41:17 17.9 C 20 %
4109 05-04-2020 13:51:17 17.7 C 20 %
4110 05-04-2020 14:01:17 17.9 C 20 %
4111 05-04-2020 14:11:17 19 C 20 %
4112 05-04-2020 14:21:17 19.8 C 20 %
4113 05-04-2020 14:31:18 21.7 C 20 %
4114 05-04-2020 14:41:18 23.4 C 20 %
4115 05-04-2020 14:51:18 23.3 C 20 %
4116 05-04-2020 15:01:17 24.7 C 20 %
4117 05-04-2020 15:11:18 26.9 C 20 %
4118 05-04-2020 15:21:17 24.5 C 20 %
4119 05-04-2020 15:31:17 24.8 C 20 %
4120 05-04-2020 15:41:17 25.1 C 20 %
4121 05-04-2020 15:51:18 26.6 C 20 %
4122 05-04-2020 16:01:17 25 C 20 %
4123 05-04-2020 16:11:17 23.3 C 20 %
4124 05-04-2020 16:21:17 25.5 C 20 %
4125 05-04-2020 16:31:17 24.8 C 20 %
Sensor: Nr:Datum:Temp:Feuchte:
Aussen-T/F 4126 05-04-2020 16:41:17 23.1 C 20 %
4127 05-04-2020 16:51:17 23.4 C 20 %
4128 05-04-2020 17:01:17 23.5 C 20 %
4129 05-04-2020 17:11:17 26.4 C 20 %
4130 05-04-2020 17:21:17 25.9 C 20 %
4131 05-04-2020 17:31:17 24.4 C 20 %
4132 05-04-2020 17:41:17 24.2 C 20 %
4133 05-04-2020 17:51:17 23.6 C 20 %
4134 05-04-2020 18:01:17 20.8 C 20 %
4135 05-04-2020 18:11:17 19.7 C 20 %
4136 05-04-2020 18:21:17 20 C 20 %
4137 05-04-2020 18:31:17 19.7 C 20 %
4138 05-04-2020 18:41:17 19.4 C 20 %
4139 05-04-2020 18:51:17 18.9 C 20 %
4140 05-04-2020 19:01:17 18.8 C 20 %
4141 05-04-2020 19:11:17 18.4 C 20 %
4142 05-04-2020 19:21:17 18 C 20 %
4143 05-04-2020 19:31:18 17.5 C 20 %
4144 05-04-2020 19:41:18 16.3 C 20 %
4145 05-04-2020 19:51:17 15 C 20 %
4146 05-04-2020 20:01:18 14.3 C 20 %
4147 05-04-2020 20:11:18 14.1 C 20 %
4148 05-04-2020 20:21:17 13.5 C 20 %
4149 05-04-2020 20:31:17 13.3 C 20 %
4150 05-04-2020 20:41:17 13 C 20 %
Sensor: Nr:Datum:Temp:Feuchte:
Aussen-T/F 4151 05-04-2020 20:51:17 12.7 C 20 %
4152 05-04-2020 21:01:18 12.3 C 20 %
4153 05-04-2020 21:11:18 12 C 20 %
4154 05-04-2020 21:21:17 12.1 C 20 %
4155 05-04-2020 21:31:17 11.7 C 20 %
4156 05-04-2020 21:41:17 11.5 C 20 %
4157 05-04-2020 21:51:17 10.3 C 20 %
4158 05-04-2020 22:01:17 10.5 C 20 %
4159 05-04-2020 22:11:17 9.2 C 25 %
4160 05-04-2020 22:21:17 8.9 C 26 %
4161 05-04-2020 22:31:17 8.8 C 26 %
4162 05-04-2020 22:41:17 8.4 C 27 %
4163 05-04-2020 22:51:17 8.2 C 27 %
4164 05-04-2020 23:01:17 8 C 28 %
4165 05-04-2020 23:11:17 7.4 C 30 %
4166 05-04-2020 23:21:17 7.4 C 29 %
4167 05-04-2020 23:31:17 7 C 30 %
4168 05-04-2020 23:41:17 6.7 C 31 %
4169 05-04-2020 23:51:17 6.3 C 31 %
Sensor: Nr:Datum:Temp:Feuchte:
G-T/H 1 08-03-2020 00:08:18 9.6 C 74 %
2 08-03-2020 00:18:18 9.6 C 74 %
3 08-03-2020 00:28:18 9.6 C 74 %
4 08-03-2020 00:38:18 9.6 C 74 %
5 08-03-2020 00:48:18 9.6 C 74 %
6 08-03-2020 00:58:18 9.6 C 74 %
7 08-03-2020 01:08:17 9.6 C 74 %
8 08-03-2020 01:18:17 9.6 C 74 %
9 08-03-2020 01:28:17 9.6 C 75 %
10 08-03-2020 01:38:17 9.6 C 74 %
11 08-03-2020 01:49:17 9.6 C 75 %
12 08-03-2020 01:59:17 9.6 C 75 %
13 08-03-2020 02:09:17 9.6 C 75 %
14 08-03-2020 02:19:17 9.6 C 75 %
15 08-03-2020 02:29:17 9.6 C 75 %
16 08-03-2020 02:38:17 9.6 C 75 %
17 08-03-2020 02:48:17 9.6 C 75 %
18 08-03-2020 02:58:17 9.6 C 75 %
19 08-03-2020 03:08:18 9.6 C 75 %
20 08-03-2020 03:19:17 9.6 C 75 %
21 08-03-2020 03:29:17 9.6 C 75 %
22 08-03-2020 03:39:17 9.6 C 75 %
23 08-03-2020 03:48:18 9.6 C 75 %
24 08-03-2020 03:58:18 9.6 C 75 %
25 08-03-2020 04:08:18 9.6 C 75 %
Sensor: Nr:Datum:Temp:Feuchte:
G-T/H 26 08-03-2020 04:19:17 9.6 C 75 %
27 08-03-2020 04:29:17 9.6 C 75 %
28 08-03-2020 04:39:17 9.6 C 75 %
29 08-03-2020 04:49:17 9.6 C 75 %
30 08-03-2020 04:59:17 9.6 C 75 %
31 08-03-2020 05:09:17 9.6 C 75 %
32 08-03-2020 05:19:17 9.6 C 75 %
33 08-03-2020 05:29:17 9.6 C 75 %
34 08-03-2020 05:39:17 9.6 C 75 %
35 08-03-2020 05:49:17 9.6 C 75 %
36 08-03-2020 05:59:17 9.6 C 75 %
37 08-03-2020 06:09:17 9.6 C 75 %
38 08-03-2020 06:19:17 9.6 C 75 %
39 08-03-2020 06:29:18 9.6 C 75 %
40 08-03-2020 06:39:18 9.6 C 75 %
41 08-03-2020 06:49:17 9.6 C 75 %
42 08-03-2020 06:59:17 9.6 C 75 %
43 08-03-2020 07:09:17 9.6 C 75 %
44 08-03-2020 07:19:17 9.6 C 75 %
45 08-03-2020 07:29:17 9.6 C 75 %
46 08-03-2020 07:39:17 9.6 C 75 %
47 08-03-2020 07:49:17 9.6 C 75 %
48 08-03-2020 07:59:17 9.6 C 75 %
49 08-03-2020 08:09:17 9.6 C 75 %
50 08-03-2020 08:19:17 9.6 C 75 %
Sensor: Nr:Datum:Temp:Feuchte:
G-T/H 51 08-03-2020 08:29:17 9.6 C 75 %
52 08-03-2020 08:39:17 9.6 C 75 %
53 08-03-2020 08:49:17 9.6 C 75 %
54 08-03-2020 08:59:17 9.6 C 75 %
55 08-03-2020 09:09:17 9.6 C 75 %
56 08-03-2020 09:19:17 9.6 C 75 %
57 08-03-2020 09:29:18 9.6 C 75 %
58 08-03-2020 09:39:17 9.6 C 75 %
59 08-03-2020 09:49:17 9.6 C 75 %
60 08-03-2020 09:59:17 9.6 C 75 %
61 08-03-2020 10:09:17 9.6 C 75 %
62 08-03-2020 10:19:17 9.7 C 75 %
63 08-03-2020 10:29:17 9.7 C 75 %
64 08-03-2020 10:39:17 9.7 C 75 %
65 08-03-2020 10:49:17 9.7 C 75 %
66 08-03-2020 10:59:18 9.7 C 75 %
67 08-03-2020 11:09:17 9.7 C 75 %
68 08-03-2020 11:19:16 9.7 C 75 %
69 08-03-2020 11:29:16 9.7 C 75 %
70 08-03-2020 11:39:17 9.7 C 75 %
71 08-03-2020 11:49:16 9.8 C 75 %
72 08-03-2020 11:59:16 9.8 C 75 %
73 08-03-2020 12:09:17 9.8 C 75 %
74 08-03-2020 12:19:17 9.8 C 75 %
75 08-03-2020 12:29:17 9.9 C 75 %
Sensor: Nr:Datum:Temp:Feuchte:
G-T/H 76 08-03-2020 12:39:17 9.8 C 75 %
77 08-03-2020 12:49:17 9.9 C 75 %
78 08-03-2020 12:59:18 9.9 C 75 %
79 08-03-2020 13:09:17 9.9 C 75 %
80 08-03-2020 13:19:16 10 C 74 %
81 08-03-2020 13:29:16 10 C 74 %
82 08-03-2020 13:39:16 10 C 74 %
83 08-03-2020 13:49:17 10 C 74 %
84 08-03-2020 13:59:17 10 C 74 %
85 08-03-2020 14:09:17 10 C 74 %
86 08-03-2020 14:19:16 10.1 C 74 %
87 08-03-2020 14:29:16 10.1 C 74 %
88 08-03-2020 14:39:16 10.1 C 74 %
89 08-03-2020 14:49:16 10.1 C 74 %
90 08-03-2020 14:59:16 10.1 C 74 %
91 08-03-2020 15:09:16 10.1 C 74 %
92 08-03-2020 15:19:17 10.2 C 74 %
93 08-03-2020 15:29:17 10.2 C 74 %
94 08-03-2020 15:39:17 10.2 C 74 %
95 08-03-2020 15:49:17 10.2 C 74 %
96 08-03-2020 15:59:17 10.2 C 74 %
97 08-03-2020 16:09:17 10.2 C 74 %
98 08-03-2020 16:19:17 10.2 C 74 %
99 08-03-2020 16:29:17 10.3 C 74 %
100 08-03-2020 16:39:17 10.3 C 74 %
Sensor: Nr:Datum:Temp:Feuchte:
G-T/H 101 08-03-2020 16:49:17 10.3 C 74 %
102 08-03-2020 16:59:17 10.4 C 74 %
103 08-03-2020 17:09:17 10.4 C 74 %
104 08-03-2020 17:19:17 10.4 C 74 %
105 08-03-2020 17:29:17 10.4 C 74 %
106 08-03-2020 17:39:17 10.4 C 74 %
107 08-03-2020 17:49:16 10.4 C 74 %
108 08-03-2020 17:59:16 10.5 C 74 %
109 08-03-2020 18:09:17 10.5 C 74 %
110 08-03-2020 18:19:17 10.4 C 75 %
111 08-03-2020 18:29:18 10.5 C 75 %
112 08-03-2020 18:39:17 10.5 C 75 %
113 08-03-2020 18:49:16 10.5 C 75 %
114 08-03-2020 18:59:16 10.5 C 75 %
115 08-03-2020 19:09:17 10.5 C 75 %
116 08-03-2020 19:19:16 10.5 C 75 %
117 08-03-2020 19:29:16 10.5 C 75 %
118 08-03-2020 19:39:17 10.5 C 75 %
119 08-03-2020 19:49:16 10.6 C 75 %
120 08-03-2020 19:59:16 10.6 C 75 %
121 08-03-2020 20:09:16 10.6 C 75 %
122 08-03-2020 20:19:16 10.6 C 75 %
123 08-03-2020 20:29:16 10.6 C 75 %
124 08-03-2020 20:39:17 10.6 C 75 %
125 08-03-2020 20:49:16 10.6 C 75 %
Sensor: Nr:Datum:Temp:Feuchte:
G-T/H 126 08-03-2020 20:59:16 10.6 C 75 %
127 08-03-2020 21:09:17 10.7 C 75 %
128 08-03-2020 21:19:17 10.7 C 75 %
129 08-03-2020 21:29:17 10.6 C 75 %
130 08-03-2020 21:39:17 10.6 C 75 %
131 08-03-2020 21:49:17 10.7 C 75 %
132 08-03-2020 21:59:17 10.7 C 75 %
133 08-03-2020 22:09:17 10.7 C 75 %
134 08-03-2020 22:19:16 10.7 C 75 %
135 08-03-2020 22:29:16 10.7 C 75 %
136 08-03-2020 22:39:17 10.7 C 75 %
137 08-03-2020 22:49:16 10.7 C 75 %
138 08-03-2020 22:59:16 10.7 C 75 %
139 08-03-2020 23:09:16 10.7 C 75 %
140 08-03-2020 23:19:16 10.7 C 75 %
141 08-03-2020 23:29:16 10.7 C 75 %
142 08-03-2020 23:39:16 10.7 C 75 %
143 08-03-2020 23:49:16 10.7 C 75 %
144 08-03-2020 23:59:16 10.7 C 75 %
145 09-03-2020 00:09:17 10.7 C 75 %
146 09-03-2020 00:19:16 10.7 C 75 %
147 09-03-2020 00:29:16 10.7 C 75 %
148 09-03-2020 00:39:16 10.7 C 75 %
149 09-03-2020 00:49:16 10.7 C 75 %
150 09-03-2020 00:59:16 10.7 C 75 %
Sensor: Nr:Datum:Temp:Feuchte:
G-T/H 151 09-03-2020 01:09:16 10.7 C 75 %
152 09-03-2020 01:19:16 10.7 C 75 %
153 09-03-2020 01:29:16 10.7 C 75 %
154 09-03-2020 01:39:16 10.7 C 75 %
155 09-03-2020 01:49:16 10.7 C 75 %
156 09-03-2020 01:59:16 10.7 C 75 %
157 09-03-2020 02:09:16 10.7 C 75 %
158 09-03-2020 02:19:16 10.7 C 75 %
159 09-03-2020 02:29:16 10.7 C 75 %
160 09-03-2020 02:39:16 10.7 C 75 %
161 09-03-2020 02:49:17 10.7 C 75 %
162 09-03-2020 02:59:17 10.7 C 75 %
163 09-03-2020 03:09:17 10.7 C 75 %
164 09-03-2020 03:19:17 10.7 C 75 %
165 09-03-2020 03:29:17 10.7 C 75 %
166 09-03-2020 03:39:17 10.7 C 75 %
167 09-03-2020 03:49:17 10.7 C 75 %
168 09-03-2020 03:59:17 10.7 C 75 %
169 09-03-2020 04:09:17 10.7 C 75 %
170 09-03-2020 04:19:17 10.7 C 75 %
171 09-03-2020 04:29:17 10.7 C 75 %
172 09-03-2020 04:39:18 10.7 C 75 %
173 09-03-2020 04:49:17 10.7 C 75 %
174 09-03-2020 04:59:17 10.7 C 75 %
175 09-03-2020 05:09:18 10.7 C 75 %
Sensor: Nr:Datum:Temp:Feuchte:
G-T/H 176 09-03-2020 05:19:17 10.7 C 75 %
177 09-03-2020 05:29:17 10.7 C 75 %
178 09-03-2020 05:39:17 10.7 C 75 %
179 09-03-2020 05:49:17 10.6 C 75 %
180 09-03-2020 05:59:17 10.6 C 75 %
181 09-03-2020 06:09:17 10.6 C 75 %
182 09-03-2020 06:19:17 10.6 C 75 %
183 09-03-2020 06:29:17 10.6 C 75 %
184 09-03-2020 06:39:18 10.6 C 75 %
185 09-03-2020 06:49:17 10.6 C 75 %
186 09-03-2020 06:59:18 10.6 C 75 %
187 09-03-2020 07:09:18 10.6 C 75 %
188 09-03-2020 07:19:18 10.5 C 75 %
189 09-03-2020 07:29:18 10.5 C 75 %
190 09-03-2020 07:39:17 10.5 C 75 %
191 09-03-2020 07:49:17 10.5 C 75 %
192 09-03-2020 07:59:17 10.5 C 75 %
193 09-03-2020 08:09:17 10.5 C 75 %
194 09-03-2020 08:19:17 10.5 C 74 %
195 09-03-2020 08:29:17 10.5 C 74 %
196 09-03-2020 08:39:18 10.5 C 74 %
197 09-03-2020 08:49:17 10.5 C 74 %
198 09-03-2020 08:59:17 10.5 C 74 %
199 09-03-2020 09:09:17 10.5 C 74 %
200 09-03-2020 09:19:17 10.4 C 74 %
Sensor: Nr:Datum:Temp:Feuchte:
G-T/H 201 09-03-2020 09:29:17 10.4 C 74 %
202 09-03-2020 09:39:17 10.5 C 74 %
203 09-03-2020 09:49:17 10.5 C 74 %
204 09-03-2020 09:59:17 10.4 C 74 %
205 09-03-2020 10:09:17 10.4 C 74 %
206 09-03-2020 10:19:17 10.4 C 74 %
207 09-03-2020 10:29:17 10.4 C 74 %
208 09-03-2020 10:39:17 10.4 C 74 %
209 09-03-2020 10:49:17 10.4 C 74 %
210 09-03-2020 10:59:17 10.4 C 74 %
211 09-03-2020 11:09:17 10.4 C 74 %
212 09-03-2020 11:19:17 10.4 C 74 %
213 09-03-2020 11:29:17 10.4 C 74 %
214 09-03-2020 11:39:17 10.4 C 74 %
215 09-03-2020 11:49:17 10.4 C 74 %
216 09-03-2020 11:59:17 10.4 C 74 %
217 09-03-2020 12:09:18 10.4 C 74 %
218 09-03-2020 12:19:18 10.4 C 74 %
219 09-03-2020 12:29:18 10.4 C 74 %
220 09-03-2020 12:39:18 10.4 C 74 %
221 09-03-2020 12:49:17 10.4 C 74 %
222 09-03-2020 12:59:17 10.4 C 74 %
223 09-03-2020 13:09:17 10.4 C 74 %
224 09-03-2020 13:19:17 10.4 C 74 %
225 09-03-2020 13:29:17 10.5 C 74 %
Sensor: Nr:Datum:Temp:Feuchte:
G-T/H 226 09-03-2020 13:39:17 10.5 C 74 %
227 09-03-2020 13:49:17 10.5 C 74 %
228 09-03-2020 13:59:17 10.5 C 74 %
229 09-03-2020 14:09:17 10.5 C 74 %
230 09-03-2020 14:19:17 10.5 C 74 %
231 09-03-2020 14:29:17 10.5 C 74 %
232 09-03-2020 14:39:17 10.5 C 74 %
233 09-03-2020 14:49:17 10.5 C 74 %
234 09-03-2020 14:59:17 10.5 C 74 %
235 09-03-2020 15:09:18 10.5 C 74 %
236 09-03-2020 15:19:18 10.5 C 74 %
237 09-03-2020 15:29:18 10.5 C 74 %
238 09-03-2020 15:39:18 10.5 C 73 %
239 09-03-2020 15:49:17 10.5 C 73 %
240 09-03-2020 15:59:17 10.5 C 73 %
241 09-03-2020 16:09:18 10.5 C 72 %
242 09-03-2020 16:19:17 10.5 C 72 %
243 09-03-2020 16:29:17 10.5 C 72 %
244 09-03-2020 16:39:17 10.5 C 72 %
245 09-03-2020 16:49:17 10.5 C 72 %
246 09-03-2020 16:59:18 10.5 C 72 %
247 09-03-2020 17:09:18 10.5 C 72 %
248 09-03-2020 17:19:17 10.6 C 72 %
249 09-03-2020 17:29:17 10.6 C 72 %
250 09-03-2020 17:39:18 10.6 C 72 %
Sensor: Nr:Datum:Temp:Feuchte:
G-T/H 251 09-03-2020 17:49:17 10.6 C 72 %
252 09-03-2020 17:59:18 10.6 C 72 %
253 09-03-2020 18:09:18 10.6 C 72 %
254 09-03-2020 18:19:17 10.6 C 72 %
255 09-03-2020 18:29:17 10.6 C 72 %
256 09-03-2020 18:39:17 10.6 C 73 %
257 09-03-2020 18:49:17 10.6 C 73 %
258 09-03-2020 18:59:17 10.6 C 73 %
259 09-03-2020 19:09:18 10.5 C 73 %
260 09-03-2020 19:19:17 10.6 C 73 %
261 09-03-2020 19:29:17 10.6 C 73 %
262 09-03-2020 19:39:17 10.6 C 73 %
263 09-03-2020 19:49:18 10.6 C 73 %
264 09-03-2020 19:59:18 10.6 C 73 %
265 09-03-2020 20:09:17 10.6 C 73 %
266 09-03-2020 20:19:17 10.6 C 73 %
267 09-03-2020 20:29:17 10.6 C 73 %
268 09-03-2020 20:39:18 10.6 C 73 %
269 09-03-2020 20:49:18 10.6 C 73 %
270 09-03-2020 20:59:18 10.6 C 73 %
271 09-03-2020 21:09:17 10.6 C 73 %
272 09-03-2020 21:19:17 10.6 C 73 %
273 09-03-2020 21:29:17 10.5 C 73 %
274 09-03-2020 21:39:17 10.5 C 73 %
275 09-03-2020 21:49:18 10.5 C 73 %
Sensor: Nr:Datum:Temp:Feuchte:
G-T/H 276 09-03-2020 21:59:18 10.5 C 73 %
277 09-03-2020 22:09:18 10.5 C 73 %
278 09-03-2020 22:19:17 10.5 C 73 %
279 09-03-2020 22:29:17 10.5 C 73 %
280 09-03-2020 22:39:17 10.5 C 73 %
281 09-03-2020 22:49:17 10.4 C 73 %
282 09-03-2020 22:59:17 10.4 C 73 %
283 09-03-2020 23:09:18 10.4 C 73 %
284 09-03-2020 23:19:17 10.4 C 73 %
285 09-03-2020 23:29:17 10.4 C 73 %
286 09-03-2020 23:39:17 10.4 C 73 %
287 09-03-2020 23:49:17 10.4 C 73 %
288 09-03-2020 23:59:17 10.4 C 73 %
289 10-03-2020 00:09:17 10.4 C 73 %
290 10-03-2020 00:19:18 10.4 C 72 %
291 10-03-2020 00:29:18 10.4 C 72 %
292 10-03-2020 00:39:18 10.3 C 72 %
293 10-03-2020 00:49:18 10.3 C 72 %
294 10-03-2020 00:59:18 10.3 C 72 %
295 10-03-2020 01:09:18 10.3 C 72 %
296 10-03-2020 01:19:17 10.3 C 72 %
297 10-03-2020 01:29:18 10.3 C 72 %
298 10-03-2020 01:39:18 10.3 C 72 %
299 10-03-2020 01:49:17 10.2 C 72 %
300 10-03-2020 01:59:17 10.2 C 72 %
Sensor: Nr:Datum:Temp:Feuchte:
G-T/H 301 10-03-2020 02:09:18 10.2 C 72 %
302 10-03-2020 02:19:17 10.2 C 72 %
303 10-03-2020 02:29:18 10.2 C 72 %
304 10-03-2020 02:39:18 10.2 C 71 %
305 10-03-2020 02:49:17 10.2 C 71 %
306 10-03-2020 02:59:17 10.2 C 71 %
307 10-03-2020 03:09:18 10.2 C 71 %
308 10-03-2020 03:19:18 10.2 C 71 %
309 10-03-2020 03:29:18 10.1 C 71 %
310 10-03-2020 03:39:18 10.1 C 71 %
311 10-03-2020 03:49:17 10.1 C 71 %
312 10-03-2020 03:59:17 10.1 C 71 %
313 10-03-2020 04:09:17 10.1 C 71 %
314 10-03-2020 04:19:17 10.1 C 71 %
315 10-03-2020 04:29:17 10.1 C 71 %
316 10-03-2020 04:39:17 10.1 C 71 %
317 10-03-2020 04:49:17 10.1 C 72 %
318 10-03-2020 04:59:17 10.1 C 72 %
319 10-03-2020 05:09:17 10.1 C 72 %
320 10-03-2020 05:19:17 10.1 C 72 %
321 10-03-2020 05:29:18 10.1 C 72 %
322 10-03-2020 05:39:18 10.1 C 72 %
323 10-03-2020 05:49:18 10.1 C 72 %
324 10-03-2020 05:59:18 10.1 C 72 %
325 10-03-2020 06:09:17 10.1 C 72 %
Sensor: Nr:Datum:Temp:Feuchte:
G-T/H 326 10-03-2020 06:19:17 10.1 C 72 %
327 10-03-2020 06:29:17 10.1 C 72 %
328 10-03-2020 06:39:18 10.1 C 72 %
329 10-03-2020 06:49:17 10.1 C 72 %
330 10-03-2020 06:59:17 10.1 C 72 %
331 10-03-2020 07:09:18 10.1 C 72 %
332 10-03-2020 07:19:18 10.1 C 72 %
333 10-03-2020 07:29:18 10.1 C 72 %
334 10-03-2020 07:39:18 10.1 C 72 %
335 10-03-2020 07:49:18 10 C 72 %
336 10-03-2020 07:59:18 10 C 72 %
337 10-03-2020 08:09:18 10 C 72 %
338 10-03-2020 08:19:18 10 C 73 %
339 10-03-2020 08:29:18 10 C 73 %
340 10-03-2020 08:39:18 10 C 73 %
341 10-03-2020 08:49:18 10 C 73 %
342 10-03-2020 08:59:18 10 C 73 %
343 10-03-2020 09:09:17 10 C 73 %
344 10-03-2020 09:19:17 10 C 73 %
345 10-03-2020 09:29:17 10 C 73 %
346 10-03-2020 09:39:17 10 C 73 %
347 10-03-2020 09:49:17 10 C 73 %
348 10-03-2020 09:59:17 10 C 73 %
349 10-03-2020 10:09:18 10 C 73 %
350 10-03-2020 10:19:18 10 C 73 %
Sensor: Nr:Datum:Temp:Feuchte:
G-T/H 351 10-03-2020 10:29:18 10 C 73 %
352 10-03-2020 10:39:18 10 C 73 %
353 10-03-2020 10:49:18 10 C 73 %
354 10-03-2020 10:59:18 10 C 73 %
355 10-03-2020 11:09:18 10 C 73 %
356 10-03-2020 11:19:18 10 C 73 %
357 10-03-2020 11:29:18 10 C 73 %
358 10-03-2020 11:39:18 10 C 73 %
359 10-03-2020 11:49:17 10 C 73 %
360 10-03-2020 11:59:17 10 C 73 %
361 10-03-2020 12:09:17 10 C 73 %
362 10-03-2020 12:19:17 10 C 73 %
363 10-03-2020 12:29:18 10 C 73 %
364 10-03-2020 12:39:18 10.1 C 73 %
365 10-03-2020 12:49:17 10 C 73 %
366 10-03-2020 12:59:17 10.1 C 73 %
367 10-03-2020 13:09:18 10 C 73 %
368 10-03-2020 13:19:17 10.1 C 74 %
369 10-03-2020 13:29:18 10.1 C 74 %
370 10-03-2020 13:39:18 10.1 C 74 %
371 10-03-2020 13:49:17 10.1 C 74 %
372 10-03-2020 13:59:18 10.1 C 74 %
373 10-03-2020 14:09:18 10.1 C 74 %
374 10-03-2020 14:19:18 10.1 C 74 %
375 10-03-2020 14:29:18 10.1 C 74 %
Sensor: Nr:Datum:Temp:Feuchte:
G-T/H 376 10-03-2020 14:39:18 10.1 C 74 %
377 10-03-2020 14:49:17 10.1 C 74 %
378 10-03-2020 14:59:17 10.2 C 74 %
379 10-03-2020 15:09:18 10.2 C 74 %
380 10-03-2020 15:19:18 10.2 C 74 %
381 10-03-2020 15:29:18 10.2 C 74 %
382 10-03-2020 15:39:18 10.2 C 74 %
383 10-03-2020 15:49:17 10.2 C 74 %
384 10-03-2020 15:59:18 10.3 C 74 %
385 10-03-2020 16:09:18 10.3 C 74 %
386 10-03-2020 16:19:18 10.3 C 74 %
387 10-03-2020 16:29:18 10.3 C 74 %
388 10-03-2020 16:39:18 10.4 C 74 %
389 10-03-2020 16:49:17 10.4 C 74 %
390 10-03-2020 16:59:18 10.4 C 74 %
391 10-03-2020 17:09:18 10.4 C 74 %
392 10-03-2020 17:19:17 10.4 C 74 %
393 10-03-2020 17:29:18 10.4 C 75 %
394 10-03-2020 17:39:18 10.4 C 75 %
395 10-03-2020 17:49:17 10.5 C 75 %
396 10-03-2020 17:59:18 10.5 C 75 %
397 10-03-2020 18:09:18 10.5 C 75 %
398 10-03-2020 18:19:17 10.5 C 75 %
399 10-03-2020 18:29:18 10.5 C 75 %
400 10-03-2020 18:39:18 10.5 C 75 %
Sensor: Nr:Datum:Temp:Feuchte:
G-T/H 401 10-03-2020 18:49:17 10.5 C 75 %
402 10-03-2020 18:59:17 10.5 C 75 %
403 10-03-2020 19:09:18 10.5 C 75 %
404 10-03-2020 19:19:17 10.6 C 75 %
405 10-03-2020 19:29:17 10.6 C 75 %
406 10-03-2020 19:39:17 10.6 C 75 %
407 10-03-2020 19:49:17 10.6 C 75 %
408 10-03-2020 19:59:17 10.6 C 75 %
409 10-03-2020 20:09:17 10.6 C 75 %
410 10-03-2020 20:19:17 10.6 C 75 %
411 10-03-2020 20:29:18 10.6 C 75 %
412 10-03-2020 20:39:18 10.7 C 75 %
413 10-03-2020 20:49:17 10.7 C 75 %
414 10-03-2020 20:59:17 10.7 C 75 %
415 10-03-2020 21:09:18 10.7 C 75 %
416 10-03-2020 21:19:17 10.7 C 75 %
417 10-03-2020 21:29:18 10.8 C 75 %
418 10-03-2020 21:39:18 10.8 C 75 %
419 10-03-2020 21:49:17 10.8 C 75 %
420 10-03-2020 21:59:18 10.8 C 75 %
421 10-03-2020 22:09:18 10.8 C 75 %
422 10-03-2020 22:19:18 10.8 C 76 %
423 10-03-2020 22:29:18 10.8 C 76 %
424 10-03-2020 22:39:18 10.8 C 76 %
425 10-03-2020 22:49:17 10.8 C 76 %
Sensor: Nr:Datum:Temp:Feuchte:
G-T/H 426 10-03-2020 22:59:17 10.8 C 76 %
427 10-03-2020 23:09:18 10.9 C 76 %
428 10-03-2020 23:19:18 10.8 C 76 %
429 10-03-2020 23:29:18 10.9 C 76 %
430 10-03-2020 23:39:18 10.9 C 76 %
431 10-03-2020 23:49:17 10.9 C 76 %
432 10-03-2020 23:59:17 10.9 C 76 %
433 11-03-2020 00:09:17 10.9 C 76 %
434 11-03-2020 00:19:17 11 C 75 %
435 11-03-2020 00:29:17 11 C 75 %
436 11-03-2020 00:39:18 11 C 75 %
437 11-03-2020 00:49:17 11 C 75 %
438 11-03-2020 00:59:17 11 C 75 %
439 11-03-2020 01:09:17 11 C 75 %
440 11-03-2020 01:19:17 11 C 75 %
441 11-03-2020 01:29:17 11 C 75 %
442 11-03-2020 01:39:17 11 C 75 %
443 11-03-2020 01:49:17 11 C 75 %
444 11-03-2020 01:59:17 11.1 C 75 %
445 11-03-2020 02:09:17 11.1 C 75 %
446 11-03-2020 02:19:17 11.1 C 75 %
447 11-03-2020 02:29:17 11.1 C 75 %
448 11-03-2020 02:39:17 11.1 C 75 %
449 11-03-2020 02:49:17 11.1 C 75 %
450 11-03-2020 02:59:17 11.1 C 75 %
Sensor: Nr:Datum:Temp:Feuchte:
G-T/H 451 11-03-2020 03:09:17 11.1 C 75 %
452 11-03-2020 03:19:18 11.1 C 75 %
453 11-03-2020 03:29:18 11.1 C 75 %
454 11-03-2020 03:39:18 11.1 C 75 %
455 11-03-2020 03:49:17 11.2 C 75 %
456 11-03-2020 03:59:18 11.2 C 76 %
457 11-03-2020 04:09:18 11.2 C 76 %
458 11-03-2020 04:19:18 11.2 C 76 %
459 11-03-2020 04:29:18 11.2 C 76 %
460 11-03-2020 04:39:17 11.2 C 76 %
461 11-03-2020 04:49:17 11.2 C 76 %
462 11-03-2020 04:59:17 11.3 C 76 %
463 11-03-2020 05:09:17 11.2 C 76 %
464 11-03-2020 05:19:17 11.2 C 76 %
465 11-03-2020 05:29:17 11.3 C 76 %
466 11-03-2020 05:39:17 11.2 C 76 %
467 11-03-2020 05:49:18 11.3 C 76 %
468 11-03-2020 05:59:18 11.3 C 76 %
469 11-03-2020 06:09:18 11.3 C 76 %
470 11-03-2020 06:19:17 11.3 C 76 %
471 11-03-2020 06:29:17 11.3 C 76 %
472 11-03-2020 06:39:18 11.4 C 76 %
473 11-03-2020 06:49:17 11.4 C 76 %
474 11-03-2020 06:59:17 11.3 C 76 %
475 11-03-2020 07:09:17 11.4 C 76 %
Sensor: Nr:Datum:Temp:Feuchte:
G-T/H 476 11-03-2020 07:19:17 11.4 C 76 %
477 11-03-2020 07:29:17 11.4 C 76 %
478 11-03-2020 07:39:17 11.4 C 76 %
479 11-03-2020 07:49:17 11.4 C 76 %
480 11-03-2020 07:59:18 11.4 C 76 %
481 11-03-2020 08:09:18 11.4 C 76 %
482 11-03-2020 08:19:18 11.4 C 76 %
483 11-03-2020 08:29:18 11.5 C 76 %
484 11-03-2020 08:39:18 11.5 C 76 %
485 11-03-2020 08:49:18 11.5 C 76 %
486 11-03-2020 08:59:18 11.5 C 76 %
487 11-03-2020 09:09:18 11.5 C 76 %
488 11-03-2020 09:19:18 11.5 C 76 %
489 11-03-2020 09:29:18 11.5 C 76 %
490 11-03-2020 09:39:18 11.5 C 76 %
491 11-03-2020 09:49:18 11.5 C 76 %
492 11-03-2020 09:59:18 11.5 C 76 %
493 11-03-2020 10:09:18 11.6 C 76 %
494 11-03-2020 10:19:17 11.6 C 76 %
495 11-03-2020 10:29:17 11.5 C 76 %
496 11-03-2020 10:39:18 11.6 C 76 %
497 11-03-2020 10:49:18 11.6 C